[[{"header":{"parameterUnit":"m.s-1","parameterCategory":1,"la1":31.0,"la2":29.5877,"lo1":-88.7671,"lo2":-86.6584,"dy":0.0162,"dx":0.0185,"nx":115,"ny":88,"refTime":"2026-05-17T12:00:00:Z","depth":0,"parameterNumber":2,"parameterNumberName":"U-component_of_WINDS"},"data":[0.0,0.0,0.0,0.0,0.0,0.0,0.0,0.0,0.0,0.0,0.0,0.0,0.0,0.0,0.0,0.0,0.0,0.0,0.0,0.0,0.0,0.0,0.0,0.0,0.0,0.0,0.0,0.0,0.0,0.0,0.0,0.0,0.0,0.0,0.0,0.0,0.0,0.0,0.0,0.0,0.0,0.0,0.0,0.0,0.0,0.0,0.0,0.0,0.0,0.0,0.0,0.0,0.0,0.0,0.0,0.0,0.0,0.0,0.0,0.0,0.0,0.0,0.0,0.0,0.0,0.0,0.0,0.0,0.0,0.0,0.0,0.0,0.0,0.0,0.0,0.0,0.0,0.0,0.0,0.0,0.0,0.0,0.0,0.0,0.0,0.0,0.0,0.0,0.0,0.0,0.0,0.0,0.0,0.0,0.0,0.0,0.0,0.0,0.0,0.0,0.0,0.0,0.0,0.0,0.0,0.0,0.0,0.0,0.0,0.0,0.0,0.0,0.0,0.0,0.0,0.0,0.0,0.0,0.0,0.0,0.0,0.0,0.0,0.0,0.0,0.0,0.0,0.0,0.0,0.0,0.0,0.0,0.0,0.0,0.0,0.0,0.0,0.0,0.0,0.0,0.0,0.0,0.0,0.0,0.0,0.0,0.0,0.0,0.0,0.0,0.0,0.0,0.0,0.0,0.0,0.0,0.0,0.0,0.0,0.0,0.0,0.0,0.0,0.0,0.0,0.0,0.0,0.0,0.0,0.0,0.0,0.0,0.0,0.0,0.0,0.0,0.0,0.0,0.0,0.0,0.0,0.0,0.0,0.0,0.0,0.0,0.0,0.0,0.0,0.0,0.0,0.0,0.0,0.0,0.0,0.0,0.0,0.0,0.0,0.0,0.0,0.0,0.0,0.0,0.0,0.0,0.0,0.0,0.0,0.0,0.0,0.0,0.0,0.0,0.0,0.0,0.0,0.0,0.0,0.0,0.0,0.0,0.0,0.0,0.0,0.0,0.0,0.0,0.0,0.0,0.0,0.0,0.0,0.0,0.0,0.0,0.0,0.0,0.0,0.0,0.0,0.0,0.0,0.0,0.0,0.0,0.0,0.0,0.0,0.0,0.0,0.0,0.0,0.0,0.0,0.0,0.0,0.0,0.0,0.0,0.0,0.0,0.0,0.0,0.0,0.0,0.0,0.0,0.0,0.0,0.0,0.0,0.0,0.0,0.0,0.0,0.0,0.0,0.0,0.0,0.0,0.0,0.0,0.0,0.0,0.0,0.0,0.0,0.0,0.0,0.0,0.0,0.0,0.0,0.0,0.0,0.0,0.0,0.0,0.0,0.0,0.0,0.0,0.0,0.0,0.0,0.0,0.0,0.0,0.0,0.0,0.0,0.0,0.0,0.0,0.0,0.0,0.0,0.0,0.0,0.0,0.0,0.0,0.0,0.0,0.0,0.0,0.0,0.0,0.0,0.0,0.0,0.0,0.0,0.0,0.0,0.0,0.0,0.0,0.0,0.0,0.0,0.0,0.0,0.0,0.0,0.0,0.0,0.0,0.0,0.0,0.0,0.0,0.0,0.0,0.0,0.0,0.0,0.0,0.0,0.0,0.0,0.0,0.0,0.0,0.0,0.0,0.0,0.0,0.0,0.0,0.0,0.0,0.0,0.0,0.0,0.0,0.0,0.0,0.0,0.0,0.0,0.0,0.0,0.0,0.0,0.0,0.0,0.0,0.0,0.0,0.0,0.0,0.0,0.0,0.0,0.0,0.0,0.0,0.0,0.0,0.0,0.0,0.0,0.0,0.0,0.0,0.0,0.0,0.0,0.0,0.0,0.0,0.0,0.0,0.0,0.0,0.0,0.0,0.0,0.0,0.0,0.0,0.0,0.0,0.0,0.0,0.0,0.0,0.0,0.0,0.0,0.0,0.0,0.0,0.0,0.0,0.0,0.0,0.0,0.0,0.0,0.0,0.0,0.0,0.0,0.0,0.0,0.0,0.0,0.0,0.0,0.0,0.0,0.0,0.0,0.0,0.0,0.0,0.0,0.0,0.0,0.0,0.0,0.0,0.0,0.0,0.0,0.0,0.0,0.0,0.0,0.0,0.0,0.0,0.0,0.0,0.0,0.0,0.0,0.0,0.0,0.0,0.0,0.0,0.0,0.0,0.0,0.0,0.0,0.0,0.0,0.0,0.0,0.0,0.0,0.0,0.0,0.0,0.0,0.0,0.0,0.0,0.0,0.0,0.0,0.0,0.0,0.0,0.0,0.0,0.0,0.0,0.0,0.0,0.0,0.0,0.0,0.0,0.0,0.0,0.0,0.0,0.0,0.0,0.0,0.0,0.0,0.0,0.0,0.0,0.0,0.0,0.0,0.0,0.0,0.0,0.0,0.0,0.0,0.0,0.0,0.0,0.0,0.0,0.0,0.0,0.0,0.0,0.0,0.0,0.0,0.0,0.0,0.0,0.0,0.0,0.0,0.0,0.0,0.0,0.0,0.0,0.0,0.0,0.0,0.0,0.0,0.0,0.0,0.0,0.0,0.0,0.0,0.0,0.0,0.0,0.0,0.0,0.0,0.0,0.0,0.0,0.0,0.0,0.0,0.0,0.0,0.0,0.0,0.0,0.0,0.0,0.0,0.0,0.0,0.0,0.0,0.0,0.0,0.0,0.0,0.0,0.0,0.0,0.0,0.0,0.0,0.0,0.0,0.0,0.0,0.0,0.0,0.0,0.0,0.0,0.0,0.0,0.0,0.0,0.0,0.0,0.0,0.0,0.0,0.0,0.0,0.0,0.0,0.0,0.0,0.0,0.0,0.0,0.0,0.0,0.0,0.0,0.0,0.0,0.0,0.0,0.0,0.0,0.0,0.0,0.0,0.0,0.0,0.0,0.0,0.0,0.0,0.0,0.0,0.0,0.0,0.0,0.0,0.0,0.0,0.0,0.0,0.0,0.0,0.0,0.0,0.0,0.0,0.0,0.0,0.0,0.0,0.0,0.0,0.0,0.0,0.0,0.0,0.0,0.0,0.0,0.0,0.0,0.0,0.0,0.0,0.0,0.0,0.0,0.0,0.0,0.0,0.0,0.0,0.0,0.0,0.0,0.0,0.0,0.0,0.0,0.0,0.0,0.0,0.0,0.0,0.0,0.0,0.0,0.0,0.0,0.0,0.0,0.0,0.0,0.0,0.0,0.0,0.0,0.0,0.0,0.0,0.0,0.0,0.0,0.0,0.0,0.0,0.0,0.0,0.0,0.0,0.0,0.0,0.0,0.0,0.0,0.0,0.0,0.0,0.0,0.0,0.0,0.0,0.0,0.0,0.0,0.0,0.0,0.0,0.0,0.0,0.0,0.0,0.0,0.0,0.0,0.0,0.0,0.0,0.0,0.0,0.0,0.0,0.0,0.0,0.0,0.0,0.0,0.0,0.0,0.0,0.0,0.0,0.0,0.0,0.0,0.0,0.0,0.0,0.0,0.0,0.0,0.0,0.0,0.0,0.0,0.0,0.0,0.0,0.0,0.0,0.0,0.0,0.0,0.0,0.0,0.0,0.0,0.0,0.0,0.0,0.0,0.0,0.0,0.0,0.0,0.0,0.0,0.0,0.0,0.0,0.0,0.0,0.0,0.0,0.0,0.0,0.0,0.0,0.0,0.0,0.0,0.0,0.0,0.0,0.0,0.0,0.0,0.0,0.0,0.0,0.0,0.0,0.0,0.0,0.0,0.0,0.0,0.0,0.0,0.0,0.0,0.0,0.0,0.0,0.0,0.0,0.0,0.0,0.0,0.0,0.0,0.0,0.0,0.0,0.0,0.0,0.0,0.0,0.0,0.0,0.0,0.0,0.0,0.0,0.0,0.0,0.0,0.0,0.0,0.0,0.0,0.0,0.0,0.0,0.0,0.0,0.0,0.0,0.0,0.0,0.0,0.0,0.0,0.0,0.0,0.0,0.0,0.0,0.0,0.0,0.0,0.0,0.0,0.0,0.0,0.0,0.0,0.0,0.0,0.0,0.0,0.0,0.0,0.0,0.0,0.0,0.0,0.0,0.0,0.0,0.0,0.0,0.0,0.0,0.0,0.0,0.0,0.0,0.0,0.0,0.0,0.0,0.0,0.0,0.0,0.0,0.0,0.0,0.0,0.0,0.0,0.0,0.0,0.0,0.0,0.0,0.0,0.0,0.0,0.0,0.0,0.0,0.0,0.0,0.0,0.0,0.0,0.0,0.0,0.0,0.0,0.0,0.0,0.0,0.0,0.0,0.0,0.0,0.0,0.0,0.0,0.0,-1.2205,0.0,0.0,0.0,0.0,0.0,0.0,0.0,0.0,0.0,0.0,0.0,0.0,0.0,0.0,0.0,0.0,0.0,0.0,0.0,0.0,0.0,0.0,0.0,0.0,0.0,0.0,0.0,0.0,0.0,0.0,0.0,0.0,0.0,0.0,0.0,0.0,0.0,0.0,0.0,0.0,0.0,0.0,0.0,0.0,0.0,0.0,0.0,0.0,0.0,0.0,0.0,0.0,0.0,0.0,0.0,0.0,0.0,0.0,0.0,0.0,0.0,0.0,0.0,0.0,0.0,0.0,0.0,0.0,0.0,0.0,0.0,0.0,0.0,0.0,0.0,0.0,0.0,0.0,0.0,0.0,0.0,0.0,0.0,0.0,0.0,0.0,0.0,0.0,0.0,0.0,0.0,0.0,0.0,0.0,0.0,0.0,0.0,0.0,0.0,0.0,0.0,0.0,0.0,0.0,0.0,0.0,0.0,0.0,0.0,0.0,-1.1971,-1.1982,-1.1971,-1.1897,-1.1721,0.0,0.0,0.0,0.0,0.0,0.0,0.0,0.0,0.0,0.0,0.0,0.0,0.0,0.0,0.0,0.0,0.0,0.0,0.0,0.0,0.0,0.0,0.0,0.0,0.0,0.0,0.0,0.0,0.0,0.0,0.0,0.0,0.0,0.0,0.0,0.0,0.0,0.0,0.0,0.0,0.0,0.0,0.0,0.0,0.0,0.0,0.0,0.0,0.0,0.0,0.0,0.0,0.0,0.0,0.0,0.0,0.0,0.0,0.0,0.0,0.0,0.0,0.0,0.0,0.0,0.0,0.0,0.0,0.0,0.0,0.0,0.0,0.0,0.0,0.0,0.0,0.0,0.0,0.0,0.0,0.0,0.0,0.0,0.0,0.0,0.0,0.0,0.0,0.0,0.0,0.0,0.0,0.0,0.0,0.0,0.0,0.0,0.0,0.0,0.0,0.0,0.0,0.0,0.0,0.0,0.0,0.0,0.0,0.0,0.0,0.0,0.0,-1.2254,-1.2141,-1.1882,0.0,0.0,0.0,0.0,0.0,0.0,0.0,0.0,0.0,0.0,0.0,0.0,0.0,0.0,0.0,0.0,0.0,0.0,0.0,0.0,0.0,0.0,0.0,0.0,0.0,0.0,0.0,0.0,0.0,0.0,0.0,0.0,0.0,0.0,0.0,0.0,0.0,0.0,0.0,0.0,0.0,0.0,0.0,0.0,0.0,0.0,0.0,0.0,0.0,0.0,0.0,0.0,0.0,0.0,0.0,0.0,0.0,0.0,0.0,0.0,0.0,0.0,0.0,0.0,0.0,0.0,0.0,0.0,0.0,0.0,0.0,0.0,0.0,0.0,0.0,0.0,0.0,0.0,0.0,0.0,0.0,0.0,0.0,0.0,0.0,0.0,0.0,0.0,0.0,0.0,0.0,0.0,0.0,0.0,0.0,0.0,0.0,0.0,0.0,0.0,0.0,0.0,0.0,0.0,0.0,0.0,0.0,0.0,0.0,0.0,-1.2388,-1.3573,-1.3603,0.0,-1.3553,0.0,0.0,0.0,0.0,0.0,0.0,0.0,0.0,0.0,0.0,0.0,0.0,0.0,0.0,0.0,0.0,0.0,0.0,0.0,0.0,0.0,0.0,0.0,0.0,0.0,0.0,0.0,0.0,0.0,0.0,0.0,0.0,0.0,0.0,0.0,0.0,0.0,0.0,0.0,0.0,0.0,0.0,0.0,0.0,0.0,0.0,0.0,0.0,0.0,0.0,0.0,0.0,0.0,0.0,0.0,0.0,0.0,0.0,0.0,0.0,0.0,0.0,0.0,0.0,0.0,0.0,0.0,0.0,0.0,0.0,0.0,0.0,0.0,0.0,0.0,0.0,0.0,0.0,0.0,0.0,0.0,0.0,0.0,0.0,0.0,0.0,0.0,0.0,0.0,0.0,0.0,0.0,0.0,0.0,0.0,0.0,0.0,0.0,0.0,0.0,0.0,0.0,0.0,0.0,0.0,0.0,0.0,0.0,0.0,0.0,0.0,-1.3467,-1.3313,-1.3299,0.0,0.0,0.0,0.0,0.0,0.0,0.0,0.0,0.0,0.0,0.0,0.0,0.0,0.0,0.0,0.0,0.0,0.0,0.0,0.0,0.0,0.0,0.0,0.0,0.0,0.0,0.0,0.0,0.0,0.0,0.0,0.0,0.0,0.0,0.0,0.0,0.0,0.0,0.0,0.0,0.0,0.0,0.0,0.0,0.0,0.0,0.0,0.0,0.0,0.0,0.0,0.0,0.0,0.0,0.0,0.0,0.0,0.0,0.0,0.0,0.0,0.0,0.0,0.0,0.0,0.0,0.0,0.0,0.0,0.0,0.0,0.0,0.0,0.0,0.0,0.0,0.0,0.0,0.0,0.0,0.0,0.0,0.0,0.0,0.0,0.0,0.0,0.0,0.0,0.0,0.0,0.0,0.0,0.0,0.0,0.0,0.0,0.0,0.0,0.0,0.0,0.0,0.0,0.0,0.0,0.0,0.0,0.0,0.0,0.0,-1.2115,0.0,-1.3695,-1.3389,-1.3263,-1.3432,0.0,0.0,0.0,0.0,0.0,0.0,0.0,0.0,0.0,0.0,0.0,0.0,0.0,0.0,0.0,0.0,0.0,0.0,0.0,0.0,0.0,0.0,0.0,0.0,0.0,0.0,0.0,0.0,0.0,0.0,0.0,0.0,0.0,0.0,0.0,0.0,0.0,0.0,0.0,0.0,0.0,0.0,0.0,0.0,0.0,0.0,0.0,0.0,0.0,0.0,0.0,0.0,0.0,0.0,0.0,0.0,0.0,0.0,0.0,0.0,0.0,0.0,0.0,0.0,0.0,0.0,0.0,0.0,0.0,0.0,0.0,0.0,0.0,0.0,0.0,0.0,0.0,0.0,0.0,0.0,0.0,0.0,0.0,0.0,0.0,0.0,0.0,0.0,0.0,0.0,0.0,0.0,0.0,0.0,0.0,0.0,0.0,0.0,0.0,0.0,0.0,0.0,0.0,0.0,0.0,0.0,0.0,0.0,0.0,-1.2941,-1.3274,-1.4855,-1.442,-1.403,0.0,0.0,0.0,0.0,0.0,0.0,0.0,0.0,0.0,0.0,0.0,0.0,0.0,0.0,0.0,0.0,0.0,0.0,0.0,0.0,0.0,0.0,0.0,0.0,0.0,0.0,0.0,0.0,0.0,0.0,0.0,0.0,0.0,0.0,0.0,0.0,0.0,0.0,0.0,0.0,0.0,0.0,0.0,0.0,0.0,0.0,0.0,0.0,0.0,0.0,0.0,0.0,0.0,0.0,0.0,0.0,0.0,0.0,0.0,0.0,0.0,0.0,0.0,0.0,0.0,0.0,0.0,0.0,0.0,0.0,0.0,0.0,0.0,0.0,0.0,0.0,0.0,0.0,0.0,0.0,0.0,0.0,0.0,0.0,0.0,0.0,0.0,0.0,0.0,0.0,0.0,0.0,0.0,0.0,0.0,0.0,0.0,0.0,0.0,0.0,0.0,0.0,0.0,0.0,0.0,0.0,0.0,0.0,0.0,-1.2007,-1.2661,-1.394,-1.5811,-1.4461,-1.397,0.0,0.0,0.0,0.0,0.0,0.0,0.0,0.0,0.0,0.0,0.0,0.0,0.0,0.0,0.0,0.0,0.0,0.0,0.0,0.0,0.0,0.0,0.0,0.0,0.0,0.0,0.0,0.0,0.0,0.0,0.0,0.0,0.0,0.0,0.0,0.0,0.0,0.0,0.0,0.0,0.0,0.0,0.0,0.0,0.0,0.0,0.0,0.0,0.0,0.0,0.0,0.0,0.0,0.0,0.0,0.0,0.0,0.0,0.0,0.0,0.0,0.0,0.0,0.0,0.0,0.0,0.0,0.0,0.0,0.0,0.0,0.0,0.0,0.0,0.0,0.0,0.0,0.0,0.0,0.0,0.0,0.0,0.0,0.0,0.0,0.0,0.0,0.0,0.0,0.0,0.0,0.0,0.0,0.0,0.0,0.0,0.0,0.0,0.0,0.0,0.0,0.0,0.0,0.0,0.0,0.0,0.0,0.0,0.0,-1.2084,0.0,-1.4985,0.0,-1.4627,-1.3949,0.0,0.0,0.0,0.0,0.0,0.0,0.0,0.0,0.0,0.0,0.0,0.0,0.0,0.0,0.0,0.0,0.0,0.0,0.0,0.0,0.0,0.0,0.0,0.0,0.0,0.0,0.0,0.0,0.0,0.0,0.0,0.0,0.0,0.0,0.0,0.0,0.0,0.0,0.0,0.0,0.0,0.0,0.0,0.0,0.0,0.0,0.0,0.0,0.0,0.0,0.0,0.0,0.0,0.0,0.0,0.0,0.0,0.0,0.0,0.0,0.0,0.0,0.0,0.0,0.0,0.0,0.0,0.0,0.0,0.0,0.0,0.0,0.0,0.0,0.0,0.0,0.0,0.0,0.0,0.0,0.0,0.0,0.0,0.0,0.0,0.0,0.0,0.0,0.0,0.0,0.0,0.0,0.0,0.0,0.0,0.0,0.0,0.0,0.0,0.0,0.0,0.0,0.0,0.0,0.0,0.0,0.0,0.0,0.0,-1.4396,-1.595,-1.6215,-1.5097,-1.4939,-1.3966,0.0,0.0,0.0,0.0,0.0,0.0,0.0,0.0,0.0,0.0,0.0,0.0,0.0,0.0,0.0,0.0,0.0,0.0,0.0,0.0,0.0,0.0,0.0,0.0,0.0,0.0,0.0,0.0,0.0,0.0,0.0,0.0,0.0,0.0,0.0,0.0,0.0,0.0,0.0,0.0,0.0,0.0,0.0,0.0,0.0,0.0,0.0,0.0,0.0,0.0,0.0,0.0,0.0,0.0,0.0,0.0,0.0,0.0,0.0,0.0,0.0,0.0,0.0,0.0,0.0,0.0,0.0,0.0,0.0,0.0,0.0,0.0,0.0,0.0,0.0,0.0,0.0,0.0,0.0,0.0,0.0,0.0,0.0,0.0,0.0,0.0,0.0,0.0,0.0,0.0,0.0,0.0,0.0,0.0,0.0,0.0,0.0,0.0,0.0,0.0,0.0,0.0,0.0,0.0,0.0,0.0,0.0,0.0,0.0,-1.3727,-1.5387,-1.6388,-1.6498,-1.4431,-1.3683,0.0,0.0,0.0,0.0,0.0,0.0,0.0,0.0,0.0,0.0,0.0,0.0,0.0,0.0,0.0,0.0,0.0,0.0,0.0,0.0,0.0,0.0,0.0,0.0,0.0,0.0,0.0,0.0,0.0,0.0,0.0,0.0,0.0,0.0,0.0,0.0,0.0,0.0,0.0,0.0,0.0,0.0,0.0,0.0,0.0,0.0,0.0,0.0,0.0,0.0,0.0,0.0,0.0,0.0,0.0,0.0,0.0,0.0,0.0,0.0,0.0,0.0,0.0,0.0,0.0,0.0,0.0,0.0,0.0,0.0,0.0,0.0,0.0,0.0,0.0,0.0,0.0,0.0,0.0,0.0,0.0,0.0,0.0,0.0,0.0,0.0,0.0,0.0,0.0,0.0,0.0,0.0,0.0,0.0,0.0,0.0,0.0,0.0,0.0,0.0,0.0,0.0,0.0,0.0,0.0,0.0,0.0,0.0,0.0,-1.5801,-1.7031,-1.7676,-1.751,-1.5123,-1.4053,-1.4494,0.0,0.0,0.0,0.0,0.0,0.0,0.0,0.0,0.0,0.0,0.0,0.0,0.0,0.0,0.0,0.0,0.0,0.0,0.0,0.0,0.0,0.0,0.0,0.0,0.0,0.0,0.0,0.0,0.0,0.0,0.0,0.0,0.0,0.0,0.0,0.0,0.0,0.0,0.0,0.0,0.0,0.0,0.0,0.0,0.0,0.0,0.0,0.0,0.0,0.0,0.0,0.0,0.0,0.0,0.0,0.0,0.0,0.0,0.0,0.0,0.0,0.0,0.0,0.0,0.0,0.0,0.0,0.0,0.0,0.0,0.0,0.0,0.0,0.0,0.0,0.0,0.0,0.0,0.0,0.0,0.0,0.0,0.0,0.0,0.0,0.0,0.0,0.0,0.0,0.0,0.0,0.0,0.0,0.0,0.0,0.0,0.0,0.0,0.0,0.0,0.0,0.0,0.0,0.0,0.0,0.0,0.0,0.0,-1.9872,-2.0535,-1.9981,-1.8188,-1.6775,-1.4995,0.0,0.0,0.0,0.0,0.0,0.0,0.0,0.0,0.0,0.0,0.0,0.0,0.0,0.0,0.0,0.0,0.0,0.0,0.0,0.0,0.0,0.0,0.0,0.0,0.0,0.0,0.0,0.0,0.0,0.0,0.0,0.0,0.0,0.0,0.0,0.0,0.0,0.0,0.0,0.0,0.0,0.0,0.0,0.0,0.0,0.0,0.0,0.0,0.0,0.0,0.0,0.0,0.0,0.0,0.0,0.0,0.0,0.0,0.0,0.0,0.0,0.0,0.0,0.0,0.0,0.0,0.0,0.0,0.0,0.0,0.0,0.0,0.0,0.0,0.0,0.0,0.0,0.0,0.0,0.0,0.0,0.0,0.0,0.0,0.0,0.0,0.0,0.0,0.0,0.0,0.0,0.0,0.0,0.0,0.0,0.0,0.0,0.0,0.0,0.0,0.0,0.0,0.0,0.0,0.0,0.0,0.0,0.0,0.0,-2.1839,-2.254,-2.215,-2.0693,-1.7521,-1.5427,0.0,0.0,0.0,0.0,0.0,0.0,0.0,0.0,0.0,0.0,0.0,0.0,0.0,0.0,0.0,0.0,0.0,0.0,0.0,0.0,0.0,0.0,0.0,0.0,0.0,0.0,0.0,0.0,0.0,0.0,0.0,0.0,0.0,0.0,0.0,0.0,0.0,0.0,0.0,0.0,0.0,0.0,0.0,0.0,0.0,0.0,0.0,0.0,0.0,0.0,0.0,0.0,0.0,0.0,0.0,0.0,0.0,0.0,0.0,0.0,0.0,0.0,0.0,0.0,0.0,0.0,0.0,0.0,0.0,0.0,0.0,0.0,0.0,0.0,0.0,0.0,0.0,0.0,0.0,0.0,0.0,0.0,0.0,0.0,0.0,0.0,0.0,0.0,0.0,0.0,0.0,0.0,0.0,0.0,0.0,0.0,0.0,0.0,0.0,0.0,0.0,0.0,0.0,0.0,0.0,0.0,0.0,0.0,-2.1064,-2.3003,-2.3889,-2.3708,-2.2456,-1.918,-1.6717,0.0,0.0,0.0,0.0,0.0,0.0,0.0,0.0,0.0,0.0,0.0,0.0,0.0,0.0,0.0,0.0,0.0,0.0,0.0,0.0,0.0,0.0,0.0,0.0,0.0,0.0,0.0,0.0,0.0,0.0,0.0,0.0,0.0,0.0,0.0,0.0,0.0,0.0,0.0,0.0,0.0,0.0,0.0,0.0,0.0,0.0,0.0,0.0,0.0,0.0,0.0,0.0,0.0,0.0,0.0,0.0,0.0,0.0,0.0,0.0,0.0,0.0,0.0,0.0,0.0,0.0,0.0,0.0,0.0,0.0,0.0,0.0,0.0,0.0,0.0,0.0,0.0,0.0,0.0,0.0,0.0,0.0,0.0,0.0,0.0,0.0,0.0,0.0,0.0,0.0,0.0,0.0,0.0,0.0,0.0,0.0,0.0,0.0,0.0,0.0,0.0,0.0,0.0,0.0,0.0,0.0,0.0,0.0,-2.1785,-2.3693,-2.4727,-2.468,-2.3396,-2.1052,-1.8304,0.0,0.0,0.0,0.0,0.0,0.0,0.0,0.0,0.0,0.0,0.0,0.0,0.0,0.0,0.0,0.0,0.0,0.0,0.0,0.0,0.0,0.0,0.0,0.0,0.0,0.0,0.0,0.0,0.0,0.0,0.0,0.0,0.0,0.0,0.0,0.0,0.0,0.0,0.0,0.0,0.0,0.0,0.0,0.0,0.0,0.0,0.0,0.0,0.0,0.0,0.0,0.0,0.0,0.0,0.0,0.0,0.0,0.0,0.0,0.0,0.0,0.0,0.0,0.0,0.0,0.0,0.0,0.0,0.0,0.0,0.0,0.0,0.0,0.0,0.0,0.0,0.0,0.0,0.0,0.0,0.0,0.0,0.0,0.0,0.0,0.0,0.0,0.0,0.0,0.0,0.0,0.0,0.0,0.0,0.0,0.0,0.0,0.0,0.0,0.0,0.0,0.0,0.0,0.0,0.0,0.0,0.0,0.0,-2.3083,-2.4981,-2.4723,-2.416,-2.341,-2.1052,-1.8656,0.0,0.0,0.0,0.0,0.0,0.0,0.0,0.0,0.0,0.0,0.0,0.0,0.0,0.0,0.0,0.0,0.0,0.0,0.0,0.0,0.0,0.0,0.0,0.0,0.0,0.0,0.0,0.0,0.0,0.0,0.0,0.0,0.0,0.0,0.0,0.0,0.0,0.0,0.0,0.0,0.0,0.0,0.0,0.0,0.0,0.0,0.0,0.0,-0.5962,0.0,0.0,0.0,0.0,0.0,0.0,0.0,0.0,0.0,0.0,0.0,0.0,0.0,0.0,0.0,0.0,0.0,0.0,0.0,0.0,0.0,0.0,0.0,0.0,0.0,0.0,0.0,0.0,0.0,0.0,0.0,0.0,0.0,0.0,0.0,0.0,0.0,0.0,0.0,0.0,0.0,0.0,0.0,0.0,0.0,0.0,0.0,0.0,0.0,0.0,0.0,0.0,0.0,0.0,0.0,0.0,0.0,0.0,0.0,-2.3523,-2.4791,-2.4717,-2.4351,-2.3647,-2.1678,-1.9434,0.0,0.0,0.0,0.0,0.0,0.0,0.0,0.0,0.0,0.0,0.0,0.0,0.0,0.0,0.0,0.0,0.0,0.0,0.0,0.0,0.0,0.0,0.0,0.0,0.0,0.0,0.0,0.0,0.0,0.0,0.0,0.0,0.0,0.0,0.0,0.0,0.0,0.0,0.0,0.0,0.0,0.0,0.0,0.0,0.0,0.0,0.0,0.0,0.0,0.0,0.0,0.0,0.0,0.0,0.0,0.0,0.0,0.0,0.0,0.0,0.0,0.0,0.0,0.0,0.0,0.0,0.0,0.0,0.0,0.0,0.0,0.0,0.0,0.0,0.0,0.0,0.0,0.0,0.0,0.0,0.0,0.0,0.0,0.0,0.0,0.0,0.0,0.0,0.0,0.0,0.0,0.0,0.0,0.0,0.0,0.0,0.0,0.0,0.0,0.0,0.0,0.0,0.0,0.0,0.0,0.0,0.0,-2.1903,-2.3616,-2.435,-2.473,-2.4632,-2.3998,-2.2372,-2.0264,-1.7637,0.0,0.0,0.0,0.0,0.0,0.0,0.0,0.0,0.0,0.0,0.0,0.0,0.0,0.0,0.0,0.0,0.0,0.0,0.0,0.0,0.0,0.0,0.0,0.0,0.0,0.0,0.0,0.0,0.0,0.0,0.0,0.0,0.0,0.0,0.0,0.0,0.0,0.0,-0.7143,-0.7973,0.0,0.0,0.0,0.0,0.0,0.0,0.0,0.0,-0.7237,0.0,0.0,0.0,0.0,0.0,0.0,0.0,0.0,0.0,0.0,0.0,0.0,0.0,0.0,0.0,0.0,0.0,0.0,0.0,0.0,0.0,0.0,0.0,0.0,0.0,0.0,0.0,0.0,0.0,0.0,0.0,0.0,0.0,0.0,0.0,0.0,0.0,0.0,0.0,0.0,0.0,0.0,0.0,0.0,0.0,0.0,0.0,0.0,0.0,0.0,0.0,0.0,0.0,0.0,0.0,0.0,-2.2537,-2.2523,-2.3487,-2.5537,-2.4672,-2.4116,-2.3954,-2.2372,-2.0413,-1.8154,0.0,0.0,0.0,0.0,0.0,0.0,0.0,0.0,0.0,0.0,0.0,0.0,0.0,0.0,0.0,0.0,0.0,0.0,0.0,0.0,0.0,0.0,0.0,0.0,0.0,0.0,0.0,0.0,0.0,0.0,0.0,0.0,0.0,0.0,0.0,0.0,0.0,0.0,0.0,-0.9501,-0.9886,0.0,0.0,0.0,0.0,0.0,0.0,0.0,0.0,-0.7724,0.0,0.0,0.0,0.0,0.0,0.0,0.0,0.0,0.0,0.0,0.0,0.0,0.0,0.0,0.0,0.0,0.0,0.0,0.0,0.0,0.0,0.0,0.0,0.0,0.0,0.0,0.0,0.0,0.0,0.0,0.0,0.0,0.0,0.0,0.0,0.0,0.0,0.0,0.0,0.0,0.0,0.0,0.0,0.0,0.0,0.0,0.0,0.0,0.0,0.0,0.0,0.0,0.0,0.0,0.0,-2.1643,-2.3015,-2.4324,-2.5666,-2.514,-2.4695,-2.4381,-2.2234,-2.0189,0.0,0.0,0.0,0.0,0.0,0.0,0.0,0.0,0.0,0.0,0.0,0.0,0.0,0.0,0.0,0.0,0.0,0.0,0.0,0.0,0.0,0.0,0.0,0.0,0.0,0.0,0.0,0.0,0.0,0.0,0.0,0.0,0.0,0.0,0.0,0.0,0.0,0.0,0.0,0.0,-1.0723,-1.0786,-1.0853,0.0,0.0,0.0,0.0,0.0,0.0,-0.9143,-0.8849,0.0,0.0,0.0,0.0,0.0,0.0,0.0,0.0,0.0,0.0,0.0,0.0,0.0,0.0,0.0,0.0,0.0,0.0,0.0,0.0,0.0,0.0,0.0,0.0,0.0,0.0,0.0,0.0,0.0,0.0,0.0,0.0,0.0,0.0,0.0,0.0,0.0,0.0,0.0,0.0,0.0,0.0,0.0,0.0,0.0,0.0,0.0,0.0,0.0,0.0,0.0,0.0,0.0,0.0,0.0,-2.0651,-2.3209,-2.495,-2.572,-2.5661,-2.5347,-2.4795,-2.2334,-2.0112,0.0,0.0,0.0,0.0,0.0,0.0,0.0,0.0,0.0,0.0,0.0,0.0,0.0,0.0,0.0,0.0,0.0,0.0,0.0,0.0,0.0,0.0,0.0,0.0,0.0,0.0,0.0,0.0,0.0,0.0,0.0,0.0,0.0,0.0,0.0,0.0,0.0,0.0,0.0,0.0,0.0,-1.2072,-1.2399,-1.1127,0.0,0.0,0.0,0.0,-1.0408,-1.0495,0.0,0.0,0.0,0.0,0.0,0.0,0.0,0.0,0.0,0.0,0.0,0.0,0.0,0.0,0.0,0.0,0.0,0.0,0.0,0.0,0.0,0.0,0.0,0.0,0.0,0.0,0.0,0.0,0.0,0.0,0.0,0.0,0.0,0.0,0.0,0.0,0.0,0.0,0.0,0.0,0.0,0.0,0.0,0.0,0.0,0.0,0.0,0.0,0.0,0.0,0.0,0.0,0.0,0.0,0.0,0.0,-2.1724,-2.2784,-2.4243,-2.6257,-2.5896,-2.5347,-2.4788,-2.3062,-2.0863,0.0,0.0,0.0,0.0,0.0,0.0,0.0,0.0,0.0,0.0,0.0,0.0,0.0,0.0,0.0,0.0,0.0,0.0,0.0,0.0,0.0,0.0,0.0,0.0,0.0,0.0,0.0,0.0,0.0,0.0,0.0,0.0,0.0,0.0,0.0,0.0,0.0,0.0,0.0,0.0,0.0,-1.4432,-1.2509,-1.2553,-1.2164,0.0,0.0,0.0,-1.2112,-1.2513,0.0,0.0,0.0,0.0,0.0,0.0,0.0,0.0,0.0,0.0,0.0,0.0,0.0,0.0,0.0,0.0,0.0,0.0,0.0,0.0,0.0,0.0,0.0,0.0,0.0,0.0,0.0,0.0,0.0,0.0,0.0,0.0,0.0,0.0,0.0,0.0,0.0,0.0,0.0,0.0,0.0,0.0,0.0,0.0,0.0,0.0,0.0,0.0,0.0,0.0,0.0,0.0,0.0,0.0,0.0,-1.8768,-2.2034,-2.3658,-2.5134,-2.6424,-2.6248,-2.5686,-2.48,-2.2887,-2.0702,0.0,0.0,0.0,0.0,0.0,0.0,0.0,0.0,0.0,0.0,0.0,0.0,0.0,0.0,0.0,0.0,0.0,0.0,0.0,0.0,0.0,0.0,0.0,0.0,0.0,0.0,0.0,0.0,0.0,0.0,0.0,0.0,0.0,0.0,0.0,0.0,0.0,0.0,0.0,0.0,0.0,0.0,-1.4498,-1.3754,0.0,0.0,0.0,-1.2981,-1.3312,0.0,0.0,0.0,0.0,0.0,0.0,0.0,0.0,0.0,0.0,0.0,0.0,0.0,0.0,0.0,0.0,0.0,0.0,0.0,0.0,0.0,0.0,0.0,0.0,0.0,0.0,0.0,0.0,0.0,0.0,0.0,0.0,0.0,0.0,0.0,0.0,0.0,0.0,0.0,0.0,0.0,0.0,0.0,0.0,0.0,0.0,0.0,0.0,0.0,0.0,0.0,0.0,0.0,0.0,0.0,0.0,0.0,-2.2329,-2.451,-2.5908,-2.6461,-2.6487,-2.5937,-2.48,-2.2924,0.0,0.0,0.0,0.0,0.0,0.0,0.0,0.0,0.0,0.0,0.0,0.0,0.0,0.0,0.0,0.0,0.0,0.0,0.0,0.0,0.0,0.0,0.0,0.0,0.0,0.0,0.0,-0.4583,0.0,0.0,0.0,0.0,0.0,0.0,0.0,0.0,0.0,0.0,0.0,0.0,0.0,0.0,-1.5191,-1.6058,-1.4946,-1.4143,0.0,0.0,-1.388,-1.4236,-1.4149,-1.3577,0.0,0.0,0.0,0.0,0.0,0.0,0.0,0.0,0.0,0.0,0.0,0.0,0.0,0.0,0.0,0.0,0.0,0.0,0.0,0.0,0.0,0.0,0.0,0.0,0.0,0.0,0.0,0.0,0.0,0.0,0.0,0.0,0.0,0.0,0.0,0.0,0.0,0.0,0.0,0.0,0.0,0.0,0.0,0.0,0.0,0.0,0.0,0.0,0.0,0.0,0.0,0.0,0.0,0.0,0.0,-2.296,-2.4733,-2.59,-2.6474,-2.6487,-2.5971,-2.4813,-2.3622,-2.1506,0.0,0.0,0.0,0.0,0.0,0.0,0.0,0.0,0.0,0.0,0.0,0.0,0.0,0.0,0.0,0.0,0.0,0.0,0.0,0.0,0.0,0.0,0.0,0.0,0.0,0.0,0.0,0.0,0.0,0.0,0.0,0.0,0.0,0.0,0.0,0.0,0.0,0.0,0.0,0.0,0.0,-1.6844,-1.6191,-1.6205,-1.5957,0.0,0.0,-1.5146,-1.4884,-1.5676,-1.5397,-1.281,0.0,0.0,0.0,0.0,0.0,0.0,0.0,0.0,0.0,0.0,0.0,0.0,0.0,0.0,0.0,0.0,0.0,0.0,0.0,0.0,0.0,0.0,0.0,0.0,0.0,0.0,0.0,0.0,0.0,0.0,0.0,0.0,0.0,0.0,0.0,0.0,0.0,0.0,0.0,0.0,0.0,0.0,0.0,0.0,0.0,0.0,0.0,0.0,0.0,0.0,0.0,0.0,0.0,-2.0554,-2.3568,-2.5589,-2.6753,-2.6989,-2.7002,-2.644,-2.5322,-2.4243,-2.2259,0.0,0.0,0.0,0.0,0.0,0.0,0.0,0.0,0.0,0.0,0.0,0.0,0.0,0.0,0.0,0.0,0.0,0.0,0.0,0.0,0.0,0.0,0.0,0.0,0.0,0.0,0.0,0.0,-0.6538,-0.6627,-0.6944,0.0,0.0,0.0,0.0,0.0,0.0,0.0,0.0,0.0,0.0,-1.7167,-1.8221,-1.7926,0.0,0.0,-1.7011,-1.7023,-1.6933,-1.6626,-1.5798,-1.415,-1.3171,0.0,0.0,0.0,0.0,0.0,0.0,0.0,0.0,0.0,0.0,0.0,0.0,0.0,0.0,0.0,0.0,0.0,0.0,0.0,0.0,0.0,0.0,0.0,0.0,0.0,0.0,0.0,0.0,0.0,0.0,0.0,0.0,0.0,0.0,0.0,0.0,0.0,0.0,0.0,0.0,0.0,0.0,0.0,0.0,0.0,0.0,0.0,0.0,0.0,0.0,0.0,0.0,-2.1039,-2.4162,-2.6264,-2.7329,-2.7329,-2.7329,-2.6753,-2.5624,-2.4556,-2.2761,0.0,0.0,0.0,0.0,0.0,0.0,0.0,0.0,0.0,0.0,0.0,0.0,0.0,0.0,0.0,0.0,0.0,0.0,0.0,0.0,0.0,0.0,0.0,0.0,0.0,0.0,0.0,0.0,-0.7666,-0.7677,-0.7877,0.0,0.0,0.0,0.0,0.0,0.0,0.0,0.0,0.0,0.0,-1.7425,-1.9216,-1.9006,-1.8606,-1.8392,-1.8135,-1.7956,-1.7974,-1.7221,-1.6216,-1.5008,0.0,0.0,0.0,0.0,0.0,0.0,0.0,0.0,0.0,0.0,0.0,0.0,0.0,0.0,0.0,0.0,0.0,0.0,0.0,0.0,0.0,0.0,0.0,0.0,0.0,0.0,0.0,0.0,0.0,0.0,-1.4865,0.0,0.0,0.0,0.0,0.0,0.0,0.0,0.0,0.0,0.0,0.0,0.0,0.0,0.0,0.0,0.0,0.0,0.0,0.0,0.0,0.0,0.0,0.0,-2.4855,-2.647,-2.7341,-2.7306,-2.7329,-2.6801,-2.5661,-2.4569,-2.2979,-2.0704,0.0,0.0,0.0,0.0,0.0,0.0,0.0,0.0,0.0,0.0,0.0,0.0,0.0,0.0,0.0,0.0,0.0,0.0,0.0,0.0,0.0,0.0,0.0,0.0,0.0,0.0,-0.8354,-0.8056,-0.7935,0.0,0.0,0.0,0.0,0.0,0.0,0.0,0.0,0.0,0.0,-1.6681,-1.7712,-1.8629,-1.9334,-1.9484,-1.8807,-1.8113,-1.7597,-1.7506,-1.7428,-1.6804,0.0,0.0,0.0,0.0,0.0,0.0,0.0,0.0,0.0,0.0,0.0,0.0,0.0,0.0,0.0,0.0,0.0,0.0,0.0,0.0,0.0,0.0,0.0,0.0,0.0,0.0,0.0,-2.1153,-1.9824,0.0,0.0,0.0,0.0,0.0,0.0,0.0,0.0,0.0,0.0,0.0,-2.4827,-2.5376,0.0,0.0,0.0,0.0,0.0,0.0,0.0,0.0,0.0,0.0,0.0,0.0,-2.1978,-2.532,-2.7023,-2.8009,-2.8348,-2.8021,-2.7469,-2.6741,-2.5649,-2.3502,-2.02,0.0,0.0,0.0,0.0,0.0,0.0,0.0,0.0,0.0,0.0,0.0,0.0,0.0,0.0,0.0,0.0,0.0,0.0,0.0,0.0,0.0,0.0,0.0,0.0,0.0,-0.9566,0.0,0.0,0.0,0.0,0.0,0.0,0.0,0.0,0.0,0.0,0.0,-1.5492,-1.7149,-1.798,-1.8706,-1.9346,-1.9648,-1.971,0.0,0.0,0.0,0.0,0.0,0.0,0.0,0.0,0.0,0.0,0.0,0.0,0.0,0.0,-1.5053,-1.2128,-1.1301,-1.1073,-1.1261,0.0,0.0,0.0,0.0,0.0,0.0,0.0,0.0,0.0,0.0,0.0,0.0,0.0,0.0,0.0,0.0,-2.2226,0.0,0.0,0.0,0.0,0.0,0.0,0.0,0.0,-2.67,-2.7468,-2.7756,-2.8391,-2.7833,0.0,-2.5665,-2.3421,0.0,0.0,0.0,0.0,0.0,0.0,0.0,0.0,-2.2933,-2.6179,-2.7668,-2.8537,-2.885,-2.8386,-2.7846,-2.7281,-2.5837,-2.3678,-2.0765,-1.8337,-1.6174,0.0,0.0,0.0,0.0,0.0,0.0,0.0,0.0,0.0,0.0,0.0,0.0,0.0,0.0,0.0,0.0,0.0,0.0,0.0,0.0,0.0,0.0,0.0,-1.0257,0.0,0.0,0.0,0.0,0.0,0.0,0.0,0.0,0.0,-1.4349,-1.5487,-1.6898,-1.8543,-1.8882,-1.9259,-2.0012,0.0,0.0,0.0,0.0,0.0,0.0,0.0,-1.8843,-1.8513,-1.7958,-1.7366,-1.6892,-1.576,-1.5347,-1.6609,0.0,0.0,-1.4494,-1.3752,-1.3651,-1.3612,-1.3777,-1.389,-1.3833,-1.4105,-1.403,0.0,0.0,0.0,0.0,0.0,0.0,0.0,0.0,-2.849,-2.8087,0.0,-2.6213,0.0,0.0,0.0,0.0,0.0,-2.5764,0.0,0.0,-2.958,-3.0382,-2.9905,-2.993,-2.9616,-2.9038,-2.9528,-2.8348,-2.5536,-2.139,0.0,0.0,0.0,0.0,0.0,0.0,-2.4053,-2.728,-2.8373,-2.89,-2.8913,-2.8398,-2.7833,-2.7253,-2.5197,-2.354,-2.233,-2.0262,-1.8175,-1.6166,-1.4113,0.0,0.0,0.0,0.0,0.0,0.0,0.0,0.0,0.0,0.0,0.0,0.0,0.0,0.0,0.0,0.0,0.0,0.0,0.0,0.0,-1.0432,0.0,0.0,0.0,0.0,0.0,0.0,0.0,0.0,0.0,0.0,-1.5173,-1.6493,-1.8064,-1.961,0.0,0.0,0.0,0.0,-2.0062,-2.0641,-2.0239,-2.0075,-2.0643,-2.0693,-2.0315,-1.9271,0.0,0.0,-1.7825,-1.7915,-1.8041,-1.7624,-1.8769,-1.9472,-1.8367,-1.7678,-1.74,-1.7333,-1.6993,-1.6777,-1.6629,-1.6536,-1.6246,-3.4265,0.0,0.0,0.0,0.0,-3.2347,-3.2935,-3.4425,-3.2905,-3.1731,-3.0733,-2.9251,0.0,0.0,0.0,0.0,0.0,0.0,-2.9418,-3.0967,-3.1508,-3.1888,-3.2152,-3.2528,-3.2215,-3.1286,-3.1035,-3.0118,-2.8549,-2.6502,-2.3339,-1.9208,0.0,0.0,0.0,0.0,-2.5179,-2.7317,-2.8386,-2.9088,-2.9541,-2.8599,-2.7657,-2.6751,-2.5686,-2.4632,-2.354,-2.2105,-2.0373,-1.8224,-1.62,0.0,0.0,0.0,0.0,0.0,0.0,0.0,0.0,0.0,0.0,0.0,0.0,0.0,0.0,0.0,0.0,0.0,0.0,0.0,-1.1025,-1.16,-1.2137,0.0,0.0,0.0,0.0,0.0,0.0,0.0,0.0,0.0,-1.7792,-1.8568,-1.9434,0.0,0.0,-2.0752,-2.0704,-2.088,-2.1094,-2.1257,0.0,0.0,0.0,-2.0943,-2.0717,-2.0765,-2.0903,-2.084,-2.0388,-1.9786,-1.9434,-1.9673,-1.9748,-1.9685,-1.9397,-1.8962,-1.8671,-1.8625,-1.8876,-1.9119,-1.9057,-1.8706,-1.8206,-3.8956,-3.6404,-3.4725,-3.4908,-3.6136,-3.5502,-3.593,-3.7037,-3.597,-3.5027,-3.4123,-3.293,-3.1326,-2.9365,-2.8142,0.0,0.0,0.0,-3.1548,-3.3062,-3.3144,-3.3382,-3.3734,-3.3847,-3.3545,-3.2855,-3.2077,-3.1386,-3.0721,-2.9641,-2.7193,-2.3484,0.0,0.0,-2.3119,-2.4893,-2.6531,-2.7972,-2.881,-2.944,-2.9767,-2.8687,-2.7682,-2.6851,-2.6025,-2.5197,-2.4356,-2.3208,-2.1804,-2.0048,-1.8201,-1.6293,0.0,0.0,0.0,0.0,0.0,0.0,0.0,0.0,0.0,0.0,0.0,-0.9139,0.0,0.0,0.0,0.0,-1.0583,-1.1917,-1.2822,-1.3383,0.0,0.0,0.0,0.0,0.0,0.0,0.0,-1.7328,-1.8493,-1.9397,-1.991,-2.0476,-2.0928,-2.1295,-2.1418,-2.1418,-2.1242,0.0,-2.1543,-2.1681,-2.1769,-2.1895,-2.2096,-2.187,-2.1694,-2.1794,-2.1619,-2.143,-2.128,-2.0903,-2.0828,-2.1066,-2.0928,-2.0537,-2.0213,-2.0299,-2.0295,-1.9897,-2.0283,-2.0714,-2.0737,-2.0416,-1.9944,-4.2446,-4.1213,-3.8216,-3.7161,-3.755,-3.8052,-3.7977,-3.755,-3.7952,-3.7864,-3.7349,-3.6744,-3.56,-3.3972,-3.1926,0.0,-3.1825,-3.2817,-3.3602,-3.411,-3.4625,-3.4826,-3.4718,-3.4274,-3.3985,-3.3859,-3.2842,-3.2328,-3.2215,-3.1195,-3.0218,-2.9113,-2.7092,-2.6214,-2.6575,-2.7105,-2.7921,-2.8875,-2.949,-2.9767,-2.9704,-2.8662,-2.7846,-2.7281,-2.6189,-2.536,-2.482,-2.3747,-2.2644,-2.1546,-1.9987,-1.8224,-1.6247,0.0,0.0,0.0,0.0,0.0,0.0,0.0,0.0,0.0,0.0,0.0,0.0,0.0,0.0,0.0,-1.3254,0.0,-1.4972,-1.5525,0.0,0.0,0.0,-1.5676,-1.6763,-1.735,-1.8041,-1.9083,0.0,0.0,-2.1493,0.0,-2.2447,-2.2447,-2.197,-2.1719,-2.1979,-2.1807,-2.1744,-2.2067,-2.2243,-2.2531,-2.2907,-2.2982,-2.2819,-2.2406,-2.1958,-2.1581,-2.1302,-2.1641,-2.2054,-2.1992,-2.2004,-2.1729,-2.0918,-2.1589,-2.2167,-2.1015,-2.1414,-2.1857,-2.1862,-2.1778,-2.1363,-4.3451,-4.3112,-4.1919,-4.1003,-4.0362,-4.0435,-4.0423,-4.0287,-3.9597,-3.922,-3.9019,-3.76,-3.6581,-3.573,-3.4801,-3.4663,-3.5223,-3.5039,-3.5253,-3.5814,-3.5952,-3.5755,-3.5307,-3.5169,-3.4713,-3.3922,-3.3633,-3.3282,-3.2855,-3.2164,-3.17,-3.1386,-3.047,-2.9076,-2.7228,-2.8047,-2.8624,-2.8888,-2.9503,-2.9591,-2.9139,-2.8461,-2.7846,-2.7293,-2.6176,-2.536,-2.48,-2.4123,-2.3075,-2.1568,-2.0742,-1.9497,-1.7725,-1.5196,0.0,0.0,0.0,0.0,0.0,0.0,0.0,0.0,0.0,-1.2256,-0.9906,0.0,-1.333,0.0,-1.4337,-1.555,-1.607,-1.6656,0.0,0.0,-1.8092,-1.8619,-2.0125,-2.0088,-2.0163,-2.0828,-2.1506,-2.197,-2.2108,-2.2975,-2.3602,-2.359,-2.31,-2.2543,-2.2117,-2.2431,-2.2732,-2.2819,-2.2857,-2.2957,-2.307,-2.3095,-2.3045,-2.2932,-2.2782,-2.2681,-2.2594,-2.2719,-2.2719,-2.2318,-2.2105,-2.1816,-2.1393,-2.157,-2.1703,-2.1535,-2.2342,-2.315,-2.315,-2.2793,-2.2323,-4.4267,-4.3777,-4.3476,-4.2848,-4.207,-4.207,-4.1919,-4.1656,-4.1053,-4.0513,-3.9973,-3.8555,-3.7813,-3.7486,-3.6885,-3.6671,-3.6757,-3.6408,-3.6307,-3.6417,-3.6417,-3.6194,-3.5893,-3.5608,-3.5044,-3.4274,-3.4022,-3.3621,-3.3093,-3.2754,-3.2604,-3.2579,-3.2039,-3.0984,-2.9553,-2.9616,-2.9527,-2.9315,-2.9628,-2.9641,-2.9302,-2.8524,-2.7846,-2.7281,-2.6189,-2.5247,-2.4481,-2.3916,-2.3075,-2.1907,-2.1131,-2.0163,-1.8957,-1.6859,-1.5377,0.0,0.0,0.0,0.0,0.0,0.0,0.0,0.0,0.0,0.0,0.0,-1.4884,0.0,-1.6358,-1.7501,-1.8292,-1.8869,-1.9459,-2.0062,-2.0125,-2.0677,-2.2058,-2.1958,-2.2071,-2.2874,-2.3238,-2.3396,-2.3439,-2.3979,-2.4336,-2.4356,-2.4048,-2.3521,-2.2757,-2.3083,-2.3409,-2.3158,-2.3095,-2.3095,-2.3095,-2.3095,-2.3095,-2.3095,-2.3095,-2.3095,-2.3095,-2.3095,-2.2995,-2.2719,-2.2569,-2.2343,-2.1958,-2.2127,-2.2325,-2.2587,-2.3279,-2.3712,-2.3304,-2.3143,-2.3068,-4.4907,-4.4003,-4.3853,-4.3526,-4.3074,-4.3024,-4.2753,-4.2313,-4.2238,-4.153,-4.0463,-3.9509,-3.9095,-3.8982,-3.8366,-3.7864,-3.7448,-3.7249,-3.6983,-3.6518,-3.6443,-3.6417,-3.638,-3.5881,-3.532,-3.4768,-3.4274,-3.3721,-3.3194,-3.3106,-3.3124,-3.3099,-3.2566,-3.229,-3.2164,-3.1286,-3.0482,-2.9804,-2.9779,-2.9779,-2.9767,-2.8687,-2.7871,-2.7369,-2.6163,-2.5021,-2.4042,-2.3409,-2.2819,-2.2221,-2.1355,-2.0616,-1.9924,-1.843,-1.7313,0.0,-1.5655,0.0,0.0,0.0,0.0,0.0,0.0,0.0,0.0,-1.6191,-1.671,-1.7649,-1.8756,-1.981,-2.0805,-2.1458,-2.1807,-2.1807,-2.1882,-2.2297,-2.3183,-2.3321,-2.3697,-2.4675,-2.48,-2.4788,-2.4725,-2.4838,-2.4921,-2.4933,-2.4996,-2.472,-2.381,-2.3904,-2.3923,-2.3421,-2.3296,-2.3258,-2.3133,-2.3095,-2.3095,-2.3095,-2.3095,-2.3095,-2.3095,-2.3095,-2.3095,-2.3083,-2.3058,-2.292,-2.2498,-2.2872,-2.3231,-2.3258,-2.3772,-2.3957,-2.3351,-2.3437,-2.3678,-4.5372,-4.5083,-4.4179,-4.374,-4.3601,-4.3162,-4.2924,-4.2854,-4.2401,-4.1543,-4.0513,-4.03,-3.9961,-3.9509,-3.8956,-3.8655,-3.8542,-3.76,-3.7123,-3.7059,-3.6619,-3.6417,-3.6405,-3.6304,-3.5918,-3.5332,-3.4781,-3.4286,-3.3734,-3.3282,-3.3124,-3.3068,-3.2968,-3.2692,-3.2227,0.0,0.0,0.0,-2.9779,-2.9779,-2.9741,-2.8687,-2.8059,-2.7908,-2.6,0.0,-2.4029,-2.3409,-2.2644,-2.1719,-2.187,0.0,0.0,0.0,0.0,0.0,0.0,0.0,0.0,0.0,0.0,0.0,-1.8331,-1.7666,-1.7197,-1.8705,-1.9648,-1.9422,-2.0765,-2.1769,-2.1995,-2.2924,-2.3527,-2.354,-2.3916,-2.428,-2.4449,-2.4462,-2.4562,-2.475,-2.48,-2.4833,-2.4863,-2.5184,-2.5448,-2.5473,-2.585,-2.6084,-2.5845,-2.5109,-2.4757,-2.4877,-2.4268,-2.3678,-2.3183,-2.3145,-2.3208,-2.3095,-2.3095,-2.3133,-2.3145,-2.3108,-2.3095,-2.3095,-2.3095,-2.3083,-2.2945,-2.3064,-2.3039,-2.2636,-2.3113,-2.367,-2.4136,-2.432,-2.4246,-4.5736,0.0,-4.4882,-4.4305,0.0,-4.3501,-4.3225,-4.3017,-4.274,-4.2095,-4.1291,-4.0752,-4.035,-4.0074,-3.9521,-3.9132,-3.8894,-3.8278,-3.7713,-3.7174,-3.6945,-3.6669,-3.6417,-3.6417,-3.6081,-3.5483,-3.4944,-3.4437,-3.3884,-3.3345,-3.3124,-3.3124,-3.3124,-3.293,-3.2641,-3.2353,-3.1549,-3.0206,-2.993,-2.9779,-2.9754,-2.8963,-2.8247,-2.7695,0.0,0.0,0.0,0.0,0.0,0.0,0.0,0.0,0.0,0.0,0.0,-1.9849,-1.9798,-1.976,-1.9773,-2.0036,-2.055,-2.138,-2.1453,-2.0891,-1.9547,-2.0928,-2.1895,-2.1895,-2.2661,-2.3263,-2.3509,-2.4067,-2.4393,-2.4418,-2.4657,-2.4876,-2.5159,-2.5209,-2.5322,-2.5586,-2.5657,-2.5624,-2.5624,-2.5871,-2.6013,-2.6059,-2.6298,-2.6487,-2.6411,-2.5749,-2.5222,-2.5121,-2.4757,-2.433,-2.401,-2.3935,-2.3923,-2.3935,-2.3935,-2.386,-2.3715,-2.3346,-2.3095,-2.3095,-2.3095,-2.3095,-2.3095,-2.3095,-2.3127,-2.3286,-2.3558,-2.3902,-2.4429,-2.4544,-2.4467,-4.605,-4.5623,-4.5535,-4.4895,-4.394,-4.384,-4.3489,-4.2986,0.0,0.0,0.0,-4.1103,-4.0601,-4.0488,-3.9936,-3.9446,-3.907,-3.8919,-3.8316,-3.7337,-3.7236,-3.6885,-3.6417,-3.6417,-3.6119,-3.5633,-3.5082,-3.4542,-3.4035,-3.3495,-3.3212,-3.3124,-3.3124,-3.3124,-3.3043,-3.2503,-3.1738,-3.0783,-3.0218,-2.9892,-2.9792,-2.9227,-2.8499,-2.7595,-2.6889,-2.5808,-2.4343,-2.371,-2.3145,-2.2636,-2.2272,-2.2033,-2.1986,-2.2359,-2.256,-2.2468,-2.2945,-2.3246,-2.3258,-2.3358,-2.3396,-2.3409,-2.3966,-2.3665,-2.2171,-2.2899,-2.3597,-2.4104,-2.423,-2.4469,-2.4908,-2.5026,-2.5109,-2.5109,-2.5109,-2.5297,-2.5686,-2.5749,-2.5937,-2.6386,-2.6436,-2.6487,-2.6449,-2.6449,-2.6487,-2.6487,-2.6474,-2.6487,-2.6436,-2.6097,-2.5573,-2.5134,-2.4996,-2.4921,-2.4788,-2.4725,-2.48,-2.47,-2.4738,-2.4732,-2.4431,-2.3728,-2.3246,-2.3484,-2.3283,-2.312,-2.3095,-2.3095,-2.3335,-2.3972,-2.4076,-2.4147,-2.4354,-2.4422,-2.4472,-4.625,-4.6163,-4.5686,-4.5108,-4.4468,-4.4003,-4.3476,-4.2986,-4.2986,-4.2715,-4.2175,-4.1505,-4.0912,-4.0488,-3.9936,-3.9659,-3.9546,-3.9133,-3.8517,0.0,-3.74,-3.6945,-3.643,-3.6417,-3.6367,-3.6254,-3.568,-3.5094,-3.46,-3.4048,-3.3558,-3.3187,-3.3124,-3.3124,-3.3074,-3.2503,-3.1901,-3.1286,-3.0758,-3.0256,-2.9804,-2.9227,-2.8825,-2.8612,-2.7256,-2.616,-2.5398,-2.487,-2.4299,-2.3816,-2.4142,-2.413,-2.369,-2.3715,-2.3509,-2.307,-2.3552,-2.3879,-2.3891,-2.4274,-2.455,-2.4587,-2.5071,-2.5071,-2.4399,-2.4462,-2.4587,-2.472,-2.5064,-2.5398,-2.5511,-2.59,-2.6185,-2.6223,-2.6248,-2.6298,-2.6336,-2.6336,-2.6373,-2.6474,-2.6487,-2.6487,-2.6487,-2.6487,-2.6487,-2.6487,-2.6487,-2.6487,-2.6474,-2.6424,-2.6135,-2.5636,-2.5485,-2.5297,-2.5059,-2.4845,-2.4921,-2.48,-2.4863,-2.5021,-2.5217,-2.4243,-2.371,-2.4399,-2.3898,-2.3321,-2.3183,-2.3095,-2.3223,-2.3403,-2.3365,-2.3539,-2.4081,-2.4288,-2.4395,-4.6313,-4.6288,-4.6037,-4.5422,-4.4556,-4.3727,-4.3212,-4.2986,-4.2986,-4.2904,-4.2522,-4.1718,-4.115,-4.0849,-4.0074,-3.9697,-3.9685,-3.9433,-3.9007,-3.8454,-3.7889,-3.7337,-3.681,-3.6556,-3.6417,-3.638,-3.5805,-3.537,-3.5069,-3.4311,-3.3759,-3.352,-3.3232,-3.3124,-3.3099,-3.2817,-3.2403,-3.1838,-3.1035,-3.0344,-2.9804,-2.9541,-2.9252,-2.89,-2.816,-2.7381,-2.654,-2.5988,-2.5448,-2.4895,-2.48,-2.4662,-2.4469,-2.4707,-2.4745,-2.4506,-2.5008,-2.5368,-2.5368,-2.5561,-2.5711,-2.5724,-2.5959,-2.6009,-2.5737,-2.5711,-2.5745,-2.5757,-2.5937,-2.6063,-2.6097,-2.6348,-2.6487,-2.6487,-2.6487,-2.6487,-2.6487,-2.6487,-2.6487,-2.6487,-2.6487,-2.6487,-2.6487,-2.6487,-2.6487,-2.6487,-2.6487,-2.6487,-2.6487,-2.6487,-2.6411,-2.616,-2.6097,-2.6009,-2.5737,-2.5711,-2.5711,-2.5745,-2.5711,-2.5808,-2.5959,-2.5292,-2.5222,-2.5561,-2.5222,-2.4632,-2.3948,-2.3622,-2.3459,-2.3133,-2.3095,-2.3305,-2.359,-2.4047,-2.4846,-4.6313,-4.6313,-4.6313,-4.566,-4.4543,-4.3451,-4.2986,-4.2986,-4.2986,-4.2986,-4.2823,-4.1819,-4.1275,-4.1175,-4.0187,-3.9697,-3.9697,-3.9697,-3.9383,-3.8856,-3.8266,-3.7713,-3.7174,-3.6669,-3.6417,-3.6367,-3.5918,-3.5621,-3.5395,-3.4562,-3.3947,-3.3709,-3.3325,-3.3124,-3.3124,-3.3124,-3.2792,-3.2202,-3.1399,-3.0645,-3.0005,-2.9867,-2.9578,-2.9164,-2.895,-2.8487,-2.7682,-2.7118,-2.6663,-2.6189,-2.5774,-2.5477,-2.541,-2.5762,-2.5925,-2.5862,-2.6248,-2.6487,-2.6487,-2.6487,-2.6487,-2.6487,-2.6487,-2.6487,-2.6499,-2.6612,-2.6625,-2.6524,-2.6449,-2.6474,-2.6461,-2.6487,-2.6487,-2.6487,-2.6487,-2.6487,-2.6487,-2.6487,-2.6487,-2.6487,-2.6487,-2.6487,-2.6487,-2.6487,-2.6487,-2.6487,-2.6487,-2.6487,-2.6487,-2.6487,-2.6487,-2.6487,-2.6487,-2.6449,-2.6487,-2.6449,-2.6424,-2.6487,-2.6449,-2.6399,-2.6411,-2.6449,-2.6461,-2.6399,-2.6424,-2.5946,-2.4946,-2.4393,-2.4004,-2.354,-2.3371,-2.3326,-2.321,-2.3946,-2.512,-4.6313,-4.6313,-4.6313,-4.5648,-4.4531,-4.3451,-4.2999,-4.2986,-4.2986,-4.2986,-4.2873,-4.1764,-4.1288,-4.1137,-4.0199,-3.9722,-3.9697,-3.9697,-3.9408,-3.8919,-3.8278,-3.7726,-3.7199,-3.6681,-3.6417,-3.6405,-3.6342,-3.6006,-3.552,-3.4893,-3.4135,-3.3269,-3.3136,-3.3124,-3.3124,-3.3124,-3.2792,-3.2227,-3.2114,-3.1574,-3.0583,-3.0043,-2.9767,-2.9716,-2.9164,-2.885,-2.8737,-2.8247,-2.7921,-2.7883,-2.777,-2.7544,-2.7105,-2.7092,-2.6939,-2.6474,-2.6487,-2.6487,-2.6499,-2.6487,-2.6537,-2.6487,-2.6549,-2.6549,-2.6562,-2.6977,-2.7027,-2.6675,-2.6524,-2.6575,-2.6499,-2.6549,-2.6612,-2.6637,-2.6612,-2.6487,-2.6524,-2.6487,-2.6487,-2.6487,-2.6549,-2.6499,-2.66,-2.6637,-2.6575,-2.6575,-2.6663,-2.6688,-2.6675,-2.6675,-2.6612,-2.6549,-2.6512,-2.6512,-2.6499,-2.6487,-2.6487,-2.6487,-2.6487,-2.6487,-2.6487,-2.6487,-2.6487,-2.6487,-2.6487,-2.6336,-2.5996,-2.5485,-2.4569,-2.4079,-2.3879,-2.3747,-2.3392,-2.3842,-2.4993,-4.6313,-4.6313,-4.6313,-4.566,-4.4581,-4.379,-4.3275,-4.2986,-4.2986,-4.2986,-4.2886,-4.2158,-4.1643,-4.1291,-4.0526,-4.0011,-3.9697,-3.9697,-3.9584,-3.9308,-3.8781,-3.8216,-3.7651,-3.7111,-3.6684,-3.643,-3.6417,-3.6304,-3.5918,-3.5152,-3.4161,-3.3237,-3.3124,-3.3124,-3.3124,-3.3124,-3.2943,-3.2729,-3.2378,-3.2001,-3.1524,-3.0721,-3.0131,-2.9817,-2.9566,-2.944,-2.939,-2.89,-2.8599,-2.8524,-2.8298,-2.8009,-2.7783,-2.777,-2.767,-2.7444,-2.7431,-2.7431,-2.7431,-2.7431,-2.7467,-2.7431,-2.7467,-2.7444,-2.7431,-2.7645,-2.767,-2.7494,-2.748,-2.7444,-2.7419,-2.7419,-2.7431,-2.7431,-2.7431,-2.7306,-2.7014,-2.7266,-2.7366,-2.7065,-2.6977,-2.7115,-2.7344,-2.7431,-2.7281,-2.7128,-2.7216,-2.7404,-2.7406,-2.7431,-2.7281,-2.7052,-2.6977,-2.6826,-2.6587,-2.6487,-2.6487,-2.6487,-2.6487,-2.6487,-2.6487,-2.6487,-2.6487,-2.6487,-2.6487,-2.6336,-2.5912,-2.5686,-2.5109,-2.4669,-2.4481,-2.4362,-2.4136,-2.387,-2.4386,-4.6313,-4.6288,-4.615,-4.5522,-4.4581,-4.4028,-4.3489,-4.3011,-4.2986,-4.2986,-4.2936,-4.2602,-4.207,-4.1517,-4.084,-4.0212,-3.9747,-3.9697,-3.9697,-3.9634,-3.912,-3.8693,-3.8203,-3.75,-3.6973,-3.6669,-3.648,-3.6329,-3.6056,-3.5203,-3.4236,-3.3407,-3.3199,-3.3124,-3.3124,-3.3124,-3.3124,-3.3074,-3.2641,-3.2378,-3.2139,-3.1449,-3.0721,-3.008,-2.9867,-2.9779,-2.9779,-2.939,-2.9164,-2.9126,-2.8775,-2.8486,-2.8335,-2.8335,-2.8273,-2.8134,-2.8109,-2.8109,-2.8109,-2.8109,-2.8109,-2.8109,-2.8109,-2.8109,-2.8134,-2.8247,-2.8323,-2.8335,-2.8473,-2.8486,-2.8134,-2.8109,-2.8109,-2.8109,-2.8109,-2.7921,-2.7607,-2.7896,-2.7921,-2.757,-2.7507,-2.7645,-2.7996,-2.8059,-2.7883,-2.762,-2.7833,-2.8109,-2.8109,-2.8047,-2.7921,-2.757,-2.7519,-2.7241,-2.6663,-2.6487,-2.6487,-2.6487,-2.6487,-2.6487,-2.6487,-2.6487,-2.6487,-2.6487,-2.6487,-2.6436,-2.621,-2.5921,-2.5649,-2.5209,-2.4958,-2.4838,-2.465,-2.4104,-2.4264,-4.6313,-4.6238,-4.5748,-4.5221,-4.4581,-4.4053,-4.3489,-4.2986,-4.2986,-4.2986,-4.2986,-4.2936,-4.2678,-4.202,-4.1015,-4.0237,-3.976,-3.971,-3.9697,-3.9647,-3.9208,-3.8919,-3.8806,-3.7726,-3.7174,-3.7036,-3.6619,-3.6119,-3.5571,-3.4969,-3.4424,-3.3859,-3.3332,-3.3124,-3.3124,-3.3124,-3.3124,-3.3111,-3.3048,-3.2767,-3.229,-3.2152,-3.1587,-3.0696,-3.008,-2.9817,-2.9779,-2.9767,-2.9729,-2.9741,-2.9666,-2.944,-2.8925,-2.8863,-2.8687,-2.8235,-2.8147,-2.816,-2.8185,-2.821,-2.8197,-2.8172,-2.8247,-2.816,-2.8298,-2.8649,-2.885,-2.8863,-2.9315,-2.9214,-2.8398,-2.8323,-2.826,-2.8235,-2.8172,-2.816,-2.8084,-2.8185,-2.8122,-2.8084,-2.8122,-2.8122,-2.8134,-2.8109,-2.8185,-2.8109,-2.8122,-2.8222,-2.8285,-2.8222,-2.8185,-2.8122,-2.7996,-2.7708,-2.6776,-2.6625,-2.6587,-2.6562,-2.6612,-2.6499,-2.6487,-2.6487,-2.6487,-2.6487,-2.6487,-2.6474,-2.6449,-2.6323,-2.6109,-2.5711,-2.5285,-2.5121,-2.5247,-2.5267,-2.5266,-4.6313,-4.6301,-4.61,-4.5485,-4.4631,-4.4405,-4.3815,-4.3011,-4.2986,-4.2986,-4.2986,-4.2986,-4.2728,-4.2175,-4.1379,-4.0727,-4.0212,-3.986,-3.9697,-3.9672,-3.9484,-3.9207,-3.8856,-3.8052,-3.75,-3.7136,-3.6681,-3.6081,-3.5495,-3.4944,-3.4449,-3.3897,-3.3345,-3.3124,-3.3124,-3.3124,-3.3124,-3.3124,-3.3124,-3.2968,-3.2742,-3.2403,-3.2001,-3.1625,-3.0771,-3.0156,-2.9792,-2.9779,-2.9779,-2.9779,-2.9779,-2.9704,-2.9503,-2.9478,-2.9402,-2.9214,-2.9176,-2.9189,-2.9189,-2.9176,-2.9176,-2.9176,-2.9189,-2.9151,-2.9214,-2.9365,-2.9478,-2.9528,-2.9628,-2.9528,-2.934,-2.9189,-2.9176,-2.9189,-2.9164,-2.8988,-2.88,-2.8938,-2.9063,-2.88,-2.89,-2.8938,-2.8461,-2.8725,-2.9026,-2.875,-2.8938,-2.9114,-2.9164,-2.9176,-2.9026,-2.87,-2.8574,-2.8373,-2.767,-2.718,-2.7002,-2.6901,-2.6826,-2.6612,-2.6537,-2.6499,-2.6499,-2.6487,-2.6487,-2.6487,-2.6461,-2.6449,-2.6285,-2.6223,-2.5762,-2.5661,-2.5875,-2.5757,-2.5695,-4.6313,-4.6313,-4.6313,-4.5673,-4.4669,-4.4618,-4.4003,-4.3037,-4.2986,-4.2986,-4.2986,-4.2986,-4.2828,-4.2371,-4.1844,-4.1304,-4.0727,-4.0049,-3.9697,-3.9697,-3.9697,-3.9496,-3.9069,-3.8354,-3.7826,-3.7387,-3.6744,-3.6157,-3.578,-3.5207,-3.4655,-3.4173,-3.3608,-3.3287,-3.3162,-3.3124,-3.3124,-3.3124,-3.3124,-3.3124,-3.3061,-3.2692,-3.2378,-3.2139,-3.1499,-3.0783,-3.0093,-2.9892,-2.9779,-2.9779,-2.9779,-2.9779,-2.9779,-2.9779,-2.9779,-2.9779,-2.9779,-2.9779,-2.9779,-2.9779,-2.9779,-2.9779,-2.9779,-2.9779,-2.9779,-2.9779,-2.9779,-2.9779,-2.9779,-2.9779,-2.9779,-2.9767,-2.9779,-2.9779,-2.9779,-2.9641,-2.9289,-2.9541,-2.9553,-2.9352,-2.949,-2.9352,-2.8913,-2.9365,-2.9503,-2.9201,-2.9566,-2.9767,-2.9779,-2.9767,-2.9691,-2.9315,-2.9214,-2.9076,-2.8649,-2.8235,-2.7733,-2.7557,-2.7344,-2.7017,-2.6713,-2.665,-2.6549,-2.6524,-2.6499,-2.6499,-2.6487,-2.6499,-2.6499,-2.6499,-2.6361,-2.6185,-2.621,-2.6147,-2.6072,-4.6313,-4.6313,-4.6313,-4.566,-4.4694,-4.4618,-4.3991,-4.3087,-4.2986,-4.2986,-4.2986,-4.2986,-4.2949,-4.2823,-4.2363,-4.1819,-4.1153,-4.0237,-3.9747,-3.9697,-3.9697,-3.9685,-3.9559,-3.8504,-3.7889,-3.7701,-3.6847,-3.6417,-3.6304,-3.573,-3.5144,-3.4713,-3.4123,-3.3583,-3.3162,-3.3162,-3.3124,-3.3124,-3.3124,-3.3124,-3.3124,-3.3061,-3.2767,-3.2328,-3.2152,-3.1637,-3.0696,-3.0168,-2.9917,-2.9854,-2.9842,-2.9804,-2.9792,-2.9779,-2.9779,-2.9779,-2.9779,-2.9779,-2.9779,-2.9779,-2.9779,-2.9779,-2.9779,-2.9779,-2.9779,-2.9779,-2.9779,-2.9779,-2.9779,-2.9779,-2.9779,-2.9779,-2.9779,-2.9779,-2.9779,-2.9754,-2.9754,-2.9767,-2.9779,-2.9729,-2.9779,-2.9779,-2.9754,-2.9741,-2.9729,-2.9716,-2.9741,-2.9779,-2.9779,-2.9779,-2.9779,-2.9741,-2.9641,-2.949,-2.9415,-2.9251,-2.875,-2.8285,-2.8034,-2.7733,-2.7293,-2.7128,-2.6889,-2.6826,-2.6839,-2.6826,-2.6763,-2.6738,-2.66,-2.6575,-2.6537,-2.6512,-2.6411,-2.6323,-2.6373,-4.6313,-4.6313,-4.6313,-4.5648,-4.4681,-4.4618,-4.3991,-4.3024,-4.2986,-4.2986,-4.2986,-4.2986,-4.2986,-4.2861,-4.2464,-4.1856,-4.125,-4.0588,-4.0061,-3.9747,-3.9697,-3.9697,-3.9484,-3.8542,-3.7613,-3.6935,-3.6593,-3.6417,-3.6317,-3.5771,-3.5395,-3.5107,-3.4361,-3.3847,-3.3608,-3.3294,-3.3124,-3.3124,-3.3124,-3.3124,-3.3124,-3.3124,-3.298,-3.2792,-3.2428,-3.2026,-3.1712,-3.1185,-3.0733,-3.0382,-3.0357,-3.0193,-2.988,-2.9779,-2.9779,-2.9779,-2.9779,-2.9779,-2.9779,-2.9779,-2.9779,-2.9779,-2.9779,-2.9779,-2.9779,-2.9779,-2.9792,-2.9804,-2.9792,-2.9779,-2.9779,-2.9779,-2.9842,-2.9792,-2.9779,-2.9779,-2.9779,-2.9779,-2.9779,-2.9779,-2.9779,-2.9779,-2.9779,-2.9779,-2.9779,-2.9779,-2.9779,-2.9779,-2.9779,-2.9779,-2.9779,-2.9779,-2.9779,-2.9779,-2.9654,-2.9578,-2.9302,-2.89,-2.8637,-2.8335,-2.7908,-2.7781,-2.7505,-2.7253,-2.7253,-2.719,-2.7115,-2.7027,-2.6939,-2.6725,-2.6675,-2.6612,-2.6524,-2.6549,-2.6637,-4.6313,-4.6313,-4.6313,-4.566,-4.4656,-4.4618,-4.4003,-4.3074,-4.2986,-4.2986,-4.2986,-4.2986,-4.2986,-4.2911,-4.2652,-4.2032,-4.13,-4.0912,-4.0413,-3.9785,-3.9697,-3.9697,-3.9534,-3.853,-3.7563,-3.6772,-3.6505,-3.6417,-3.6392,-3.6031,-3.5696,-3.537,-3.4839,-3.4274,-3.3935,-3.3571,-3.3307,-3.3174,-3.3124,-3.3124,-3.3124,-3.3124,-3.3124,-3.3074,-3.2729,-3.2554,-3.2503,-3.2202,-3.1675,-3.106,-3.0909,-3.0721,-3.0419,-3.0394,-3.0294,-3.0131,-3.0093,-3.003,-2.9842,-2.9779,-2.9779,-2.9779,-2.9779,-2.9779,-2.9779,-2.9779,-2.9854,-3.0068,-3.0118,-3.0168,-3.0357,-3.0407,-3.0382,-3.0394,-3.0005,-2.9817,-2.9779,-2.9779,-2.9779,-2.9779,-2.9779,-2.9779,-2.9779,-2.9779,-2.9779,-2.9779,-2.9779,-2.9779,-2.9779,-2.9779,-2.9804,-2.9804,-2.9779,-2.9779,-2.9779,-2.9767,-2.9767,-2.9503,-2.9214,-2.8863,-2.8473,-2.8624,-2.8573,-2.8158,-2.7984,-2.7844,-2.772,-2.762,-2.7519,-2.7241,-2.7014,-2.7216,-2.7268,-2.6977,-2.6977,-4.6313,-4.6313,-4.6313,-4.566,-4.4681,-4.4618,-4.3991,-4.3074,-4.2986,-4.2986,-4.2986,-4.2986,-4.2986,-4.2986,-4.2954,-4.2359,-4.1463,-4.1238,-4.0739,-3.9998,-3.9735,-3.9672,-3.9408,-3.8479,-3.7688,-3.7111,-3.6656,-3.643,-3.6405,-3.6342,-3.6094,-3.5621,-3.542,-3.4994,-3.4274,-3.3972,-3.3621,-3.3257,-3.3174,-3.3124,-3.3124,-3.3124,-3.3124,-3.3124,-3.3074,-3.3036,-3.3023,-3.296,-3.2478,-3.1599,-3.1386,-3.1286,-3.1336,-3.1373,-3.106,-3.067,-3.0618,-3.0432,-3.0043,-3.0055,-3.003,-3.0043,-3.0055,-2.988,-3.003,-3.0118,-3.0244,-3.0608,-3.0658,-3.0821,-3.1173,-3.1248,-3.126,-3.1235,-3.0557,-3.0093,-2.9917,-2.9955,-3.0068,-3.0018,-2.9905,-2.9905,-3.003,-3.0018,-3.0005,-3.0005,-3.0043,-3.008,-2.9993,-3.0043,-2.9917,-2.9942,-3.0068,-3.0043,-3.0118,-3.0093,-3.0093,-3.0018,-2.9767,-2.9465,-2.9101,-2.9227,-2.934,-2.8963,-2.8662,-2.8486,-2.8323,-2.8197,-2.8034,-2.777,-2.7795,-2.8059,-2.7908,-2.7519,-2.7203,-4.6313,-4.6313,-4.6313,-4.566,-4.4694,-4.4618,-4.4003,-4.3049,-4.2986,-4.2986,-4.2986,-4.2986,-4.2986,-4.2986,-4.2974,-4.2585,-4.1957,-4.1492,-4.0949,-4.0325,-3.986,-3.9459,-3.9032,-3.8366,-3.7739,-3.7199,-3.6732,-3.6417,-3.6417,-3.6417,-3.6317,-3.6132,-3.5696,-3.5382,-3.5019,-3.4324,-3.3872,-3.3633,-3.3257,-3.3136,-3.3124,-3.3124,-3.3124,-3.3124,-3.3124,-3.3124,-3.3124,-3.3124,-3.2767,-3.2051,-3.1587,-3.1386,-3.1449,-3.1461,-3.1399,-3.1235,-3.1173,-3.1135,-3.0984,-3.0922,-3.0934,-3.0972,-3.0859,-3.0959,-3.0972,-3.0959,-3.1035,-3.1185,-3.1185,-3.1248,-3.1386,-3.1436,-3.1424,-3.1361,-3.1148,-3.0947,-3.0896,-3.0972,-3.0972,-3.0972,-3.0922,-3.0884,-3.0859,-3.0871,-3.0911,-3.0884,-3.0846,-3.0834,-3.0645,-3.0595,-3.0608,-3.0595,-3.0645,-3.0545,-3.0482,-3.0444,-3.0432,-3.0457,-3.0306,-3.0118,-2.9767,-2.9578,-2.9641,-2.9515,-2.9315,-2.9126,-2.89,-2.8712,-2.8511,-2.8373,-2.831,-2.8386,-2.821,-2.7896,-2.7469,-4.6313,-4.6313,-4.6313,-4.566,-4.4681,-4.4618,-4.3991,-4.3124,-4.2986,-4.2986,-4.2986,-4.2986,-4.2986,-4.2986,-4.2974,-4.2728,-4.2175,-4.158,-4.0987,-4.0488,-3.9948,-3.9546,-3.9145,-3.863,-3.8078,-3.7513,-3.696,-3.6656,-3.6455,-3.6417,-3.6417,-3.6355,-3.6044,-3.578,-3.542,-3.4931,-3.4324,-3.3947,-3.3558,-3.3332,-3.3149,-3.3124,-3.3124,-3.3124,-3.3124,-3.3124,-3.3124,-3.3124,-3.2948,-3.2579,-3.2277,-3.2102,-3.2089,-3.2143,-3.1989,-3.1788,-3.1725,-3.165,-3.1424,-3.1386,-3.1386,-3.1373,-3.1386,-3.1386,-3.1402,-3.1386,-3.1424,-3.17,-3.1738,-3.1863,-3.2064,-3.2102,-3.2089,-3.2139,-3.2089,-3.1913,-3.1486,-3.1336,-3.1373,-3.1386,-3.1386,-3.1386,-3.1399,-3.1399,-3.1399,-3.1361,-3.1286,-3.1323,-3.1336,-3.1348,-3.1311,-3.1273,-3.1235,-3.116,-3.1022,-3.0947,-3.0947,-3.0947,-3.0796,-3.0633,-3.0218,-2.9905,-2.9767,-2.9754,-2.9779,-2.9704,-2.9402,-2.9214,-2.9214,-2.9051,-2.885,-2.8762,-2.8725,-2.8461,-2.8021,-4.6313,-4.6313,-4.6313,-4.566,-4.4706,-4.4593,-4.3991,-4.3112,-4.2986,-4.2986,-4.2986,-4.2986,-4.2986,-4.2986,-4.2974,-4.2766,-4.2288,-4.1643,-4.0965,-4.04,-3.9923,-3.9647,-3.9546,-3.9019,-3.8467,-3.7914,-3.7437,-3.692,-3.6531,-3.6417,-3.6417,-3.6405,-3.638,-3.6107,-3.5708,-3.547,-3.4944,-3.4311,-3.3935,-3.3633,-3.3294,-3.3199,-3.3124,-3.3124,-3.3124,-3.3124,-3.3124,-3.3124,-3.3086,-3.3111,-3.3124,-3.2968,-3.3036,-3.3074,-3.2805,-3.2416,-3.2277,-3.2114,-3.1725,-3.1725,-3.165,-3.17,-3.1687,-3.1574,-3.17,-3.1763,-3.1901,-3.2277,-3.229,-3.2503,-3.2847,-3.3036,-3.2973,-3.291,-3.2968,-3.2583,-3.1863,-3.1562,-3.1562,-3.1562,-3.1587,-3.1574,-3.1562,-3.1562,-3.1612,-3.2014,-3.1951,-3.2001,-3.2064,-3.2089,-3.1989,-3.1838,-3.1813,-3.18,-3.1637,-3.1474,-3.1474,-3.1461,-3.1273,-3.1022,-3.047,-3.0131,-2.9892,-2.9779,-2.9779,-2.9779,-2.9716,-2.9654,-2.9691,-2.9628,-2.934,-2.9503,-2.9641,-2.9214,-2.8775,-4.6313,-4.6313,-4.6313,-4.566,-4.4719,-4.4593,-4.3991,-4.2999,-4.2986,-4.2986,-4.2986,-4.2986,-4.2986,-4.2986,-4.2974,-4.2898,-4.2622,-4.1781,-4.0786,-3.9923,-3.9785,-3.9697,-3.9584,-3.9157,-3.8592,-3.8027,-3.7462,-3.6971,-3.6568,-3.6443,-3.6417,-3.6417,-3.6405,-3.6355,-3.6144,-3.5721,-3.5433,-3.5019,-3.4387,-3.3909,-3.3646,-3.3307,-3.3162,-3.3136,-3.3124,-3.3124,-3.3124,-3.3124,-3.3124,-3.3124,-3.3124,-3.3124,-3.3124,-3.3124,-3.3036,-3.2935,-3.2898,-3.2805,-3.2717,-3.2659,-3.2692,-3.2646,-3.2566,-3.2717,-3.2759,-3.2684,-3.2759,-3.2893,-3.2893,-3.2918,-3.3086,-3.3124,-3.3124,-3.3124,-3.3111,-3.3036,-3.2754,-3.2667,-3.2616,-3.2684,-3.2629,-3.2704,-3.2667,-3.2591,-3.2659,-3.2692,-3.2679,-3.2729,-3.2742,-3.2772,-3.2554,-3.2315,-3.2265,-3.224,-3.219,-3.2051,-3.2051,-3.2026,-3.1851,-3.1562,-3.1009,-3.067,-3.0532,-3.0181,-2.9779,-2.9829,-3.0005,-2.988,-2.9867,-2.9842,-2.9792,-2.9779,-2.9729,-2.9553,-2.9503,-4.6313,-4.6313,-4.6313,-4.566,-4.4719,-4.4593,-4.4003,-4.3124,-4.2986,-4.2986,-4.2986,-4.2986,-4.2986,-4.2986,-4.2986,-4.2986,-4.2723,-4.1831,-4.0739,-3.991,-3.9697,-3.9697,-3.9659,-3.9383,-3.8956,-3.8391,-3.7839,-3.7287,-3.6835,-3.6543,-3.6417,-3.6417,-3.6417,-3.6405,-3.6405,-3.6069,-3.5805,-3.5445,-3.4956,-3.4462,-3.3922,-3.3633,-3.3282,-3.3131,-3.3124,-3.3124,-3.3124,-3.3124,-3.3124,-3.3124,-3.3124,-3.3124,-3.3124,-3.3124,-3.3124,-3.3124,-3.3124,-3.3124,-3.3111,-3.3124,-3.3086,-3.3124,-3.3124,-3.3124,-3.3124,-3.3124,-3.3124,-3.3124,-3.3111,-3.3124,-3.3124,-3.3124,-3.3124,-3.3124,-3.3124,-3.3124,-3.3124,-3.3124,-3.3124,-3.3124,-3.3061,-3.3061,-3.3111,-3.3124,-3.3099,-3.2923,-3.2923,-3.296,-3.2973,-3.296,-3.288,-3.2729,-3.2667,-3.2641,-3.2654,-3.2629,-3.2629,-3.2604,-3.2516,-3.219,-3.175,-3.1512,-3.1323,-3.0884,-3.0432,-3.0331,-3.0432,-3.0256,-3.0055,-2.9892,-2.9817,-2.9804,-2.9792,-2.9779,-2.9729,-4.6313,-4.6301,-4.6213,-4.5573,-4.4694,-4.4505,-4.3903,-4.3062,-4.2986,-4.2986,-4.2986,-4.2986,-4.2986,-4.2986,-4.2986,-4.2924,-4.2434,-4.1681,-4.0551,-3.9798,-3.9697,-3.9697,-3.9672,-3.9597,-3.9408,-3.8956,-3.8253,-3.7676,-3.7123,-3.6719,-3.643,-3.6417,-3.6417,-3.6417,-3.6405,-3.638,-3.6132,-3.5755,-3.5458,-3.5044,-3.4374,-3.4123,-3.3771,-3.337,-3.3162,-3.3136,-3.3124,-3.3124,-3.3124,-3.3124,-3.3124,-3.3124,-3.3124,-3.3124,-3.3124,-3.3124,-3.3124,-3.3124,-3.3124,-3.3124,-3.3124,-3.3124,-3.3124,-3.3124,-3.3124,-3.3124,-3.3124,-3.3124,-3.3124,-3.3124,-3.3124,-3.3124,-3.3124,-3.3124,-3.3124,-3.3124,-3.3124,-3.3124,-3.3124,-3.3124,-3.3124,-3.3124,-3.3124,-3.3124,-3.3124,-3.3124,-3.3124,-3.3124,-3.3124,-3.3111,-3.3048,-3.298,-3.2893,-3.2855,-3.2867,-3.2867,-3.2905,-3.2905,-3.296,-3.2692,-3.2378,-3.229,-3.2026,-3.1599,-3.1248,-3.116,-3.0972,-3.0771,-3.0495,-3.0105,-3.0131,-3.0382,-3.0294,-3.0068,-3.0055,-4.6313,-4.6276,-4.5824,-4.5246,-4.4593,-4.4141,-4.3589,-4.3049,-4.2986,-4.2986,-4.2986,-4.2986,-4.2986,-4.2986,-4.2986,-4.2509,-4.1769,-4.0974,-4.0362,-3.9785,-3.9697,-3.9697,-3.9697,-3.9697,-3.9622,-3.9308,-3.8555,-3.7739,-3.7224,-3.6707,-3.6443,-3.6417,-3.6417,-3.6417,-3.6417,-3.6405,-3.6367,-3.6094,-3.5771,-3.5382,-3.5082,-3.4643,-3.4248,-3.3709,-3.3357,-3.3187,-3.3124,-3.3124,-3.3124,-3.3124,-3.3124,-3.3124,-3.3124,-3.3124,-3.3124,-3.3124,-3.3124,-3.3124,-3.3124,-3.3124,-3.3124,-3.3124,-3.3124,-3.3124,-3.3124,-3.3124,-3.3124,-3.3124,-3.3124,-3.3124,-3.3124,-3.3124,-3.3124,-3.3124,-3.3124,-3.3124,-3.3124,-3.3124,-3.3124,-3.3124,-3.3124,-3.3124,-3.3124,-3.3124,-3.3124,-3.3124,-3.3124,-3.3124,-3.3124,-3.3124,-3.3111,-3.3099,-3.3099,-3.3086,-3.3086,-3.3074,-3.3074,-3.3061,-3.3061,-3.3061,-3.2842,-3.2943,-3.2717,-3.2219,-3.2039,-3.2064,-3.18,-3.1373,-3.1097,-3.0809,-3.0922,-3.106,-3.0871,-3.067,-3.0721,-4.615,-4.5861,-4.5585,-4.4982,-4.4229,-4.3928,-4.3489,-4.3024,-4.2986,-4.2986,-4.2986,-4.2986,-4.2986,-4.2986,-4.2986,-4.2371,-4.1376,-4.0711,-4.0224,-3.9798,-3.9697,-3.9697,-3.9697,-3.9697,-3.9697,-3.9383,-3.858,-3.7902,-3.7538,-3.6795,-3.6468,-3.6417,-3.6417,-3.6417,-3.6417,-3.6417,-3.6417,-3.6329,-3.6081,-3.5805,-3.5495,-3.4969,-3.4474,-3.3972,-3.3658,-3.3382,-3.3149,-3.3124,-3.3124,-3.3124,-3.3124,-3.3124,-3.3149,-3.3162,-3.3136,-3.3149,-3.3124,-3.3124,-3.3124,-3.3124,-3.3124,-3.3124,-3.3124,-3.3124,-3.3124,-3.3124,-3.3124,-3.3124,-3.3124,-3.3124,-3.3124,-3.3124,-3.3124,-3.3124,-3.3124,-3.3124,-3.3124,-3.3124,-3.3124,-3.3124,-3.3124,-3.3124,-3.3124,-3.3124,-3.3124,-3.3124,-3.3124,-3.3124,-3.3124,-3.3124,-3.3124,-3.3124,-3.3124,-3.3124,-3.3124,-3.3124,-3.3124,-3.3124,-3.3124,-3.3124,-3.3124,-3.3124,-3.2998,-3.2659,-3.2641,-3.2679,-3.2328,-3.1813,-3.1662,-3.1499,-3.1424,-3.1373,-3.1361,-3.1336,-3.1386,-4.5886,-4.5472,-4.5246,-4.4631,-4.3865,-4.3677,-4.3388,-4.3037,-4.2986,-4.2986,-4.2986,-4.2986,-4.2986,-4.2911,-4.2635,-4.2108,-4.1225,-4.0676,-4.0074,-3.9785,-3.9697,-3.9697,-3.9697,-3.9697,-3.9685,-3.9546,-3.8781,-3.8115,-3.7739,-3.692,-3.648,-3.6417,-3.6417,-3.6417,-3.6417,-3.6417,-3.6417,-3.6417,-3.6405,-3.6107,-3.568,-3.5165,-3.47,-3.4248,-3.4123,-3.3859,-3.3583,-3.3558,-3.3545,-3.3533,-3.3495,-3.3501,-3.342,-3.3407,-3.3357,-3.3257,-3.3187,-3.3136,-3.3124,-3.3124,-3.3124,-3.3124,-3.3124,-3.3124,-3.3124,-3.3124,-3.3124,-3.3124,-3.3124,-3.3124,-3.3124,-3.3124,-3.3124,-3.3124,-3.3124,-3.3124,-3.3124,-3.3124,-3.3124,-3.3124,-3.3124,-3.3162,-3.3199,-3.3124,-3.3124,-3.3124,-3.3124,-3.3124,-3.3124,-3.3124,-3.3124,-3.3124,-3.3124,-3.3124,-3.3124,-3.3124,-3.3124,-3.3124,-3.3124,-3.3124,-3.3124,-3.3124,-3.2986,-3.2898,-3.2948,-3.291,-3.2541,-3.2365,-3.229,-3.2127,-3.1851,-3.1825,-3.2068,-3.2106,-3.2093,-4.5547,-4.5384,-4.4418,-4.3903,-4.3727,-4.33,-4.3062,-4.2999,-4.2986,-4.2986,-4.2986,-4.2986,-4.2986,-4.2798,-4.1957,-4.1463,-4.1025,-4.035,-3.9835,-3.9697,-3.9697,-3.9697,-3.9697,-3.9697,-3.9697,-3.9584,-3.9032,-3.8492,-3.7889,-3.6923,-3.643,-3.6417,-3.6417,-3.6417,-3.6417,-3.6417,-3.6417,-3.637,-3.631,-3.632,-3.6157,-3.5705,-3.5382,-3.5132,-3.4831,-3.4537,-3.4361,-3.4311,-3.4361,-3.4399,-3.4417,-3.45,-3.448,-3.4525,-3.4236,-3.3834,-3.3407,-3.3124,-3.3187,-3.3287,-3.3282,-3.3307,-3.3287,-3.3162,-3.3275,-3.325,-3.3224,-3.3124,-3.3162,-3.3262,-3.3312,-3.3224,-3.3162,-3.325,-3.3363,-3.3312,-3.3275,-3.3533,-3.3483,-3.342,-3.3533,-3.3413,-3.3325,-3.3212,-3.3124,-3.3124,-3.3124,-3.3124,-3.3124,-3.3124,-3.3124,-3.3124,-3.3124,-3.3124,-3.3124,-3.3124,-3.3124,-3.3124,-3.3124,-3.3124,-3.3124,-3.3124,-3.3124,-3.3074,-3.3124,-3.3124,-3.291,-3.2792,-3.291,-3.2784,-3.2508,-3.2659,-3.2948,-3.2885,-3.2671,-4.4531,-4.448,-4.4003,-4.3614,-4.3313,-4.3062,-4.2986,-4.2986,-4.2986,-4.2986,-4.2986,-4.2986,-4.2986,-4.2748,-4.1831,-4.13,-4.1091,-4.0199,-3.971,-3.9697,-3.9697,-3.9697,-3.9697,-3.9697,-3.9697,-3.9559,-3.9132,-3.853,-3.7902,-3.7287,-3.6769,-3.6417,-3.6417,-3.6417,-3.6417,-3.6417,-3.5918,-3.5475,-3.5271,-3.5667,-3.6106,-3.6132,-3.5868,-3.552,-3.527,-3.5019,-3.4839,-3.468,-3.468,-3.468,-3.468,-3.468,-3.468,-3.4655,-3.4562,-3.4424,-3.4173,-3.3884,-3.3646,-3.3834,-3.3897,-3.3985,-3.3985,-3.4048,-3.3947,-3.3721,-3.3709,-3.401,-3.3721,-3.3684,-3.3897,-3.401,-3.401,-3.3985,-3.3847,-3.3884,-3.3897,-3.3997,-3.4123,-3.4035,-3.396,-3.3834,-3.3658,-3.3432,-3.3307,-3.3237,-3.3212,-3.3174,-3.3149,-3.3124,-3.3124,-3.3124,-3.3124,-3.3124,-3.3124,-3.3124,-3.3124,-3.3124,-3.3124,-3.3124,-3.3124,-3.3124,-3.3124,-3.3124,-3.3124,-3.3124,-3.3124,-3.3099,-3.3036,-3.3074,-3.3111,-3.3124,-3.3124,-3.3099,-3.2935,-4.3601,-4.3601,-4.3589,-4.335,-4.2986,-4.2986,-4.2986,-4.2986,-4.2986,-4.2986,-4.2986,-4.2986,-4.2986,-4.2723,-4.1907,-4.1275,-4.12,-4.0187,-3.9785,-3.9697,-3.9697,-3.9697,-3.9697,-3.9697,-3.9697,-3.9697,-3.9371,-3.8843,-3.8266,-3.7638,-3.7048,-3.6443,-3.6417,-3.6417,-3.6417,-3.6358,-3.5966,-3.5367,-3.5223,-3.5619,-3.6191,-3.6405,-3.6119,-3.5893,-3.5705,-3.5554,-3.5215,-3.5177,-3.519,-3.5203,-3.524,-3.529,-3.5265,-3.529,-3.5152,-3.5052,-3.4977,-3.4889,-3.4575,-3.448,-3.4668,-3.468,-3.468,-3.4562,-3.4587,-3.4311,-3.4186,-3.4562,-3.4336,-3.4361,-3.4587,-3.4618,-3.453,-3.4505,-3.4542,-3.4643,-3.468,-3.465,-3.4537,-3.4412,-3.4387,-3.45,-3.4261,-3.3859,-3.3596,-3.3357,-3.33,-3.3275,-3.325,-3.325,-3.3199,-3.3224,-3.3199,-3.3187,-3.3162,-3.3162,-3.3149,-3.3212,-3.3224,-3.3162,-3.3187,-3.3149,-3.3124,-3.3124,-3.3124,-3.3124,-3.3124,-3.3124,-3.3124,-3.3124,-3.3124,-3.3124,-3.3124,-3.3124,-3.3124,-4.3037,-4.3024,-4.3049,-4.3037,-4.2986,-4.2986,-4.2986,-4.2986,-4.2986,-4.2986,-4.2986,-4.2986,-4.2986,-4.2723,-4.1982,-4.1351,-4.1225,-4.0199,-3.9823,-3.9722,-3.9697,-3.9697,-3.9697,-3.9697,-3.9697,-3.9697,-3.9521,-3.9233,-3.8844,-3.8203,-3.7362,-3.6568,-3.6468,-3.643,-3.631,-3.6168,-3.6216,-3.5823,-3.5823,-3.5918,-3.631,-3.6417,-3.6355,-3.6342,-3.6329,-3.6317,-3.6267,-3.6141,-3.6091,-3.6065,-3.604,-3.6053,-3.599,-3.6015,-3.5805,-3.5629,-3.5793,-3.5692,-3.5429,-3.5064,-3.4813,-3.4718,-3.4793,-3.4964,-3.5014,-3.4801,-3.468,-3.4806,-3.4788,-3.4763,-3.4756,-3.4718,-3.5002,-3.5052,-3.5152,-3.514,-3.5127,-3.5027,-3.4914,-3.4731,-3.4818,-3.5077,-3.5115,-3.4776,-3.4223,-3.3972,-3.3822,-3.3796,-3.3533,-3.3483,-3.3357,-3.3307,-3.3269,-3.3275,-3.3237,-3.3312,-3.352,-3.3583,-3.3571,-3.3395,-3.3244,-3.3224,-3.3124,-3.3124,-3.3124,-3.3124,-3.3124,-3.3124,-3.3124,-3.3124,-3.3124,-3.3124,-3.3124,-3.3124,-3.3124,-4.2986,-4.2986,-4.2986,-4.2986,-4.2986,-4.2986,-4.2986,-4.2986,-4.2986,-4.2986,-4.2986,-4.2986,-4.2986,-4.276,-4.2258,-4.1643,-4.1225,-4.0588,-4.0061,-3.9772,-3.9697,-3.9697,-3.9697,-3.9697,-3.9697,-3.9697,-3.9672,-3.9408,-3.8906,-3.8592,-3.7877,-3.7184,-3.6694,-3.6443,-3.6263,-3.587,-3.5823,-3.6061,-3.5775,-3.5523,-3.6358,-3.6417,-3.6417,-3.6417,-3.6417,-3.6417,-3.6392,-3.6405,-3.6417,-3.6417,-3.6417,-3.6417,-3.6417,-3.6417,-3.6292,-3.6031,-3.6317,-3.6241,-3.6094,-3.5805,-3.5742,-3.573,-3.5742,-3.568,-3.5579,-3.5429,-3.5479,-3.5504,-3.5391,-3.5303,-3.5692,-3.5742,-3.5805,-3.5742,-3.568,-3.5629,-3.5579,-3.5491,-3.5491,-3.5454,-3.5629,-3.5843,-3.583,-3.5755,-3.514,-3.46,-3.4474,-3.4311,-3.4035,-3.3884,-3.3822,-3.3809,-3.3796,-3.3859,-3.3847,-3.3947,-3.4035,-3.3997,-3.396,-3.3834,-3.3633,-3.3212,-3.3124,-3.3124,-3.3136,-3.3124,-3.3124,-3.3124,-3.3124,-3.3124,-3.3124,-3.3124,-3.3124,-3.3124,-3.3124,-4.2986,-4.2986,-4.2986,-4.2986,-4.2986,-4.2986,-4.2986,-4.2986,-4.2986,-4.2986,-4.2986,-4.2986,-4.2986,-4.2823,-4.2439,-4.1831,-4.1304,-4.0739,-4.0199,-3.9885,-3.9697,-3.9697,-3.9697,-3.9697,-3.9697,-3.9697,-3.9672,-3.9433,-3.9182,-3.8981,-3.8492,-3.7825,-3.7136,-3.6895,-3.6216,-3.5667,-3.5475,-3.5858,-3.5715,-3.5319,-3.637,-3.6417,-3.6417,-3.6417,-3.6417,-3.6417,-3.6417,-3.6417,-3.6417,-3.6417,-3.6417,-3.6417,-3.6417,-3.6417,-3.6417,-3.6417,-3.6417,-3.6417,-3.6417,-3.6405,-3.6392,-3.6267,-3.6304,-3.6329,-3.6304,-3.6006,-3.5981,-3.6204,-3.5981,-3.5956,-3.6417,-3.6279,-3.6241,-3.6128,-3.6153,-3.6116,-3.6141,-3.6103,-3.6179,-3.6204,-3.6317,-3.6267,-3.6229,-3.6128,-3.5692,-3.5077,-3.47,-3.46,-3.4487,-3.4412,-3.4462,-3.4462,-3.4487,-3.453,-3.463,-3.455,-3.4424,-3.4387,-3.4374,-3.4399,-3.4148,-3.3671,-3.3426,-3.3564,-3.3501,-3.3237,-3.3124,-3.3124,-3.3124,-3.3124,-3.3124,-3.3124,-3.3124,-3.3124,-3.3124,-4.2986,-4.2986,-4.2986,-4.2986,-4.2986,-4.2986,-4.2986,-4.2986,-4.2986,-4.2986,-4.2986,-4.2986,-4.2986,-4.2916,-4.2514,-4.1932,-4.1354,-4.0814,-4.0262,-3.9823,-3.9697,-3.9697,-3.9697,-3.9697,-3.9697,-3.9697,-3.9685,-3.9647,-3.9597,-3.922,-3.8868,-3.8542,-3.7927,-3.7215,-3.6458,-3.6358,-3.6358,-3.631,-3.6156,-3.631,-3.6358,-3.6417,-3.637,-3.6061,-3.6073,-3.6013,-3.6013,-3.6013,-3.6061,-3.6358,-3.6417,-3.6417,-3.6417,-3.6417,-3.6417,-3.6417,-3.6417,-3.6417,-3.6417,-3.6417,-3.6417,-3.6417,-3.6417,-3.6417,-3.6417,-3.6355,-3.6304,-3.6405,-3.6317,-3.6317,-3.6417,-3.6417,-3.6417,-3.6417,-3.6417,-3.6417,-3.6417,-3.6417,-3.6417,-3.6417,-3.6417,-3.6405,-3.6405,-3.6329,-3.6031,-3.5579,-3.5052,-3.4876,-3.4939,-3.5039,-3.5152,-3.5177,-3.5203,-3.5203,-3.5228,-3.4964,-3.4826,-3.4743,-3.4876,-3.5027,-3.4839,-3.4387,-3.423,-3.418,-3.3891,-3.3596,-3.3363,-3.3124,-3.3124,-3.3124,-3.3124,-3.3124,-3.3124,-3.3124,-3.3124,-4.2986,-4.2986,-4.2986,-4.2986,-4.2986,-4.2986,-4.2986,-4.2986,-4.2986,-4.2986,-4.2986,-4.2986,-4.2986,-4.2898,-4.2735,-4.2195,-4.1338,-4.1175,-4.0676,-3.976,-3.9697,-3.9697,-3.9697,-3.9697,-3.9697,-3.9697,-3.9697,-3.9697,-3.9672,-3.9421,-3.9196,-3.8881,-3.8304,-3.7109,-3.621,-3.5914,-3.6061,-3.5427,-3.5775,-3.6417,-3.6417,-3.631,-3.6013,-3.5271,-3.5174,-3.5223,-3.5223,-3.5271,-3.5619,-3.6263,-3.6417,-3.6417,-3.6417,-3.6417,-3.6417,-3.6417,-3.6417,-3.6417,-3.6417,-3.6417,-3.6417,-3.6417,-3.6417,-3.6417,-3.6417,-3.6417,-3.6417,-3.6417,-3.6417,-3.6417,-3.6417,-3.6417,-3.6417,-3.6417,-3.6417,-3.6417,-3.6417,-3.6417,-3.6417,-3.6417,-3.6417,-3.6417,-3.6417,-3.6417,-3.6182,-3.6119,-3.568,-3.5667,-3.5742,-3.5855,-3.5956,-3.5943,-3.5943,-3.5881,-3.5768,-3.5542,-3.5504,-3.5579,-3.5717,-3.5952,-3.5651,-3.516,-3.5286,-3.5361,-3.4638,-3.3997,-3.3671,-3.3413,-3.3187,-3.3124,-3.3325,-3.3312,-3.325,-3.3199,-3.3124,-4.2986,-4.2986,-4.2986,-4.2986,-4.2986,-4.2986,-4.2986,-4.2986,-4.2986,-4.2986,-4.2986,-4.2986,-4.2986,-4.2986,-4.2898,-4.2384,-4.1351,-4.125,-4.0739,-3.9823,-3.9697,-3.9697,-3.9697,-3.9697,-3.9697,-3.9697,-3.9697,-3.9697,-3.9697,-3.9697,-3.9509,-3.9132,-3.853,-3.7466,-3.6564,-3.6321,-3.596,-3.5381,-3.5571,-3.6108,-3.5966,-3.587,-3.5727,-3.4884,-3.4483,-3.4483,-3.4434,-3.4581,-3.4981,-3.5966,-3.6417,-3.6417,-3.6417,-3.6417,-3.6417,-3.6417,-3.6417,-3.6417,-3.6417,-3.6417,-3.6417,-3.6417,-3.6417,-3.6417,-3.6417,-3.6417,-3.6417,-3.6417,-3.6417,-3.6417,-3.6417,-3.6417,-3.6417,-3.6417,-3.6417,-3.6417,-3.6417,-3.6417,-3.6417,-3.6417,-3.6417,-3.6417,-3.6417,-3.6417,-3.6355,-3.6367,-3.6367,-3.6417,-3.6417,-3.6417,-3.6417,-3.638,-3.6355,-3.6241,-3.6204,-3.6204,-3.6229,-3.638,-3.6417,-3.6417,-3.6342,-3.5877,-3.6216,-3.6392,-3.5651,-3.4864,-3.4098,-3.3696,-3.3709,-3.3734,-3.3834,-3.3709,-3.342,-3.342,-3.347,-4.2986,-4.2986,-4.2986,-4.2986,-4.2986,-4.2986,-4.2986,-4.2986,-4.2986,-4.2986,-4.2986,-4.2986,-4.2986,-4.2986,-4.2986,-4.2359,-4.1451,-4.13,-4.0626,-3.9973,-3.971,-3.9697,-3.9697,-3.9697,-3.9697,-3.9697,-3.9697,-3.9697,-3.9697,-3.9697,-3.9659,-3.9534,-3.9107,-3.8123,-3.7426,-3.6773,-3.6064,-3.5369,-3.5442,-3.573,-3.556,-3.5667,-3.5114,-3.4374,-3.397,-3.397,-3.397,-3.4068,-3.4969,-3.5823,-3.6417,-3.6417,-3.6417,-3.6417,-3.6417,-3.6417,-3.6417,-3.6417,-3.6417,-3.6417,-3.6417,-3.6417,-3.6417,-3.6417,-3.6417,-3.6417,-3.6417,-3.6417,-3.6417,-3.6417,-3.6417,-3.6417,-3.6417,-3.6417,-3.6417,-3.6417,-3.6417,-3.6417,-3.6417,-3.6417,-3.6417,-3.6417,-3.6417,-3.6417,-3.6417,-3.6417,-3.6417,-3.6417,-3.6417,-3.6417,-3.6417,-3.6417,-3.6392,-3.6405,-3.6417,-3.6417,-3.6417,-3.6417,-3.6417,-3.6417,-3.6417,-3.6417,-3.6417,-3.6392,-3.6342,-3.5789,-3.4826,-3.4487,-3.4512,-3.4525,-3.4424,-3.4286,-3.4048,-3.4198,-3.4236,-4.2986,-4.2986,-4.2986,-4.2986,-4.2986,-4.2986,-4.2986,-4.2986,-4.2986,-4.2986,-4.2986,-4.2986,-4.2986,-4.2986,-4.2974,-4.2271,-4.1693,-4.1137,-4.0588,-4.0086,-3.9697,-3.9697,-3.9697,-3.9697,-3.9697,-3.9697,-3.9697,-3.9697,-3.9697,-3.9697,-3.9697,-3.9622,-3.9471,-3.8837,-3.8081,-3.7292,-3.6122,-3.5284,-3.5328,-3.5222,-3.5102,-3.5066,-3.425,-3.3362,-3.2917,-3.2955,-3.3055,-3.3044,-3.4093,-3.5966,-3.6358,-3.6417,-3.6417,-3.6417,-3.6417,-3.6417,-3.6417,-3.6417,-3.6417,-3.6417,-3.6417,-3.6417,-3.6443,-3.6417,-3.6417,-3.6443,-3.6443,-3.6505,-3.6543,-3.6581,-3.6669,-3.6694,-3.6631,-3.6568,-3.6556,-3.6505,-3.6493,-3.6417,-3.6417,-3.6417,-3.6417,-3.6417,-3.6417,-3.6417,-3.6417,-3.6417,-3.6417,-3.6417,-3.6417,-3.6417,-3.6417,-3.6417,-3.6417,-3.6417,-3.6417,-3.6417,-3.6417,-3.6417,-3.6417,-3.6417,-3.6417,-3.6417,-3.6417,-3.6355,-3.6241,-3.5906,-3.537,-3.5169,-3.509,-3.4944,-3.4843,-3.4743,-3.4705,-3.4901,-3.4914,-4.2986,-4.2986,-4.2986,-4.2986,-4.2986,-4.2986,-4.2986,-4.2986,-4.2986,-4.2986,-4.2986,-4.2986,-4.2986,-4.2986,-4.2924,-4.2396,-4.1338,-4.1225,-4.0752,-3.9923,-3.9697,-3.9697,-3.9697,-3.9697,-3.9697,-3.9697,-3.9697,-3.9697,-3.9697,-3.9697,-3.9697,-3.9697,-3.9697,-3.9111,-3.8282,-3.736,-3.6277,-3.5193,-3.4602,-3.4497,-3.4275,-3.3995,-3.298,-3.2119,-3.1746,-3.183,-3.2275,-3.2275,-3.3749,-3.5906,-3.637,-3.6417,-3.6417,-3.6417,-3.6417,-3.6417,-3.6417,-3.6417,-3.6417,-3.6417,-3.6417,-3.648,-3.6593,-3.6744,-3.6644,-3.6606,-3.6669,-3.6732,-3.6769,-3.6832,-3.6958,-3.7046,-3.6908,-3.6782,-3.6707,-3.6631,-3.6543,-3.643,-3.6417,-3.6417,-3.6417,-3.6417,-3.6417,-3.643,-3.6417,-3.6417,-3.6417,-3.6417,-3.6417,-3.6417,-3.6417,-3.6417,-3.6417,-3.6417,-3.6417,-3.6417,-3.6417,-3.6417,-3.6417,-3.6417,-3.6417,-3.6417,-3.6417,-3.6279,-3.6116,-3.5868,-3.578,-3.568,-3.5567,-3.5479,-3.5479,-3.5516,-3.5516,-3.5592,-3.5504,-4.2986,-4.2986,-4.2986,-4.2986,-4.2986,-4.2986,-4.2986,-4.2986,-4.2986,-4.2986,-4.2986,-4.2986,-4.2986,-4.2986,-4.2949,-4.2333,-4.1551,-4.1238,-4.0752,-3.9722,-3.9697,-3.9697,-3.9697,-3.9697,-3.9697,-3.9697,-3.9697,-3.9697,-3.9697,-3.9645,-3.9633,-3.9581,-3.9697,-3.8951,-3.737,-3.7027,-3.5898,-3.4363,-3.3325,-3.2759,-3.2516,-3.2178,-3.1877,-3.1275,-3.1021,-3.1016,-3.1951,-3.2706,-3.3537,-3.532,-3.637,-3.6383,-3.6417,-3.6417,-3.6417,-3.6417,-3.6417,-3.6417,-3.6417,-3.6417,-3.6493,-3.6656,-3.692,-3.7098,-3.7061,-3.6998,-3.7086,-3.7186,-3.7262,-3.7349,-3.7475,-3.7525,-3.7437,-3.7312,-3.7224,-3.6998,-3.6782,-3.6681,-3.6619,-3.6656,-3.6757,-3.6769,-3.6908,-3.6945,-3.6744,-3.6593,-3.6417,-3.6417,-3.6455,-3.6468,-3.6468,-3.6468,-3.6417,-3.6417,-3.6417,-3.6417,-3.6417,-3.6417,-3.6417,-3.6417,-3.6417,-3.6417,-3.6417,-3.6304,-3.6216,-3.6304,-3.6254,-3.6116,-3.5994,-3.6103,-3.6141,-3.6304,-3.6329,-3.6204,-3.6103,-4.2986,-4.2986,-4.2986,-4.2986,-4.2986,-4.2986,-4.2986,-4.2986,-4.2986,-4.2986,-4.2986,-4.2986,-4.2986,-4.2986,-4.2974,-4.2371,-4.1543,-4.1213,-4.0651,-3.9946,-3.9581,-3.9362,-3.953,-3.9258,-3.9478,-3.9697,-3.9697,-3.953,-3.9413,-3.9413,-3.9025,-3.8295,-3.8635,-3.8137,-3.5999,-3.5836,-3.4923,-3.3311,-3.2086,-3.2034,-3.2609,-3.1997,-3.1537,-3.1385,-3.1261,-3.1251,-3.1953,-3.2531,-3.3622,-3.5081,-3.6031,-3.6301,-3.6417,-3.643,-3.6417,-3.6417,-3.6443,-3.6468,-3.6417,-3.6455,-3.6581,-3.6895,-3.7161,-3.745,-3.7588,-3.76,-3.7663,-3.7776,-3.7852,-3.7939,-3.8052,-3.8065,-3.8027,-3.7914,-3.7801,-3.7425,-3.7061,-3.6983,-3.6895,-3.6996,-3.7086,-3.7199,-3.7349,-3.7274,-3.7061,-3.6845,-3.6543,-3.6455,-3.6556,-3.6593,-3.6619,-3.6581,-3.6443,-3.6417,-3.6417,-3.6417,-3.6417,-3.6417,-3.6417,-3.6417,-3.6417,-3.6417,-3.6417,-3.6417,-3.6392,-3.6417,-3.6417,-3.638,-3.6355,-3.6417,-3.6417,-3.6417,-3.6417,-3.6317,-3.6355,-4.2986,-4.2986,-4.2986,-4.2986,-4.2986,-4.2986,-4.2986,-4.2986,-4.2986,-4.2986,-4.2986,-4.2986,-4.2986,-4.2986,-4.2974,-4.2371,-4.1438,-4.1288,-4.0626,-3.9921,-3.9025,-3.8699,-3.8582,-3.8255,-3.8255,-3.8477,-3.8635,-3.8635,-3.8699,-3.782,-3.7103,-3.6703,-3.7317,-3.6769,-3.4581,-3.4247,-3.3698,-3.2129,-3.097,-3.1384,-3.2439,-3.1502,-3.0857,-3.0857,-3.0872,-3.1031,-3.1683,-3.2307,-3.3514,-3.4984,-3.6284,-3.6714,-3.6772,-3.6772,-3.6656,-3.6581,-3.6581,-3.6669,-3.6531,-3.6556,-3.6757,-3.7098,-3.7513,-3.7826,-3.8366,-3.8417,-3.8504,-3.8592,-3.8429,-3.8479,-3.8831,-3.8944,-3.8705,-3.853,-3.8379,-3.8115,-3.7764,-3.7513,-3.7487,-3.755,-3.7626,-3.7626,-3.7726,-3.7713,-3.7538,-3.7538,-3.7161,-3.701,-3.701,-3.6883,-3.6822,-3.6807,-3.6707,-3.6505,-3.6417,-3.6417,-3.6417,-3.6417,-3.6417,-3.6417,-3.6417,-3.6417,-3.6417,-3.6417,-3.6417,-3.6417,-3.6417,-3.6417,-3.6417,-3.6417,-3.6417,-3.6417,-3.6417,-3.6417,-3.6417,-4.2986,-4.2986,-4.2986,-4.2986,-4.2986,-4.2986,-4.2986,-4.2986,-4.2986,-4.2986,-4.2986,-4.2986,-4.2986,-4.2986,-4.2631,-4.2006,-4.1401,-4.0748,-4.019,-3.9167,-3.8149,-3.7648,-3.693,-3.6271,-3.6661,-3.6984,-3.721,-3.721,-3.721,-3.6391,-3.5781,-3.5233,-3.4847,-3.447,-3.336,-3.2918,-3.2587,-3.1604,-3.0859,-3.0908,-3.0652,-3.0185,-3.0297,-3.0162,-3.0064,-3.0454,-3.1189,-3.2069,-3.3231,-3.4544,-3.6004,-3.6567,-3.6983,-3.7019,-3.7073,-3.6973,-3.7111,-3.7048,-3.6847,-3.6845,-3.7121,-3.7425,-3.7864,-3.8354,-3.8894,-3.9132,-3.922,-3.917,-3.9057,-3.9069,-3.9421,-3.9534,-3.9258,-3.9044,-3.8881,-3.8793,-3.8454,-3.809,-3.8052,-3.8103,-3.8178,-3.8178,-3.8216,-3.8203,-3.8115,-3.8115,-3.804,-3.7977,-3.7826,-3.7525,-3.7337,-3.7224,-3.7159,-3.6908,-3.6518,-3.6455,-3.6468,-3.6417,-3.6417,-3.6417,-3.6417,-3.6417,-3.6417,-3.6417,-3.6417,-3.6417,-3.6417,-3.6417,-3.6417,-3.6417,-3.6417,-3.6417,-3.6417,-3.6417,-3.6417,-4.2986,-4.2986,-4.2986,-4.2986,-4.2986,-4.2986,-4.2986,-4.2986,-4.2986,-4.2986,-4.2986,-4.2986,-4.2974,-4.2905,-4.1545,-4.0793,-4.0562,-3.9983,-3.8924,-3.7821,-3.7435,-3.6715,-3.5945,-3.5343,-3.5508,-3.5617,-3.5727,-3.5727,-3.5563,-3.5233,-3.4626,-3.3631,-3.4792,-3.3912,-3.1883,-3.1825,-3.2264,-3.1276,-3.0898,-3.0898,-3.0898,-3.0693,-3.0723,-3.0693,-3.0684,-3.0808,-3.1169,-3.1778,-3.229,-3.3334,-3.5017,-3.6051,-3.6659,-3.727,-3.759,-3.7563,-3.7701,-3.7663,-3.7513,-3.7425,-3.7688,-3.8253,-3.8605,-3.8818,-3.9233,-3.9484,-3.9534,-3.9534,-3.9433,-3.9433,-3.9659,-3.9659,-3.9471,-3.9346,-3.9195,-3.9258,-3.9132,-3.8705,-3.8417,-3.8655,-3.8894,-3.8994,-3.9145,-3.8994,-3.8705,-3.8617,-3.8366,-3.8291,-3.8115,-3.7965,-3.7902,-3.7814,-3.7701,-3.7046,-3.6568,-3.6543,-3.6543,-3.6468,-3.6417,-3.6417,-3.6417,-3.6417,-3.6417,-3.6417,-3.6417,-3.6417,-3.6417,-3.6417,-3.6417,-3.6417,-3.6417,-3.6417,-3.6417,-3.6417,-3.6417]},{"header":{"parameterUnit":"m.s-1","parameterCategory":1,"la1":31.0,"la2":29.5877,"lo1":-88.7671,"lo2":-86.6584,"dy":0.0162,"dx":0.0185,"nx":115,"ny":88,"refTime":"2026-05-17T12:00:00:Z","depth":0,"parameterNumber":3,"parameterNumberName":"V-component_of_WINDS"},"data":[0.0,0.0,0.0,0.0,0.0,0.0,0.0,0.0,0.0,0.0,0.0,0.0,0.0,0.0,0.0,0.0,0.0,0.0,0.0,0.0,0.0,0.0,0.0,0.0,0.0,0.0,0.0,0.0,0.0,0.0,0.0,0.0,0.0,0.0,0.0,0.0,0.0,0.0,0.0,0.0,0.0,0.0,0.0,0.0,0.0,0.0,0.0,0.0,0.0,0.0,0.0,0.0,0.0,0.0,0.0,0.0,0.0,0.0,0.0,0.0,0.0,0.0,0.0,0.0,0.0,0.0,0.0,0.0,0.0,0.0,0.0,0.0,0.0,0.0,0.0,0.0,0.0,0.0,0.0,0.0,0.0,0.0,0.0,0.0,0.0,0.0,0.0,0.0,0.0,0.0,0.0,0.0,0.0,0.0,0.0,0.0,0.0,0.0,0.0,0.0,0.0,0.0,0.0,0.0,0.0,0.0,0.0,0.0,0.0,0.0,0.0,0.0,0.0,0.0,0.0,0.0,0.0,0.0,0.0,0.0,0.0,0.0,0.0,0.0,0.0,0.0,0.0,0.0,0.0,0.0,0.0,0.0,0.0,0.0,0.0,0.0,0.0,0.0,0.0,0.0,0.0,0.0,0.0,0.0,0.0,0.0,0.0,0.0,0.0,0.0,0.0,0.0,0.0,0.0,0.0,0.0,0.0,0.0,0.0,0.0,0.0,0.0,0.0,0.0,0.0,0.0,0.0,0.0,0.0,0.0,0.0,0.0,0.0,0.0,0.0,0.0,0.0,0.0,0.0,0.0,0.0,0.0,0.0,0.0,0.0,0.0,0.0,0.0,0.0,0.0,0.0,0.0,0.0,0.0,0.0,0.0,0.0,0.0,0.0,0.0,0.0,0.0,0.0,0.0,0.0,0.0,0.0,0.0,0.0,0.0,0.0,0.0,0.0,0.0,0.0,0.0,0.0,0.0,0.0,0.0,0.0,0.0,0.0,0.0,0.0,0.0,0.0,0.0,0.0,0.0,0.0,0.0,0.0,0.0,0.0,0.0,0.0,0.0,0.0,0.0,0.0,0.0,0.0,0.0,0.0,0.0,0.0,0.0,0.0,0.0,0.0,0.0,0.0,0.0,0.0,0.0,0.0,0.0,0.0,0.0,0.0,0.0,0.0,0.0,0.0,0.0,0.0,0.0,0.0,0.0,0.0,0.0,0.0,0.0,0.0,0.0,0.0,0.0,0.0,0.0,0.0,0.0,0.0,0.0,0.0,0.0,0.0,0.0,0.0,0.0,0.0,0.0,0.0,0.0,0.0,0.0,0.0,0.0,0.0,0.0,0.0,0.0,0.0,0.0,0.0,0.0,0.0,0.0,0.0,0.0,0.0,0.0,0.0,0.0,0.0,0.0,0.0,0.0,0.0,0.0,0.0,0.0,0.0,0.0,0.0,0.0,0.0,0.0,0.0,0.0,0.0,0.0,0.0,0.0,0.0,0.0,0.0,0.0,0.0,0.0,0.0,0.0,0.0,0.0,0.0,0.0,0.0,0.0,0.0,0.0,0.0,0.0,0.0,0.0,0.0,0.0,0.0,0.0,0.0,0.0,0.0,0.0,0.0,0.0,0.0,0.0,0.0,0.0,0.0,0.0,0.0,0.0,0.0,0.0,0.0,0.0,0.0,0.0,0.0,0.0,0.0,0.0,0.0,0.0,0.0,0.0,0.0,0.0,0.0,0.0,0.0,0.0,0.0,0.0,0.0,0.0,0.0,0.0,0.0,0.0,0.0,0.0,0.0,0.0,0.0,0.0,0.0,0.0,0.0,0.0,0.0,0.0,0.0,0.0,0.0,0.0,0.0,0.0,0.0,0.0,0.0,0.0,0.0,0.0,0.0,0.0,0.0,0.0,0.0,0.0,0.0,0.0,0.0,0.0,0.0,0.0,0.0,0.0,0.0,0.0,0.0,0.0,0.0,0.0,0.0,0.0,0.0,0.0,0.0,0.0,0.0,0.0,0.0,0.0,0.0,0.0,0.0,0.0,0.0,0.0,0.0,0.0,0.0,0.0,0.0,0.0,0.0,0.0,0.0,0.0,0.0,0.0,0.0,0.0,0.0,0.0,0.0,0.0,0.0,0.0,0.0,0.0,0.0,0.0,0.0,0.0,0.0,0.0,0.0,0.0,0.0,0.0,0.0,0.0,0.0,0.0,0.0,0.0,0.0,0.0,0.0,0.0,0.0,0.0,0.0,0.0,0.0,0.0,0.0,0.0,0.0,0.0,0.0,0.0,0.0,0.0,0.0,0.0,0.0,0.0,0.0,0.0,0.0,0.0,0.0,0.0,0.0,0.0,0.0,0.0,0.0,0.0,0.0,0.0,0.0,0.0,0.0,0.0,0.0,0.0,0.0,0.0,0.0,0.0,0.0,0.0,0.0,0.0,0.0,0.0,0.0,0.0,0.0,0.0,0.0,0.0,0.0,0.0,0.0,0.0,0.0,0.0,0.0,0.0,0.0,0.0,0.0,0.0,0.0,0.0,0.0,0.0,0.0,0.0,0.0,0.0,0.0,0.0,0.0,0.0,0.0,0.0,0.0,0.0,0.0,0.0,0.0,0.0,0.0,0.0,0.0,0.0,0.0,0.0,0.0,0.0,0.0,0.0,0.0,0.0,0.0,0.0,0.0,0.0,0.0,0.0,0.0,0.0,0.0,0.0,0.0,0.0,0.0,0.0,0.0,0.0,0.0,0.0,0.0,0.0,0.0,0.0,0.0,0.0,0.0,0.0,0.0,0.0,0.0,0.0,0.0,0.0,0.0,0.0,0.0,0.0,0.0,0.0,0.0,0.0,0.0,0.0,0.0,0.0,0.0,0.0,0.0,0.0,0.0,0.0,0.0,0.0,0.0,0.0,0.0,0.0,0.0,0.0,0.0,0.0,0.0,0.0,0.0,0.0,0.0,0.0,0.0,0.0,0.0,0.0,0.0,0.0,0.0,0.0,0.0,0.0,0.0,0.0,0.0,0.0,0.0,0.0,0.0,0.0,0.0,0.0,0.0,0.0,0.0,0.0,0.0,0.0,0.0,0.0,0.0,0.0,0.0,0.0,0.0,0.0,0.0,0.0,0.0,0.0,0.0,0.0,0.0,0.0,0.0,0.0,0.0,0.0,0.0,0.0,0.0,0.0,0.0,0.0,0.0,0.0,0.0,0.0,0.0,0.0,0.0,0.0,0.0,0.0,0.0,0.0,0.0,0.0,0.0,0.0,0.0,0.0,0.0,0.0,0.0,0.0,0.0,0.0,0.0,0.0,0.0,0.0,0.0,0.0,0.0,0.0,0.0,0.0,0.0,0.0,0.0,0.0,0.0,0.0,0.0,0.0,0.0,0.0,0.0,0.0,0.0,0.0,0.0,0.0,0.0,0.0,0.0,0.0,0.0,0.0,0.0,0.0,0.0,0.0,0.0,0.0,0.0,0.0,0.0,0.0,0.0,0.0,0.0,0.0,0.0,0.0,0.0,0.0,0.0,0.0,0.0,0.0,0.0,0.0,0.0,0.0,0.0,0.0,0.0,0.0,0.0,0.0,0.0,0.0,0.0,0.0,0.0,0.0,0.0,0.0,0.0,0.0,0.0,0.0,0.0,0.0,0.0,0.0,0.0,0.0,0.0,0.0,0.0,0.0,0.0,0.0,0.0,0.0,0.0,0.0,0.0,0.0,0.0,0.0,0.0,0.0,0.0,0.0,0.0,0.0,0.0,0.0,0.0,0.0,0.0,0.0,0.0,0.0,0.0,0.0,0.0,0.0,0.0,0.0,0.0,0.0,0.0,0.0,0.0,0.0,0.0,0.0,0.0,0.0,0.0,0.0,0.0,0.0,0.0,0.0,0.0,0.0,0.0,0.0,0.0,0.0,0.0,0.0,0.0,0.0,0.0,0.0,0.0,0.0,0.0,0.0,0.0,0.0,0.0,0.0,0.0,0.0,0.0,0.0,0.0,0.0,0.0,0.0,0.0,0.0,0.0,0.0,0.0,0.0,0.0,0.0,0.0,0.0,0.0,0.0,0.0,0.0,0.0,0.0,0.0,0.0,0.0,0.0,0.0,0.0,0.0,0.0,0.0,0.0,0.0,0.0,0.0,0.0,0.0,0.0,0.0,0.0,0.0,0.0,0.0,0.0,0.0,0.0,0.0,0.0,0.0,0.0,0.0,0.0,0.0,0.0,0.0,0.0,0.0,0.0,0.0,0.0,0.0,0.0,0.0,0.0,0.0,0.0,0.0,0.0,0.0,0.0,0.9408,0.0,0.0,0.0,0.0,0.0,0.0,0.0,0.0,0.0,0.0,0.0,0.0,0.0,0.0,0.0,0.0,0.0,0.0,0.0,0.0,0.0,0.0,0.0,0.0,0.0,0.0,0.0,0.0,0.0,0.0,0.0,0.0,0.0,0.0,0.0,0.0,0.0,0.0,0.0,0.0,0.0,0.0,0.0,0.0,0.0,0.0,0.0,0.0,0.0,0.0,0.0,0.0,0.0,0.0,0.0,0.0,0.0,0.0,0.0,0.0,0.0,0.0,0.0,0.0,0.0,0.0,0.0,0.0,0.0,0.0,0.0,0.0,0.0,0.0,0.0,0.0,0.0,0.0,0.0,0.0,0.0,0.0,0.0,0.0,0.0,0.0,0.0,0.0,0.0,0.0,0.0,0.0,0.0,0.0,0.0,0.0,0.0,0.0,0.0,0.0,0.0,0.0,0.0,0.0,0.0,0.0,0.0,0.0,0.0,0.0,0.9673,0.9659,0.9673,0.9764,0.9944,0.0,0.0,0.0,0.0,0.0,0.0,0.0,0.0,0.0,0.0,0.0,0.0,0.0,0.0,0.0,0.0,0.0,0.0,0.0,0.0,0.0,0.0,0.0,0.0,0.0,0.0,0.0,0.0,0.0,0.0,0.0,0.0,0.0,0.0,0.0,0.0,0.0,0.0,0.0,0.0,0.0,0.0,0.0,0.0,0.0,0.0,0.0,0.0,0.0,0.0,0.0,0.0,0.0,0.0,0.0,0.0,0.0,0.0,0.0,0.0,0.0,0.0,0.0,0.0,0.0,0.0,0.0,0.0,0.0,0.0,0.0,0.0,0.0,0.0,0.0,0.0,0.0,0.0,0.0,0.0,0.0,0.0,0.0,0.0,0.0,0.0,0.0,0.0,0.0,0.0,0.0,0.0,0.0,0.0,0.0,0.0,0.0,0.0,0.0,0.0,0.0,0.0,0.0,0.0,0.0,0.0,0.0,0.0,0.0,0.0,0.0,0.0,1.0282,1.0415,1.0651,0.0,0.0,0.0,0.0,0.0,0.0,0.0,0.0,0.0,0.0,0.0,0.0,0.0,0.0,0.0,0.0,0.0,0.0,0.0,0.0,0.0,0.0,0.0,0.0,0.0,0.0,0.0,0.0,0.0,0.0,0.0,0.0,0.0,0.0,0.0,0.0,0.0,0.0,0.0,0.0,0.0,0.0,0.0,0.0,0.0,0.0,0.0,0.0,0.0,0.0,0.0,0.0,0.0,0.0,0.0,0.0,0.0,0.0,0.0,0.0,0.0,0.0,0.0,0.0,0.0,0.0,0.0,0.0,0.0,0.0,0.0,0.0,0.0,0.0,0.0,0.0,0.0,0.0,0.0,0.0,0.0,0.0,0.0,0.0,0.0,0.0,0.0,0.0,0.0,0.0,0.0,0.0,0.0,0.0,0.0,0.0,0.0,0.0,0.0,0.0,0.0,0.0,0.0,0.0,0.0,0.0,0.0,0.0,0.0,0.0,1.0395,1.1414,1.1439,0.0,1.1499,0.0,0.0,0.0,0.0,0.0,0.0,0.0,0.0,0.0,0.0,0.0,0.0,0.0,0.0,0.0,0.0,0.0,0.0,0.0,0.0,0.0,0.0,0.0,0.0,0.0,0.0,0.0,0.0,0.0,0.0,0.0,0.0,0.0,0.0,0.0,0.0,0.0,0.0,0.0,0.0,0.0,0.0,0.0,0.0,0.0,0.0,0.0,0.0,0.0,0.0,0.0,0.0,0.0,0.0,0.0,0.0,0.0,0.0,0.0,0.0,0.0,0.0,0.0,0.0,0.0,0.0,0.0,0.0,0.0,0.0,0.0,0.0,0.0,0.0,0.0,0.0,0.0,0.0,0.0,0.0,0.0,0.0,0.0,0.0,0.0,0.0,0.0,0.0,0.0,0.0,0.0,0.0,0.0,0.0,0.0,0.0,0.0,0.0,0.0,0.0,0.0,0.0,0.0,0.0,0.0,0.0,0.0,0.0,0.0,0.0,0.0,1.1837,1.2039,1.2054,0.0,0.0,0.0,0.0,0.0,0.0,0.0,0.0,0.0,0.0,0.0,0.0,0.0,0.0,0.0,0.0,0.0,0.0,0.0,0.0,0.0,0.0,0.0,0.0,0.0,0.0,0.0,0.0,0.0,0.0,0.0,0.0,0.0,0.0,0.0,0.0,0.0,0.0,0.0,0.0,0.0,0.0,0.0,0.0,0.0,0.0,0.0,0.0,0.0,0.0,0.0,0.0,0.0,0.0,0.0,0.0,0.0,0.0,0.0,0.0,0.0,0.0,0.0,0.0,0.0,0.0,0.0,0.0,0.0,0.0,0.0,0.0,0.0,0.0,0.0,0.0,0.0,0.0,0.0,0.0,0.0,0.0,0.0,0.0,0.0,0.0,0.0,0.0,0.0,0.0,0.0,0.0,0.0,0.0,0.0,0.0,0.0,0.0,0.0,0.0,0.0,0.0,0.0,0.0,0.0,0.0,0.0,0.0,0.0,0.0,1.2628,0.0,1.2577,1.293,1.2752,1.1936,0.0,0.0,0.0,0.0,0.0,0.0,0.0,0.0,0.0,0.0,0.0,0.0,0.0,0.0,0.0,0.0,0.0,0.0,0.0,0.0,0.0,0.0,0.0,0.0,0.0,0.0,0.0,0.0,0.0,0.0,0.0,0.0,0.0,0.0,0.0,0.0,0.0,0.0,0.0,0.0,0.0,0.0,0.0,0.0,0.0,0.0,0.0,0.0,0.0,0.0,0.0,0.0,0.0,0.0,0.0,0.0,0.0,0.0,0.0,0.0,0.0,0.0,0.0,0.0,0.0,0.0,0.0,0.0,0.0,0.0,0.0,0.0,0.0,0.0,0.0,0.0,0.0,0.0,0.0,0.0,0.0,0.0,0.0,0.0,0.0,0.0,0.0,0.0,0.0,0.0,0.0,0.0,0.0,0.0,0.0,0.0,0.0,0.0,0.0,0.0,0.0,0.0,0.0,0.0,0.0,0.0,0.0,0.0,0.0,1.346,1.3159,1.3883,1.4389,1.3727,0.0,0.0,0.0,0.0,0.0,0.0,0.0,0.0,0.0,0.0,0.0,0.0,0.0,0.0,0.0,0.0,0.0,0.0,0.0,0.0,0.0,0.0,0.0,0.0,0.0,0.0,0.0,0.0,0.0,0.0,0.0,0.0,0.0,0.0,0.0,0.0,0.0,0.0,0.0,0.0,0.0,0.0,0.0,0.0,0.0,0.0,0.0,0.0,0.0,0.0,0.0,0.0,0.0,0.0,0.0,0.0,0.0,0.0,0.0,0.0,0.0,0.0,0.0,0.0,0.0,0.0,0.0,0.0,0.0,0.0,0.0,0.0,0.0,0.0,0.0,0.0,0.0,0.0,0.0,0.0,0.0,0.0,0.0,0.0,0.0,0.0,0.0,0.0,0.0,0.0,0.0,0.0,0.0,0.0,0.0,0.0,0.0,0.0,0.0,0.0,0.0,0.0,0.0,0.0,0.0,0.0,0.0,0.0,0.0,1.2325,1.2307,1.3287,1.5202,1.3844,1.2999,0.0,0.0,0.0,0.0,0.0,0.0,0.0,0.0,0.0,0.0,0.0,0.0,0.0,0.0,0.0,0.0,0.0,0.0,0.0,0.0,0.0,0.0,0.0,0.0,0.0,0.0,0.0,0.0,0.0,0.0,0.0,0.0,0.0,0.0,0.0,0.0,0.0,0.0,0.0,0.0,0.0,0.0,0.0,0.0,0.0,0.0,0.0,0.0,0.0,0.0,0.0,0.0,0.0,0.0,0.0,0.0,0.0,0.0,0.0,0.0,0.0,0.0,0.0,0.0,0.0,0.0,0.0,0.0,0.0,0.0,0.0,0.0,0.0,0.0,0.0,0.0,0.0,0.0,0.0,0.0,0.0,0.0,0.0,0.0,0.0,0.0,0.0,0.0,0.0,0.0,0.0,0.0,0.0,0.0,0.0,0.0,0.0,0.0,0.0,0.0,0.0,0.0,0.0,0.0,0.0,0.0,0.0,0.0,0.0,1.2057,0.0,1.3943,0.0,1.364,1.2588,0.0,0.0,0.0,0.0,0.0,0.0,0.0,0.0,0.0,0.0,0.0,0.0,0.0,0.0,0.0,0.0,0.0,0.0,0.0,0.0,0.0,0.0,0.0,0.0,0.0,0.0,0.0,0.0,0.0,0.0,0.0,0.0,0.0,0.0,0.0,0.0,0.0,0.0,0.0,0.0,0.0,0.0,0.0,0.0,0.0,0.0,0.0,0.0,0.0,0.0,0.0,0.0,0.0,0.0,0.0,0.0,0.0,0.0,0.0,0.0,0.0,0.0,0.0,0.0,0.0,0.0,0.0,0.0,0.0,0.0,0.0,0.0,0.0,0.0,0.0,0.0,0.0,0.0,0.0,0.0,0.0,0.0,0.0,0.0,0.0,0.0,0.0,0.0,0.0,0.0,0.0,0.0,0.0,0.0,0.0,0.0,0.0,0.0,0.0,0.0,0.0,0.0,0.0,0.0,0.0,0.0,0.0,0.0,0.0,1.4302,1.5169,1.5087,1.4109,1.3992,1.2714,0.0,0.0,0.0,0.0,0.0,0.0,0.0,0.0,0.0,0.0,0.0,0.0,0.0,0.0,0.0,0.0,0.0,0.0,0.0,0.0,0.0,0.0,0.0,0.0,0.0,0.0,0.0,0.0,0.0,0.0,0.0,0.0,0.0,0.0,0.0,0.0,0.0,0.0,0.0,0.0,0.0,0.0,0.0,0.0,0.0,0.0,0.0,0.0,0.0,0.0,0.0,0.0,0.0,0.0,0.0,0.0,0.0,0.0,0.0,0.0,0.0,0.0,0.0,0.0,0.0,0.0,0.0,0.0,0.0,0.0,0.0,0.0,0.0,0.0,0.0,0.0,0.0,0.0,0.0,0.0,0.0,0.0,0.0,0.0,0.0,0.0,0.0,0.0,0.0,0.0,0.0,0.0,0.0,0.0,0.0,0.0,0.0,0.0,0.0,0.0,0.0,0.0,0.0,0.0,0.0,0.0,0.0,0.0,0.0,1.2801,1.4286,1.5417,1.6037,1.4212,1.3272,0.0,0.0,0.0,0.0,0.0,0.0,0.0,0.0,0.0,0.0,0.0,0.0,0.0,0.0,0.0,0.0,0.0,0.0,0.0,0.0,0.0,0.0,0.0,0.0,0.0,0.0,0.0,0.0,0.0,0.0,0.0,0.0,0.0,0.0,0.0,0.0,0.0,0.0,0.0,0.0,0.0,0.0,0.0,0.0,0.0,0.0,0.0,0.0,0.0,0.0,0.0,0.0,0.0,0.0,0.0,0.0,0.0,0.0,0.0,0.0,0.0,0.0,0.0,0.0,0.0,0.0,0.0,0.0,0.0,0.0,0.0,0.0,0.0,0.0,0.0,0.0,0.0,0.0,0.0,0.0,0.0,0.0,0.0,0.0,0.0,0.0,0.0,0.0,0.0,0.0,0.0,0.0,0.0,0.0,0.0,0.0,0.0,0.0,0.0,0.0,0.0,0.0,0.0,0.0,0.0,0.0,0.0,0.0,0.0,1.3766,1.547,1.6556,1.6872,1.5123,1.4176,1.4119,0.0,0.0,0.0,0.0,0.0,0.0,0.0,0.0,0.0,0.0,0.0,0.0,0.0,0.0,0.0,0.0,0.0,0.0,0.0,0.0,0.0,0.0,0.0,0.0,0.0,0.0,0.0,0.0,0.0,0.0,0.0,0.0,0.0,0.0,0.0,0.0,0.0,0.0,0.0,0.0,0.0,0.0,0.0,0.0,0.0,0.0,0.0,0.0,0.0,0.0,0.0,0.0,0.0,0.0,0.0,0.0,0.0,0.0,0.0,0.0,0.0,0.0,0.0,0.0,0.0,0.0,0.0,0.0,0.0,0.0,0.0,0.0,0.0,0.0,0.0,0.0,0.0,0.0,0.0,0.0,0.0,0.0,0.0,0.0,0.0,0.0,0.0,0.0,0.0,0.0,0.0,0.0,0.0,0.0,0.0,0.0,0.0,0.0,0.0,0.0,0.0,0.0,0.0,0.0,0.0,0.0,0.0,0.0,1.6638,1.8409,1.8552,1.6924,1.6702,1.5494,0.0,0.0,0.0,0.0,0.0,0.0,0.0,0.0,0.0,0.0,0.0,0.0,0.0,0.0,0.0,0.0,0.0,0.0,0.0,0.0,0.0,0.0,0.0,0.0,0.0,0.0,0.0,0.0,0.0,0.0,0.0,0.0,0.0,0.0,0.0,0.0,0.0,0.0,0.0,0.0,0.0,0.0,0.0,0.0,0.0,0.0,0.0,0.0,0.0,0.0,0.0,0.0,0.0,0.0,0.0,0.0,0.0,0.0,0.0,0.0,0.0,0.0,0.0,0.0,0.0,0.0,0.0,0.0,0.0,0.0,0.0,0.0,0.0,0.0,0.0,0.0,0.0,0.0,0.0,0.0,0.0,0.0,0.0,0.0,0.0,0.0,0.0,0.0,0.0,0.0,0.0,0.0,0.0,0.0,0.0,0.0,0.0,0.0,0.0,0.0,0.0,0.0,0.0,0.0,0.0,0.0,0.0,0.0,0.0,1.8366,2.1019,2.1766,2.0379,1.8913,1.7514,0.0,0.0,0.0,0.0,0.0,0.0,0.0,0.0,0.0,0.0,0.0,0.0,0.0,0.0,0.0,0.0,0.0,0.0,0.0,0.0,0.0,0.0,0.0,0.0,0.0,0.0,0.0,0.0,0.0,0.0,0.0,0.0,0.0,0.0,0.0,0.0,0.0,0.0,0.0,0.0,0.0,0.0,0.0,0.0,0.0,0.0,0.0,0.0,0.0,0.0,0.0,0.0,0.0,0.0,0.0,0.0,0.0,0.0,0.0,0.0,0.0,0.0,0.0,0.0,0.0,0.0,0.0,0.0,0.0,0.0,0.0,0.0,0.0,0.0,0.0,0.0,0.0,0.0,0.0,0.0,0.0,0.0,0.0,0.0,0.0,0.0,0.0,0.0,0.0,0.0,0.0,0.0,0.0,0.0,0.0,0.0,0.0,0.0,0.0,0.0,0.0,0.0,0.0,0.0,0.0,0.0,0.0,0.0,1.7951,2.0129,2.2919,2.402,2.3305,2.1679,1.9704,0.0,0.0,0.0,0.0,0.0,0.0,0.0,0.0,0.0,0.0,0.0,0.0,0.0,0.0,0.0,0.0,0.0,0.0,0.0,0.0,0.0,0.0,0.0,0.0,0.0,0.0,0.0,0.0,0.0,0.0,0.0,0.0,0.0,0.0,0.0,0.0,0.0,0.0,0.0,0.0,0.0,0.0,0.0,0.0,0.0,0.0,0.0,0.0,0.0,0.0,0.0,0.0,0.0,0.0,0.0,0.0,0.0,0.0,0.0,0.0,0.0,0.0,0.0,0.0,0.0,0.0,0.0,0.0,0.0,0.0,0.0,0.0,0.0,0.0,0.0,0.0,0.0,0.0,0.0,0.0,0.0,0.0,0.0,0.0,0.0,0.0,0.0,0.0,0.0,0.0,0.0,0.0,0.0,0.0,0.0,0.0,0.0,0.0,0.0,0.0,0.0,0.0,0.0,0.0,0.0,0.0,0.0,0.0,1.9147,2.1902,2.4299,2.5501,2.5477,2.4271,2.1814,0.0,0.0,0.0,0.0,0.0,0.0,0.0,0.0,0.0,0.0,0.0,0.0,0.0,0.0,0.0,0.0,0.0,0.0,0.0,0.0,0.0,0.0,0.0,0.0,0.0,0.0,0.0,0.0,0.0,0.0,0.0,0.0,0.0,0.0,0.0,0.0,0.0,0.0,0.0,0.0,0.0,0.0,0.0,0.0,0.0,0.0,0.0,0.0,0.0,0.0,0.0,0.0,0.0,0.0,0.0,0.0,0.0,0.0,0.0,0.0,0.0,0.0,0.0,0.0,0.0,0.0,0.0,0.0,0.0,0.0,0.0,0.0,0.0,0.0,0.0,0.0,0.0,0.0,0.0,0.0,0.0,0.0,0.0,0.0,0.0,0.0,0.0,0.0,0.0,0.0,0.0,0.0,0.0,0.0,0.0,0.0,0.0,0.0,0.0,0.0,0.0,0.0,0.0,0.0,0.0,0.0,0.0,0.0,2.1152,2.3041,2.5159,2.6021,2.5491,2.4271,2.2233,0.0,0.0,0.0,0.0,0.0,0.0,0.0,0.0,0.0,0.0,0.0,0.0,0.0,0.0,0.0,0.0,0.0,0.0,0.0,0.0,0.0,0.0,0.0,0.0,0.0,0.0,0.0,0.0,0.0,0.0,0.0,0.0,0.0,0.0,0.0,0.0,0.0,0.0,0.0,0.0,0.0,0.0,0.0,0.0,0.0,0.0,0.0,0.0,0.9517,0.0,0.0,0.0,0.0,0.0,0.0,0.0,0.0,0.0,0.0,0.0,0.0,0.0,0.0,0.0,0.0,0.0,0.0,0.0,0.0,0.0,0.0,0.0,0.0,0.0,0.0,0.0,0.0,0.0,0.0,0.0,0.0,0.0,0.0,0.0,0.0,0.0,0.0,0.0,0.0,0.0,0.0,0.0,0.0,0.0,0.0,0.0,0.0,0.0,0.0,0.0,0.0,0.0,0.0,0.0,0.0,0.0,0.0,0.0,2.2567,2.4845,2.6275,2.6985,2.6905,2.5381,2.3161,0.0,0.0,0.0,0.0,0.0,0.0,0.0,0.0,0.0,0.0,0.0,0.0,0.0,0.0,0.0,0.0,0.0,0.0,0.0,0.0,0.0,0.0,0.0,0.0,0.0,0.0,0.0,0.0,0.0,0.0,0.0,0.0,0.0,0.0,0.0,0.0,0.0,0.0,0.0,0.0,0.0,0.0,0.0,0.0,0.0,0.0,0.0,0.0,0.0,0.0,0.0,0.0,0.0,0.0,0.0,0.0,0.0,0.0,0.0,0.0,0.0,0.0,0.0,0.0,0.0,0.0,0.0,0.0,0.0,0.0,0.0,0.0,0.0,0.0,0.0,0.0,0.0,0.0,0.0,0.0,0.0,0.0,0.0,0.0,0.0,0.0,0.0,0.0,0.0,0.0,0.0,0.0,0.0,0.0,0.0,0.0,0.0,0.0,0.0,0.0,0.0,0.0,0.0,0.0,0.0,0.0,0.0,2.0785,2.3616,2.6748,2.7405,2.7964,2.8536,2.6662,2.4096,2.0972,0.0,0.0,0.0,0.0,0.0,0.0,0.0,0.0,0.0,0.0,0.0,0.0,0.0,0.0,0.0,0.0,0.0,0.0,0.0,0.0,0.0,0.0,0.0,0.0,0.0,0.0,0.0,0.0,0.0,0.0,0.0,0.0,0.0,0.0,0.0,0.0,0.0,0.0,0.9899,1.182,0.0,0.0,0.0,0.0,0.0,0.0,0.0,0.0,1.0216,0.0,0.0,0.0,0.0,0.0,0.0,0.0,0.0,0.0,0.0,0.0,0.0,0.0,0.0,0.0,0.0,0.0,0.0,0.0,0.0,0.0,0.0,0.0,0.0,0.0,0.0,0.0,0.0,0.0,0.0,0.0,0.0,0.0,0.0,0.0,0.0,0.0,0.0,0.0,0.0,0.0,0.0,0.0,0.0,0.0,0.0,0.0,0.0,0.0,0.0,0.0,0.0,0.0,0.0,0.0,0.0,2.1109,2.2278,2.4535,2.7992,2.8319,2.8487,2.8547,2.6662,2.4328,2.1635,0.0,0.0,0.0,0.0,0.0,0.0,0.0,0.0,0.0,0.0,0.0,0.0,0.0,0.0,0.0,0.0,0.0,0.0,0.0,0.0,0.0,0.0,0.0,0.0,0.0,0.0,0.0,0.0,0.0,0.0,0.0,0.0,0.0,0.0,0.0,0.0,0.0,0.0,0.0,1.3351,1.425,0.0,0.0,0.0,0.0,0.0,0.0,0.0,0.0,1.0828,0.0,0.0,0.0,0.0,0.0,0.0,0.0,0.0,0.0,0.0,0.0,0.0,0.0,0.0,0.0,0.0,0.0,0.0,0.0,0.0,0.0,0.0,0.0,0.0,0.0,0.0,0.0,0.0,0.0,0.0,0.0,0.0,0.0,0.0,0.0,0.0,0.0,0.0,0.0,0.0,0.0,0.0,0.0,0.0,0.0,0.0,0.0,0.0,0.0,0.0,0.0,0.0,0.0,0.0,0.0,2.1502,2.4094,2.672,2.9395,2.9565,2.943,2.9056,2.6497,2.4007,0.0,0.0,0.0,0.0,0.0,0.0,0.0,0.0,0.0,0.0,0.0,0.0,0.0,0.0,0.0,0.0,0.0,0.0,0.0,0.0,0.0,0.0,0.0,0.0,0.0,0.0,0.0,0.0,0.0,0.0,0.0,0.0,0.0,0.0,0.0,0.0,0.0,0.0,0.0,0.0,1.3756,1.4347,1.4272,0.0,0.0,0.0,0.0,0.0,0.0,1.1495,1.1403,0.0,0.0,0.0,0.0,0.0,0.0,0.0,0.0,0.0,0.0,0.0,0.0,0.0,0.0,0.0,0.0,0.0,0.0,0.0,0.0,0.0,0.0,0.0,0.0,0.0,0.0,0.0,0.0,0.0,0.0,0.0,0.0,0.0,0.0,0.0,0.0,0.0,0.0,0.0,0.0,0.0,0.0,0.0,0.0,0.0,0.0,0.0,0.0,0.0,0.0,0.0,0.0,0.0,0.0,0.0,2.1761,2.5384,2.8387,3.0584,3.0582,3.0208,2.9549,2.6617,2.3969,0.0,0.0,0.0,0.0,0.0,0.0,0.0,0.0,0.0,0.0,0.0,0.0,0.0,0.0,0.0,0.0,0.0,0.0,0.0,0.0,0.0,0.0,0.0,0.0,0.0,0.0,0.0,0.0,0.0,0.0,0.0,0.0,0.0,0.0,0.0,0.0,0.0,0.0,0.0,0.0,0.0,1.4677,1.4453,1.3558,0.0,0.0,0.0,0.0,1.2403,1.2508,0.0,0.0,0.0,0.0,0.0,0.0,0.0,0.0,0.0,0.0,0.0,0.0,0.0,0.0,0.0,0.0,0.0,0.0,0.0,0.0,0.0,0.0,0.0,0.0,0.0,0.0,0.0,0.0,0.0,0.0,0.0,0.0,0.0,0.0,0.0,0.0,0.0,0.0,0.0,0.0,0.0,0.0,0.0,0.0,0.0,0.0,0.0,0.0,0.0,0.0,0.0,0.0,0.0,0.0,0.0,0.0,2.2843,2.5084,2.7889,3.1153,3.0793,3.0208,2.9606,2.7485,2.4919,0.0,0.0,0.0,0.0,0.0,0.0,0.0,0.0,0.0,0.0,0.0,0.0,0.0,0.0,0.0,0.0,0.0,0.0,0.0,0.0,0.0,0.0,0.0,0.0,0.0,0.0,0.0,0.0,0.0,0.0,0.0,0.0,0.0,0.0,0.0,0.0,0.0,0.0,0.0,0.0,0.0,1.5994,1.4358,1.4861,1.4955,0.0,0.0,0.0,1.4466,1.4946,0.0,0.0,0.0,0.0,0.0,0.0,0.0,0.0,0.0,0.0,0.0,0.0,0.0,0.0,0.0,0.0,0.0,0.0,0.0,0.0,0.0,0.0,0.0,0.0,0.0,0.0,0.0,0.0,0.0,0.0,0.0,0.0,0.0,0.0,0.0,0.0,0.0,0.0,0.0,0.0,0.0,0.0,0.0,0.0,0.0,0.0,0.0,0.0,0.0,0.0,0.0,0.0,0.0,0.0,0.0,1.9562,2.3168,2.674,2.9493,3.1421,3.1212,3.0612,2.9621,2.7275,2.4672,0.0,0.0,0.0,0.0,0.0,0.0,0.0,0.0,0.0,0.0,0.0,0.0,0.0,0.0,0.0,0.0,0.0,0.0,0.0,0.0,0.0,0.0,0.0,0.0,0.0,0.0,0.0,0.0,0.0,0.0,0.0,0.0,0.0,0.0,0.0,0.0,0.0,0.0,0.0,0.0,0.0,0.0,1.4915,1.5343,0.0,0.0,0.0,1.547,1.583,0.0,0.0,0.0,0.0,0.0,0.0,0.0,0.0,0.0,0.0,0.0,0.0,0.0,0.0,0.0,0.0,0.0,0.0,0.0,0.0,0.0,0.0,0.0,0.0,0.0,0.0,0.0,0.0,0.0,0.0,0.0,0.0,0.0,0.0,0.0,0.0,0.0,0.0,0.0,0.0,0.0,0.0,0.0,0.0,0.0,0.0,0.0,0.0,0.0,0.0,0.0,0.0,0.0,0.0,0.0,0.0,0.0,2.3427,2.8071,3.0808,3.1466,3.1496,3.0911,2.9621,2.732,0.0,0.0,0.0,0.0,0.0,0.0,0.0,0.0,0.0,0.0,0.0,0.0,0.0,0.0,0.0,0.0,0.0,0.0,0.0,0.0,0.0,0.0,0.0,0.0,0.0,0.0,0.0,0.6591,0.0,0.0,0.0,0.0,0.0,0.0,0.0,0.0,0.0,0.0,0.0,0.0,0.0,0.0,1.6835,1.5677,1.6239,1.6892,0.0,0.0,1.6578,1.6891,1.6862,1.6398,0.0,0.0,0.0,0.0,0.0,0.0,0.0,0.0,0.0,0.0,0.0,0.0,0.0,0.0,0.0,0.0,0.0,0.0,0.0,0.0,0.0,0.0,0.0,0.0,0.0,0.0,0.0,0.0,0.0,0.0,0.0,0.0,0.0,0.0,0.0,0.0,0.0,0.0,0.0,0.0,0.0,0.0,0.0,0.0,0.0,0.0,0.0,0.0,0.0,0.0,0.0,0.0,0.0,0.0,0.0,2.3985,2.8265,3.0866,3.1481,3.1496,3.0883,2.9636,2.8214,2.563,0.0,0.0,0.0,0.0,0.0,0.0,0.0,0.0,0.0,0.0,0.0,0.0,0.0,0.0,0.0,0.0,0.0,0.0,0.0,0.0,0.0,0.0,0.0,0.0,0.0,0.0,0.0,0.0,0.0,0.0,0.0,0.0,0.0,0.0,0.0,0.0,0.0,0.0,0.0,0.0,0.0,1.8182,1.662,1.8156,1.9016,0.0,0.0,1.809,1.7699,1.864,1.839,1.5334,0.0,0.0,0.0,0.0,0.0,0.0,0.0,0.0,0.0,0.0,0.0,0.0,0.0,0.0,0.0,0.0,0.0,0.0,0.0,0.0,0.0,0.0,0.0,0.0,0.0,0.0,0.0,0.0,0.0,0.0,0.0,0.0,0.0,0.0,0.0,0.0,0.0,0.0,0.0,0.0,0.0,0.0,0.0,0.0,0.0,0.0,0.0,0.0,0.0,0.0,0.0,0.0,0.0,2.2333,2.462,2.9307,3.1884,3.2093,3.2108,3.1509,3.0178,2.8891,2.6527,0.0,0.0,0.0,0.0,0.0,0.0,0.0,0.0,0.0,0.0,0.0,0.0,0.0,0.0,0.0,0.0,0.0,0.0,0.0,0.0,0.0,0.0,0.0,0.0,0.0,0.0,0.0,0.0,0.9251,0.9355,0.9536,0.0,0.0,0.0,0.0,0.0,0.0,0.0,0.0,0.0,0.0,1.9234,1.8787,1.9997,0.0,0.0,1.9059,1.8415,1.8972,1.8223,1.7127,1.5749,1.492,0.0,0.0,0.0,0.0,0.0,0.0,0.0,0.0,0.0,0.0,0.0,0.0,0.0,0.0,0.0,0.0,0.0,0.0,0.0,0.0,0.0,0.0,0.0,0.0,0.0,0.0,0.0,0.0,0.0,0.0,0.0,0.0,0.0,0.0,0.0,0.0,0.0,0.0,0.0,0.0,0.0,0.0,0.0,0.0,0.0,0.0,0.0,0.0,0.0,0.0,0.0,0.0,2.3213,2.524,3.0014,3.2497,3.2497,3.2497,3.1884,3.0537,2.9265,2.7126,0.0,0.0,0.0,0.0,0.0,0.0,0.0,0.0,0.0,0.0,0.0,0.0,0.0,0.0,0.0,0.0,0.0,0.0,0.0,0.0,0.0,0.0,0.0,0.0,0.0,0.0,0.0,0.0,1.029,1.0258,1.0105,0.0,0.0,0.0,0.0,0.0,0.0,0.0,0.0,0.0,0.0,2.0178,2.0697,2.1624,2.2173,2.1919,2.0229,1.9255,2.0006,1.8711,1.7352,1.6632,0.0,0.0,0.0,0.0,0.0,0.0,0.0,0.0,0.0,0.0,0.0,0.0,0.0,0.0,0.0,0.0,0.0,0.0,0.0,0.0,0.0,0.0,0.0,0.0,0.0,0.0,0.0,0.0,0.0,0.0,1.7637,0.0,0.0,0.0,0.0,0.0,0.0,0.0,0.0,0.0,0.0,0.0,0.0,0.0,0.0,0.0,0.0,0.0,0.0,0.0,0.0,0.0,0.0,0.0,2.5794,3.0249,3.2512,3.2542,3.2497,3.1869,3.0582,2.928,2.7325,2.4619,0.0,0.0,0.0,0.0,0.0,0.0,0.0,0.0,0.0,0.0,0.0,0.0,0.0,0.0,0.0,0.0,0.0,0.0,0.0,0.0,0.0,0.0,0.0,0.0,0.0,0.0,1.0022,1.0038,1.0134,0.0,0.0,0.0,0.0,0.0,0.0,0.0,0.0,0.0,0.0,1.9836,2.1062,2.2103,2.299,2.3221,2.2413,2.1491,2.0878,2.0725,2.0586,1.9937,0.0,0.0,0.0,0.0,0.0,0.0,0.0,0.0,0.0,0.0,0.0,0.0,0.0,0.0,0.0,0.0,0.0,0.0,0.0,0.0,0.0,0.0,0.0,0.0,0.0,0.0,0.0,2.2388,2.173,0.0,0.0,0.0,0.0,0.0,0.0,0.0,0.0,0.0,0.0,0.0,2.7817,2.9646,0.0,0.0,0.0,0.0,0.0,0.0,0.0,0.0,0.0,0.0,0.0,0.0,2.4679,2.6565,3.0881,3.338,3.3784,3.3395,3.2736,3.1869,3.0567,2.8008,2.4073,0.0,0.0,0.0,0.0,0.0,0.0,0.0,0.0,0.0,0.0,0.0,0.0,0.0,0.0,0.0,0.0,0.0,0.0,0.0,0.0,0.0,0.0,0.0,0.0,0.0,1.1375,0.0,0.0,0.0,0.0,0.0,0.0,0.0,0.0,0.0,0.0,0.0,1.8463,2.0438,2.1475,2.2293,2.3056,2.3415,2.349,0.0,0.0,0.0,0.0,0.0,0.0,0.0,0.0,0.0,0.0,0.0,0.0,0.0,0.0,1.7939,1.4453,1.3438,1.3196,1.3421,0.0,0.0,0.0,0.0,0.0,0.0,0.0,0.0,0.0,0.0,0.0,0.0,0.0,0.0,0.0,0.0,2.4903,0.0,0.0,0.0,0.0,0.0,0.0,0.0,0.0,2.9653,3.1529,3.1719,3.3389,3.317,0.0,3.0655,2.7974,0.0,0.0,0.0,0.0,0.0,0.0,0.0,0.0,2.6207,2.8197,3.1899,3.4084,3.4459,3.3829,3.3185,3.2512,3.0791,2.8218,2.4747,2.2295,2.0152,0.0,0.0,0.0,0.0,0.0,0.0,0.0,0.0,0.0,0.0,0.0,0.0,0.0,0.0,0.0,0.0,0.0,0.0,0.0,0.0,0.0,0.0,0.0,1.2224,0.0,0.0,0.0,0.0,0.0,0.0,0.0,0.0,0.0,1.7025,1.8416,2.0139,2.2099,2.2553,2.3002,2.3849,0.0,0.0,0.0,0.0,0.0,0.0,0.0,2.0563,2.0834,2.0387,2.0022,2.0042,1.8824,1.833,1.9794,0.0,0.0,1.7235,1.5995,1.5669,1.6114,1.6024,1.5979,1.6413,1.6847,1.6758,0.0,0.0,0.0,0.0,0.0,0.0,0.0,0.0,3.0154,3.045,0.0,2.9564,0.0,0.0,0.0,0.0,0.0,2.8866,0.0,0.0,3.4711,3.6207,3.5639,3.5669,3.5295,3.4683,3.519,3.3784,3.0432,2.5548,0.0,0.0,0.0,0.0,0.0,0.0,2.7976,3.0497,3.3148,3.4518,3.4533,3.3844,3.317,3.2407,3.0028,2.8053,2.6671,2.42,2.1999,2.0233,1.7624,0.0,0.0,0.0,0.0,0.0,0.0,0.0,0.0,0.0,0.0,0.0,0.0,0.0,0.0,0.0,0.0,0.0,0.0,0.0,0.0,1.246,0.0,0.0,0.0,0.0,0.0,0.0,0.0,0.0,0.0,0.0,1.8042,1.9612,2.148,2.337,0.0,0.0,0.0,0.0,2.3909,2.4545,2.4066,2.3872,2.4492,2.4552,2.4104,2.2966,0.0,0.0,2.1196,2.135,2.15,2.0957,2.2368,2.3206,2.1889,1.9982,1.9156,2.0205,1.8997,1.8349,1.9342,1.9447,1.9233,3.9854,0.0,0.0,0.0,0.0,3.4917,3.6101,3.765,3.7439,3.6907,3.6064,3.4324,0.0,0.0,0.0,0.0,0.0,0.0,3.2961,3.4772,3.6891,3.8003,3.8317,3.8766,3.8392,3.7285,3.6985,3.5893,3.4023,3.1584,2.7814,2.2892,0.0,0.0,0.0,0.0,2.9351,3.0673,3.3162,3.4743,3.5205,3.4083,3.2961,3.1809,3.0612,2.9355,2.8053,2.6402,2.4387,2.2059,2.0005,0.0,0.0,0.0,0.0,0.0,0.0,0.0,0.0,0.0,0.0,0.0,0.0,0.0,0.0,0.0,0.0,0.0,0.0,0.0,1.3109,1.3825,1.4496,0.0,0.0,0.0,0.0,0.0,0.0,0.0,0.0,0.0,2.125,2.2128,2.3161,0.0,0.0,2.4732,2.4619,2.4829,2.5083,2.5277,0.0,0.0,0.0,2.4903,2.4634,2.4747,2.4911,2.4837,2.4298,2.358,2.3161,2.3394,2.3535,2.346,2.3065,2.148,2.0376,2.055,1.9891,1.9329,1.9691,2.0104,2.0533,4.5813,4.1877,3.9946,3.937,3.9869,4.0305,4.1151,4.2232,4.2302,4.1743,4.0666,3.9245,3.7251,3.4919,3.2805,0.0,0.0,0.0,3.6212,3.795,3.9065,3.9783,4.0202,4.0337,3.9978,3.9155,3.8227,3.7404,3.6611,3.5325,3.2407,2.8049,0.0,0.0,2.6304,2.9211,3.1202,3.2178,3.3956,3.5085,3.5474,3.4188,3.2991,3.1929,3.1016,3.0028,2.9026,2.772,2.6042,2.3946,2.2129,2.0031,0.0,0.0,0.0,0.0,0.0,0.0,0.0,0.0,0.0,0.0,0.0,1.0867,0.0,0.0,0.0,0.0,1.2613,1.4171,1.5247,1.5949,0.0,0.0,0.0,0.0,0.0,0.0,0.0,2.0696,2.2039,2.3116,2.3781,2.4403,2.4941,2.5322,2.5525,2.5525,2.5315,0.0,2.5674,2.5839,2.5944,2.6093,2.6333,2.6063,2.5854,2.5974,2.5764,2.554,2.536,2.4911,2.4822,2.5106,2.4941,2.453,2.4088,2.2643,2.148,2.1477,2.1004,2.0579,2.0557,2.0821,2.1434,5.0586,4.9224,4.5544,4.4287,4.4751,4.5349,4.5259,4.4751,4.5229,4.5125,4.4511,4.3693,4.2333,4.0487,3.8048,0.0,3.7928,3.911,3.9956,4.0651,4.1265,4.1504,4.1467,4.0846,4.0502,4.0352,3.914,3.8527,3.8392,3.7259,3.6013,3.4773,3.2287,3.124,3.16,3.2302,3.3275,3.4488,3.5145,3.5474,3.54,3.4158,3.3185,3.2512,3.121,3.0223,2.9579,2.8364,2.7046,2.5621,2.3819,2.2059,2.0243,0.0,0.0,0.0,0.0,0.0,0.0,0.0,0.0,0.0,0.0,0.0,0.0,0.0,0.0,0.0,1.5726,0.0,1.7803,1.8461,0.0,0.0,0.0,1.864,2.0022,2.0677,2.15,2.2793,0.0,0.0,2.5615,0.0,2.6752,2.6752,2.6183,2.5884,2.6252,2.5989,2.5914,2.6357,2.6566,2.6911,2.736,2.745,2.7255,2.6761,2.6168,2.5719,2.5443,2.5848,2.6342,2.6267,2.6282,2.5952,2.4874,2.3715,2.2905,2.2784,2.203,2.1479,2.139,2.1448,2.1834,5.1783,5.1379,4.9957,4.8865,4.8102,4.8296,4.8281,4.8012,4.7189,4.6741,4.6501,4.4811,4.3499,4.2581,4.1474,4.1309,4.1884,4.1758,4.2013,4.2587,4.2751,4.2611,4.2171,4.2006,4.1369,4.0427,4.0083,3.9664,3.9155,3.8332,3.7778,3.7404,3.6312,3.4575,3.2378,3.3425,3.4189,3.4503,3.516,3.5265,3.4726,3.3918,3.3185,3.2527,3.1195,3.0223,2.9621,2.8813,2.75,2.5704,2.4664,2.3287,2.1407,1.8808,0.0,0.0,0.0,0.0,0.0,0.0,0.0,0.0,0.0,1.4574,1.1779,0.0,1.5815,0.0,1.7086,1.8491,1.9151,1.9806,0.0,0.0,2.161,2.2239,2.3984,2.3887,2.3977,2.4822,2.563,2.6183,2.6348,2.738,2.8128,2.8113,2.753,2.6926,2.6417,2.6791,2.7151,2.7255,2.73,2.742,2.7555,2.7585,2.7525,2.739,2.721,2.7091,2.6986,2.7136,2.7136,2.6656,2.6402,2.6057,2.5495,2.5088,2.4531,2.3553,2.1765,2.0257,2.0257,2.0658,2.1137,5.2755,5.2172,5.1813,5.1065,5.0137,5.0137,4.9957,4.9643,4.8925,4.8282,4.7638,4.5948,4.4964,4.4575,4.3958,4.3703,4.3708,4.3389,4.3269,4.3305,4.3305,4.3135,4.2776,4.253,4.1856,4.0846,4.0546,4.0068,3.9439,3.9035,3.8856,3.8826,3.8182,3.6926,3.522,3.5295,3.5267,3.4936,3.531,3.5325,3.4921,3.3993,3.3185,3.2512,3.121,3.0088,2.9175,2.8502,2.75,2.6108,2.5128,2.3977,2.2592,2.0451,1.8736,0.0,0.0,0.0,0.0,0.0,0.0,0.0,0.0,0.0,0.0,0.0,1.7699,0.0,1.9495,2.0857,2.1799,2.2488,2.3191,2.3909,2.3984,2.4642,2.6288,2.6168,2.6303,2.726,2.7694,2.7944,2.7934,2.8577,2.9067,2.9026,2.8723,2.8094,2.718,2.757,2.7959,2.766,2.7585,2.7585,2.7585,2.7585,2.7585,2.7585,2.7585,2.7585,2.7585,2.7585,2.7465,2.7136,2.6956,2.6686,2.6168,2.5794,2.5233,2.3854,2.2285,2.0979,2.0348,2.0295,2.0409,5.3518,5.2441,5.2261,5.1872,5.1334,5.1274,5.0838,5.0315,5.0226,4.9494,4.8222,4.7085,4.6488,4.6354,4.5723,4.5125,4.453,4.4392,4.3977,4.3424,4.3334,4.3305,4.326,4.2761,4.2186,4.1527,4.0846,4.0187,3.9559,3.9454,3.9388,3.9358,3.8811,3.8482,3.8332,3.7285,3.6327,3.5519,3.5489,3.5489,3.5474,3.4188,3.3215,3.2617,3.118,2.9819,2.8652,2.7959,2.7255,2.6482,2.545,2.4515,2.3744,2.1964,2.0632,0.0,1.8657,0.0,0.0,0.0,0.0,0.0,0.0,0.0,0.0,1.9253,1.9914,2.0987,2.2353,2.3661,2.4739,2.5516,2.5989,2.5989,2.6078,2.6572,2.769,2.7854,2.8304,2.9472,2.9621,2.9606,2.9532,2.9666,2.9699,2.9714,2.9789,2.946,2.8438,2.8487,2.8573,2.7974,2.7824,2.7779,2.763,2.7585,2.7585,2.7585,2.7585,2.7585,2.7585,2.7585,2.7585,2.757,2.754,2.7375,2.6811,2.6312,2.5575,2.4402,2.3515,2.2536,2.1118,2.0374,1.9912,5.4072,5.3728,5.265,5.2127,5.1962,5.1439,5.1154,5.0958,5.042,4.9508,4.8282,4.8027,4.7623,4.7085,4.6426,4.6067,4.5831,4.4811,4.4242,4.4067,4.3544,4.3305,4.329,4.317,4.2806,4.2201,4.1542,4.0861,4.0202,3.9664,3.9388,3.9409,3.929,3.896,3.8407,0.0,0.0,0.0,3.5489,3.5489,3.5444,3.4188,3.344,3.326,3.0986,0.0,2.8637,2.7959,2.7046,2.5884,2.6063,0.0,0.0,0.0,0.0,0.0,0.0,0.0,0.0,0.0,0.0,0.0,2.1894,2.11,2.0449,2.2243,2.3364,2.3146,2.4747,2.5944,2.6213,2.732,2.8038,2.8053,2.8502,2.8936,2.9202,2.9217,2.9337,2.9562,2.9621,2.9594,2.9696,3.0013,3.0328,3.0357,3.0806,3.1017,3.0733,2.9924,2.9505,2.9582,2.8921,2.8218,2.769,2.7645,2.772,2.7585,2.7585,2.763,2.7645,2.76,2.7585,2.7585,2.7585,2.757,2.7405,2.7305,2.6916,2.6155,2.5445,2.414,2.1354,2.0634,2.039,5.4506,0.0,5.3488,5.28,0.0,5.1843,5.1513,5.1152,5.0823,5.0167,4.9209,4.8566,4.8087,4.7758,4.71,4.6636,4.6249,4.5618,4.4945,4.4302,4.3932,4.3604,4.3305,4.3305,4.3,4.2381,4.1737,4.104,4.0382,3.9738,3.9388,3.9388,3.9388,3.9245,3.8901,3.8556,3.7599,3.5998,3.5669,3.5489,3.5459,3.4517,3.3664,3.3006,0.0,0.0,0.0,0.0,0.0,0.0,0.0,0.0,0.0,0.0,0.0,2.3655,2.3595,2.3601,2.3616,2.3931,2.4545,2.548,2.5623,2.4896,2.3244,2.4941,2.6093,2.6093,2.7006,2.7724,2.8079,2.8682,2.9071,2.9101,2.9385,2.9711,2.9983,3.0043,3.0178,3.0492,3.0509,3.0537,3.0537,3.0763,3.1001,3.0987,3.1271,3.1496,3.1406,3.0687,3.0058,2.9939,2.9505,2.8996,2.8678,2.8588,2.8573,2.8588,2.8588,2.8498,2.8263,2.7884,2.7585,2.7585,2.7585,2.7585,2.7585,2.7585,2.7379,2.6728,2.6279,2.5353,2.3031,2.21,2.1362,5.488,5.4371,5.4266,5.3503,5.2366,5.2247,5.1828,5.1229,0.0,0.0,0.0,4.8985,4.8386,4.8252,4.7593,4.701,4.6459,4.6381,4.5663,4.4496,4.4377,4.3958,4.3305,4.3305,4.3045,4.256,4.1901,4.1257,4.0561,3.9918,3.9493,3.9388,3.9388,3.9388,3.9379,3.8736,3.7823,3.6686,3.6013,3.5624,3.5504,3.4831,3.3963,3.2886,3.1974,3.0688,2.9011,2.8319,2.7645,2.6976,2.6542,2.6258,2.6144,2.6647,2.6886,2.6836,2.7405,2.7764,2.7779,2.7899,2.7944,2.7959,2.8562,2.8203,2.6422,2.729,2.8184,2.8727,2.8876,2.916,2.9684,2.9891,2.9924,2.9924,2.9924,3.0148,3.0612,3.0687,3.0911,3.1376,3.1436,3.1496,3.1451,3.1451,3.1496,3.1496,3.1481,3.1496,3.1436,3.1032,3.0477,2.9953,2.9789,2.9699,2.9606,2.9532,2.9621,2.9502,2.9547,2.9475,2.9116,2.8278,2.7764,2.8049,2.7809,2.7615,2.7585,2.7585,2.7382,2.68,2.668,2.6352,2.511,2.4052,2.2871,5.5119,5.5014,5.4446,5.3758,5.2995,5.2441,5.1813,5.1229,5.1229,5.0794,5.0151,4.9464,4.8865,4.8252,4.7593,4.7264,4.713,4.6533,4.5903,0.0,4.4571,4.3932,4.3319,4.3305,4.3245,4.311,4.2521,4.1916,4.1235,4.0576,3.9993,3.9463,3.9388,3.9388,3.9328,3.8736,3.8018,3.7285,3.6656,3.6058,3.5519,3.4831,3.4429,3.4174,3.2482,3.1107,3.0268,2.9639,2.9022,2.8382,2.8771,2.8757,2.8233,2.8263,2.8079,2.7555,2.8068,2.8457,2.8472,2.8992,2.9322,2.9367,2.9879,2.9879,2.9142,2.9217,2.9367,2.946,2.9936,3.0268,3.0402,3.0866,3.1137,3.1182,3.1212,3.1271,3.1316,3.1316,3.1361,3.1481,3.1496,3.1496,3.1496,3.1496,3.1496,3.1496,3.1496,3.1496,3.1481,3.1421,3.1077,3.0552,3.0372,3.0148,2.9864,2.9609,2.9699,2.9621,2.9696,2.9819,2.9986,2.8891,2.8319,2.9142,2.8543,2.7854,2.769,2.7585,2.7554,2.7401,2.7357,2.7078,2.628,2.5875,2.5043,5.5194,5.5164,5.4865,5.4132,5.3099,5.2112,5.1498,5.1229,5.1229,5.1018,5.0676,4.9718,4.9149,4.879,4.7758,4.7309,4.7294,4.6995,4.6486,4.5828,4.5155,4.4496,4.3868,4.3469,4.3305,4.326,4.2671,4.2246,4.1886,4.0891,4.0232,3.9948,3.9604,3.9388,3.9358,3.911,3.8616,3.7943,3.6985,3.6163,3.5519,3.5205,3.4861,3.4518,3.3559,3.2632,3.1629,3.0971,3.0328,2.9669,2.9621,2.9457,2.916,2.9445,2.949,2.9205,2.9804,3.0165,3.0165,3.0462,3.0642,3.0657,3.0868,3.0928,3.0672,3.0642,3.0614,3.0629,3.0911,3.1061,3.1032,3.1331,3.1496,3.1496,3.1496,3.1496,3.1496,3.1496,3.1496,3.1496,3.1496,3.1496,3.1496,3.1496,3.1496,3.1496,3.1496,3.1496,3.1496,3.1496,3.1406,3.1107,3.1032,3.0928,3.0672,3.0642,3.0642,3.0614,3.0642,3.0688,3.0868,3.0076,3.0058,3.0462,3.0058,2.9355,2.8603,2.8214,2.8019,2.763,2.7585,2.7408,2.7137,2.6707,2.5449,5.5194,5.5194,5.5194,5.4416,5.3084,5.1783,5.1229,5.1229,5.1229,5.1229,5.1035,4.9838,4.9299,4.9179,4.7893,4.7309,4.7309,4.7309,4.6935,4.6307,4.5603,4.4945,4.4302,4.3604,4.3305,4.3245,4.2806,4.2545,4.2276,4.119,4.0457,4.0172,3.9627,3.9388,3.9388,3.9388,3.908,3.8377,3.7419,3.6522,3.5759,3.5594,3.525,3.4756,3.4578,3.4024,3.2991,3.2317,3.1705,3.121,3.0717,3.043,3.0283,3.0702,3.0896,3.0821,3.1212,3.1496,3.1496,3.1496,3.1496,3.1496,3.1496,3.1496,3.1511,3.1645,3.166,3.154,3.1451,3.1481,3.1466,3.1496,3.1496,3.1496,3.1496,3.1496,3.1496,3.1496,3.1496,3.1496,3.1496,3.1496,3.1496,3.1496,3.1496,3.1496,3.1496,3.1496,3.1496,3.1496,3.1496,3.1496,3.1496,3.1451,3.1496,3.1451,3.1421,3.1496,3.1451,3.1391,3.1406,3.1451,3.1466,3.1391,3.1421,3.0853,2.9729,2.9071,2.8607,2.8053,2.7914,2.7799,2.7539,2.6771,2.5563,5.5194,5.5194,5.5194,5.4401,5.3069,5.1783,5.1244,5.1229,5.1229,5.1229,5.1094,4.9883,4.9314,4.9134,4.7908,4.7339,4.7309,4.7309,4.6965,4.6279,4.5618,4.496,4.4332,4.3618,4.3305,4.329,4.3215,4.291,4.2425,4.1677,4.0681,3.9649,3.9403,3.9388,3.9388,3.9388,3.908,3.8407,3.8272,3.7629,3.6447,3.5804,3.5474,3.5415,3.4833,3.4459,3.4247,3.3664,3.3275,3.323,3.3095,3.2826,3.2302,3.2287,3.2034,3.1481,3.1496,3.1496,3.1511,3.1496,3.1555,3.1496,3.157,3.157,3.1585,3.2079,3.2138,3.172,3.154,3.16,3.1511,3.157,3.1645,3.1675,3.1645,3.1496,3.154,3.1496,3.1496,3.1496,3.157,3.1511,3.163,3.1675,3.16,3.16,3.1705,3.1735,3.172,3.172,3.1645,3.157,3.1525,3.1525,3.1511,3.1496,3.1496,3.1496,3.1496,3.1496,3.1496,3.1496,3.1496,3.1496,3.1496,3.1316,3.0913,3.0372,2.928,2.8697,2.8457,2.8364,2.7693,2.689,2.5769,5.5194,5.5194,5.5194,5.4416,5.3129,5.2187,5.1573,5.1229,5.1229,5.1229,5.1109,5.0242,4.9628,4.9209,4.8297,4.7683,4.7309,4.7309,4.7174,4.6845,4.6217,4.5544,4.487,4.4227,4.3718,4.3319,4.3305,4.317,4.2806,4.1893,4.0711,3.9523,3.9388,3.9388,3.9388,3.9388,3.926,3.9005,3.8586,3.8138,3.7569,3.6611,3.5908,3.5534,3.5235,3.5085,3.5026,3.4442,3.4083,3.4069,3.3724,3.338,3.311,3.3095,3.2976,3.2706,3.2691,3.2691,3.2691,3.2691,3.2662,3.2691,3.2662,3.2706,3.2691,3.2946,3.2976,3.2766,3.2676,3.2706,3.2677,3.2677,3.2691,3.2691,3.2691,3.2542,3.2123,3.2422,3.2542,3.2183,3.2079,3.2243,3.2587,3.2691,3.2512,3.2258,3.2363,3.2587,3.2662,3.2691,3.2512,3.2168,3.2079,3.1899,3.1615,3.1496,3.1496,3.1496,3.1496,3.1496,3.1496,3.1496,3.1496,3.1496,3.1496,3.1316,3.0881,3.0612,2.9924,2.94,2.9175,2.9097,2.8828,2.7825,2.6847,5.5194,5.5164,5.4999,5.4251,5.3129,5.2471,5.1828,5.1259,5.1229,5.1229,5.1169,5.0659,5.0137,4.9479,4.8671,4.7923,4.7369,4.7309,4.7309,4.7234,4.6621,4.601,4.5529,4.4691,4.4062,4.3604,4.3379,4.32,4.297,4.1953,4.0801,3.9813,3.9478,3.9388,3.9388,3.9388,3.9388,3.9328,3.8901,3.8586,3.8302,3.7479,3.6611,3.5848,3.5594,3.5489,3.5489,3.5026,3.4756,3.4788,3.4292,3.3948,3.3769,3.3769,3.3694,3.3529,3.3499,3.3499,3.3499,3.3499,3.3499,3.3499,3.3499,3.3499,3.3529,3.3664,3.3754,3.3769,3.3933,3.3948,3.3529,3.3499,3.3499,3.3499,3.3499,3.3275,3.2901,3.3245,3.3275,3.2856,3.2781,3.2946,3.3365,3.344,3.323,3.2916,3.317,3.3499,3.3499,3.3425,3.3275,3.2856,3.2796,3.2392,3.1705,3.1496,3.1496,3.1496,3.1496,3.1496,3.1496,3.1496,3.1496,3.1496,3.1496,3.1436,3.1167,3.0823,3.0567,3.0043,2.9744,2.9666,2.9442,2.8727,2.8284,5.5194,5.5104,5.4521,5.3892,5.3129,5.2501,5.1828,5.1229,5.1229,5.1229,5.1229,5.1169,5.0749,5.0077,4.888,4.7952,4.7384,4.7324,4.7309,4.7249,4.6623,4.6279,4.6145,4.496,4.4302,4.4137,4.3544,4.3045,4.2485,4.1767,4.1025,4.0352,3.9723,3.9388,3.9388,3.9388,3.9388,3.9373,3.9298,3.905,3.8482,3.8317,3.7644,3.6582,3.5848,3.5534,3.5489,3.5474,3.5429,3.5444,3.5355,3.5085,3.4548,3.4474,3.4188,3.3649,3.3544,3.3559,3.3589,3.3619,3.3604,3.3574,3.3664,3.3559,3.3724,3.4143,3.4459,3.4474,3.4936,3.4816,3.3844,3.3754,3.3679,3.3649,3.3574,3.3559,3.3469,3.3589,3.3514,3.3469,3.3514,3.3514,3.3529,3.3499,3.3589,3.3499,3.3514,3.3634,3.3709,3.3634,3.3589,3.3514,3.3365,3.3021,3.1839,3.166,3.1615,3.1585,3.1645,3.1511,3.1496,3.1496,3.1496,3.1496,3.1496,3.1481,3.1451,3.1301,3.1047,3.0642,3.0133,2.9939,3.0088,3.0046,2.9714,5.5194,5.5179,5.494,5.4206,5.3189,5.292,5.2217,5.1259,5.1229,5.1229,5.1229,5.1229,5.0808,5.0151,4.9314,4.8536,4.7923,4.7504,4.7309,4.7279,4.7055,4.6726,4.6204,4.5349,4.4691,4.4257,4.3618,4.3,4.2396,4.1737,4.1055,4.0397,3.9738,3.9388,3.9388,3.9388,3.9388,3.9388,3.9388,3.929,3.902,3.8616,3.8138,3.7689,3.6671,3.5938,3.5504,3.5489,3.5489,3.5489,3.5489,3.54,3.516,3.513,3.504,3.4816,3.4771,3.4786,3.4786,3.4771,3.4771,3.4771,3.4786,3.4741,3.4816,3.4996,3.513,3.519,3.531,3.519,3.4966,3.4786,3.4771,3.4786,3.4756,3.4547,3.4322,3.4487,3.4637,3.4322,3.4442,3.4487,3.3918,3.4233,3.4592,3.4262,3.4487,3.4696,3.4756,3.4771,3.4592,3.4279,3.4129,3.3814,3.2976,3.2392,3.2108,3.1989,3.1899,3.1645,3.1555,3.1511,3.1511,3.1496,3.1496,3.1496,3.1466,3.1451,3.1256,3.1182,3.0702,3.0582,3.0836,3.0629,3.0554,5.5194,5.5194,5.5194,5.4431,5.3234,5.3174,5.2441,5.1289,5.1229,5.1229,5.1229,5.1229,5.0928,5.0496,4.9868,4.9224,4.8536,4.7728,4.7309,4.7309,4.7309,4.707,4.6561,4.5708,4.508,4.4556,4.3693,4.309,4.2641,4.2051,4.1392,4.0726,4.0053,3.9582,3.9433,3.9388,3.9388,3.9388,3.9388,3.9388,3.9313,3.896,3.8586,3.8302,3.7539,3.6686,3.5863,3.5624,3.5489,3.5489,3.5489,3.5489,3.5489,3.5489,3.5489,3.5489,3.5489,3.5489,3.5489,3.5489,3.5489,3.5489,3.5489,3.5489,3.5489,3.5489,3.5489,3.5489,3.5489,3.5489,3.5489,3.5474,3.5489,3.5489,3.5489,3.5325,3.4906,3.5205,3.522,3.4981,3.5145,3.4981,3.4457,3.4996,3.516,3.4878,3.5235,3.5474,3.5489,3.5474,3.5385,3.4936,3.4816,3.4651,3.4143,3.3649,3.3051,3.2841,3.2587,3.2198,3.1765,3.169,3.157,3.154,3.1511,3.1511,3.1496,3.1511,3.1511,3.1511,3.1346,3.1137,3.1167,3.1092,3.1002,5.5194,5.5194,5.5194,5.4416,5.3264,5.3174,5.2426,5.1349,5.1229,5.1229,5.1229,5.1229,5.1184,5.1035,5.0375,4.9838,4.9045,4.7952,4.7369,4.7309,4.7309,4.7294,4.7145,4.5888,4.5155,4.493,4.3913,4.3305,4.317,4.2581,4.1976,4.1369,4.0666,4.0023,3.9433,3.9433,3.9388,3.9388,3.9388,3.9388,3.9388,3.9313,3.905,3.8527,3.8317,3.7704,3.6582,3.5953,3.5654,3.5579,3.5564,3.5519,3.5504,3.5489,3.5489,3.5489,3.5489,3.5489,3.5489,3.5489,3.5489,3.5489,3.5489,3.5489,3.5489,3.5489,3.5489,3.5489,3.5489,3.5489,3.5489,3.5489,3.5489,3.5489,3.5489,3.5459,3.5459,3.5474,3.5489,3.5429,3.5489,3.5489,3.5459,3.5444,3.5429,3.5415,3.5444,3.5489,3.5489,3.5489,3.5489,3.5444,3.5325,3.5145,3.5055,3.4938,3.4262,3.3709,3.341,3.3051,3.2527,3.2258,3.1974,3.1899,3.1914,3.1899,3.1824,3.1795,3.163,3.16,3.1555,3.1525,3.1406,3.1301,3.1361,5.5194,5.5194,5.5194,5.4401,5.3249,5.3174,5.2426,5.1274,5.1229,5.1229,5.1229,5.1229,5.1229,5.1079,5.0495,4.9883,4.9269,4.8371,4.7743,4.7369,4.7309,4.7309,4.7055,4.5933,4.4825,4.4018,4.3514,4.3305,4.3185,4.2725,4.2276,4.1931,4.095,4.0337,4.0053,3.9679,3.9388,3.9388,3.9388,3.9388,3.9388,3.9388,3.9305,3.908,3.8646,3.8167,3.7793,3.7165,3.6626,3.6207,3.6178,3.5983,3.5609,3.5489,3.5489,3.5489,3.5489,3.5489,3.5489,3.5489,3.5489,3.5489,3.5489,3.5489,3.5489,3.5489,3.5504,3.5519,3.5504,3.5489,3.5489,3.5489,3.5564,3.5504,3.5489,3.5489,3.5489,3.5489,3.5489,3.5489,3.5489,3.5489,3.5489,3.5489,3.5489,3.5489,3.5489,3.5489,3.5489,3.5489,3.5489,3.5489,3.5489,3.5489,3.534,3.525,3.4921,3.4442,3.4128,3.3769,3.326,3.3035,3.2706,3.2407,3.2407,3.2333,3.2243,3.2138,3.2034,3.178,3.172,3.1645,3.154,3.157,3.1675,5.5194,5.5194,5.5194,5.4416,5.3219,5.3174,5.2441,5.1334,5.1229,5.1229,5.1229,5.1229,5.1229,5.1139,5.0719,5.0092,4.9329,4.8865,4.8162,4.7414,4.7309,4.7309,4.7115,4.5918,4.4766,4.3823,4.3409,4.3305,4.3275,4.294,4.2635,4.2246,4.1519,4.0846,4.0442,4.0008,3.9694,3.9448,3.9388,3.9388,3.9388,3.9388,3.9388,3.9328,3.9005,3.8796,3.8736,3.8377,3.7749,3.7015,3.6836,3.6611,3.6252,3.6222,3.6103,3.5908,3.5863,3.5789,3.5564,3.5489,3.5489,3.5489,3.5489,3.5489,3.5489,3.5489,3.5579,3.5833,3.5893,3.5953,3.6178,3.6237,3.6207,3.6222,3.5759,3.5534,3.5489,3.5489,3.5489,3.5489,3.5489,3.5489,3.5489,3.5489,3.5489,3.5489,3.5489,3.5489,3.5489,3.5489,3.5519,3.5519,3.5489,3.5489,3.5489,3.5474,3.5474,3.516,3.4816,3.4397,3.3933,3.4113,3.3977,3.3484,3.335,3.311,3.3036,3.2916,3.2796,3.2392,3.2123,3.2363,3.2497,3.2079,3.2079,5.5194,5.5194,5.5194,5.4416,5.3249,5.3174,5.2426,5.1334,5.1229,5.1229,5.1229,5.1229,5.1229,5.1229,5.1078,5.0481,4.9524,4.9254,4.8551,4.7668,4.7354,4.7279,4.6965,4.5858,4.4915,4.4227,4.3589,4.3319,4.329,4.3215,4.3015,4.2545,4.2306,4.1796,4.0846,4.0487,4.0068,3.9634,3.9448,3.9388,3.9388,3.9388,3.9388,3.9388,3.9328,3.9284,3.9269,3.9194,3.8706,3.7659,3.7404,3.7285,3.7345,3.7389,3.7015,3.6552,3.657,3.6267,3.5804,3.5818,3.5789,3.5804,3.5818,3.5609,3.5789,3.5893,3.6043,3.6477,3.6537,3.6731,3.715,3.724,3.7255,3.7225,3.6417,3.5863,3.5654,3.5699,3.5833,3.5774,3.5639,3.5639,3.5789,3.5774,3.5759,3.5759,3.5804,3.5848,3.5744,3.5804,3.5654,3.5684,3.5833,3.5804,3.5893,3.5863,3.5863,3.5774,3.5474,3.5115,3.4681,3.4831,3.4966,3.4517,3.4158,3.3948,3.3754,3.3604,3.341,3.3095,3.3125,3.344,3.326,3.2796,3.2348,5.5194,5.5194,5.5194,5.4416,5.3264,5.3174,5.2441,5.1304,5.1229,5.1229,5.1229,5.1229,5.1229,5.1229,5.1214,5.075,5.0002,4.9449,4.891,4.8057,4.7504,4.7025,4.6516,4.5723,4.4975,4.4332,4.3678,4.3305,4.3305,4.3305,4.3185,4.306,4.2635,4.2261,4.1826,4.0905,4.0367,4.0083,3.9634,3.9403,3.9388,3.9388,3.9388,3.9388,3.9388,3.9388,3.9388,3.9388,3.905,3.8197,3.7644,3.7404,3.7479,3.7494,3.7419,3.7225,3.715,3.7105,3.6926,3.6851,3.6866,3.6911,3.6776,3.6896,3.6911,3.6896,3.6985,3.7165,3.7165,3.724,3.7404,3.7464,3.7449,3.7375,3.712,3.6881,3.6821,3.6911,3.6911,3.6911,3.6851,3.6806,3.6776,3.6791,3.6757,3.6806,3.6761,3.6746,3.6522,3.6462,3.6477,3.6462,3.6522,3.6402,3.6327,3.6282,3.6267,3.6297,3.6118,3.5893,3.5474,3.525,3.5325,3.5175,3.4936,3.4711,3.4442,3.4218,3.3978,3.3814,3.3739,3.3829,3.3619,3.3245,3.2736,5.5194,5.5194,5.5194,5.4416,5.3249,5.3174,5.2426,5.1394,5.1229,5.1229,5.1229,5.1229,5.1229,5.1229,5.1214,5.0808,5.0151,4.9553,4.8955,4.8252,4.7608,4.713,4.6651,4.6037,4.5379,4.4706,4.4047,4.3589,4.3349,4.3305,4.3305,4.323,4.2955,4.2641,4.2306,4.1722,4.0905,4.0457,3.9993,3.9723,3.9418,3.9388,3.9388,3.9388,3.9388,3.9388,3.9388,3.9388,3.9179,3.8826,3.8467,3.8257,3.8242,3.8222,3.8123,3.7883,3.7808,3.7719,3.7449,3.7404,3.7404,3.7389,3.7404,3.7404,3.734,3.7404,3.7449,3.7778,3.7823,3.7973,3.8212,3.8257,3.8242,3.8302,3.8242,3.8033,3.7524,3.7345,3.7389,3.7404,3.7404,3.7404,3.7419,3.7419,3.7419,3.7375,3.7285,3.733,3.7345,3.736,3.7315,3.727,3.7225,3.7135,3.6971,3.6881,3.6881,3.6881,3.6701,3.6507,3.6013,3.5639,3.5474,3.5459,3.5489,3.54,3.504,3.4816,3.4816,3.4622,3.4382,3.4277,3.4233,3.3918,3.3395,5.5194,5.5194,5.5194,5.4416,5.3279,5.3144,5.2426,5.1379,5.1229,5.1229,5.1229,5.1229,5.1229,5.1229,5.1214,5.0853,5.0285,4.9628,4.882,4.8147,4.7578,4.7249,4.713,4.6501,4.5843,4.5185,4.4616,4.3902,4.3439,4.3305,4.3305,4.329,4.326,4.303,4.265,4.2366,4.1737,4.0891,4.0442,4.0083,3.9679,3.9478,3.9388,3.9388,3.9388,3.9388,3.9388,3.9388,3.9343,3.9373,3.9388,3.929,3.9284,3.9328,3.9095,3.8631,3.8467,3.8272,3.7808,3.7808,3.7719,3.7778,3.7764,3.7629,3.7778,3.7853,3.8018,3.8467,3.8482,3.8736,3.9059,3.9284,3.9209,3.9134,3.929,3.8745,3.7973,3.7614,3.7614,3.7614,3.7644,3.7629,3.7614,3.7614,3.7674,3.8153,3.8078,3.8138,3.8212,3.8242,3.8123,3.7943,3.7913,3.7898,3.7704,3.7509,3.7509,3.7494,3.727,3.6971,3.6312,3.5908,3.5624,3.5489,3.5489,3.5489,3.5415,3.534,3.5385,3.531,3.4966,3.516,3.5325,3.4816,3.4292,5.5194,5.5194,5.5194,5.4416,5.3294,5.3144,5.2426,5.1244,5.1229,5.1229,5.1229,5.1229,5.1229,5.1229,5.1214,5.1124,5.0795,4.9793,4.8715,4.7578,4.7414,4.7309,4.7174,4.6666,4.5992,4.5319,4.4646,4.3962,4.3484,4.3334,4.3305,4.3305,4.329,4.323,4.3075,4.2665,4.2321,4.1826,4.098,4.0412,4.0098,3.9694,3.9433,3.9403,3.9388,3.9388,3.9388,3.9388,3.9388,3.9388,3.9388,3.9388,3.9388,3.9388,3.9284,3.9164,3.9119,3.9095,3.899,3.8835,3.896,3.882,3.8811,3.899,3.8955,3.8865,3.8955,3.92,3.92,3.923,3.9343,3.9388,3.9388,3.9388,3.9373,3.9284,3.9035,3.8931,3.8871,3.8865,3.8886,3.8975,3.8931,3.8841,3.8835,3.896,3.8945,3.9005,3.902,3.897,3.8796,3.8512,3.8452,3.8422,3.8362,3.8197,3.8197,3.8167,3.7958,3.7614,3.6956,3.6552,3.6387,3.5968,3.5489,3.5549,3.5759,3.5609,3.5594,3.5564,3.5504,3.5489,3.5429,3.522,3.516,5.5194,5.5194,5.5194,5.4416,5.3294,5.3144,5.2441,5.1394,5.1229,5.1229,5.1229,5.1229,5.1229,5.1229,5.1229,5.1229,5.0915,4.9853,4.8551,4.7563,4.7309,4.7309,4.7264,4.6935,4.6426,4.5753,4.5095,4.4436,4.3898,4.3454,4.3305,4.3305,4.3305,4.329,4.329,4.2985,4.2671,4.2336,4.1752,4.107,4.0427,4.0083,3.9664,3.9484,3.9388,3.9388,3.9388,3.9388,3.9388,3.9388,3.9388,3.9388,3.9388,3.9388,3.9388,3.9388,3.9388,3.9388,3.9373,3.9388,3.9343,3.9388,3.9388,3.9388,3.9388,3.9388,3.9388,3.9388,3.9373,3.9388,3.9388,3.9388,3.9388,3.9388,3.9388,3.9388,3.9388,3.9388,3.9388,3.9388,3.9313,3.9313,3.9373,3.9388,3.9358,3.9149,3.9149,3.9194,3.9209,3.9194,3.9185,3.9005,3.8931,3.8901,3.8916,3.8886,3.8886,3.8856,3.8751,3.8362,3.7838,3.7554,3.733,3.6806,3.6267,3.6148,3.6267,3.6058,3.5818,3.5624,3.5534,3.5519,3.5504,3.5489,3.5429,5.5194,5.5179,5.5074,5.4311,5.3264,5.3039,5.2321,5.1319,5.1229,5.1229,5.1229,5.1229,5.1229,5.1229,5.1229,5.1154,5.0571,4.9673,4.8327,4.7429,4.7309,4.7309,4.7279,4.7189,4.6965,4.6426,4.5589,4.49,4.4242,4.3663,4.3319,4.3305,4.3305,4.3305,4.329,4.326,4.306,4.2611,4.2351,4.1856,4.0965,4.0666,4.0247,3.9768,3.9433,3.9403,3.9388,3.9388,3.9388,3.9388,3.9388,3.9388,3.9388,3.9388,3.9388,3.9388,3.9388,3.9388,3.9388,3.9388,3.9388,3.9388,3.9388,3.9388,3.9388,3.9388,3.9388,3.9388,3.9388,3.9388,3.9388,3.9388,3.9388,3.9388,3.9388,3.9388,3.9388,3.9388,3.9388,3.9388,3.9388,3.9388,3.9388,3.9388,3.9388,3.9388,3.9388,3.9388,3.9388,3.9373,3.9298,3.9305,3.92,3.9155,3.917,3.917,3.9215,3.9215,3.9194,3.896,3.8586,3.8482,3.8167,3.7659,3.724,3.7135,3.6911,3.6671,3.6342,3.5878,3.5908,3.6207,3.6103,3.5833,3.5818,5.5194,5.5149,5.461,5.3922,5.3144,5.2606,5.1947,5.1304,5.1229,5.1229,5.1229,5.1229,5.1229,5.1229,5.1229,5.0661,4.9778,4.894,4.8102,4.7414,4.7309,4.7309,4.7309,4.7309,4.7219,4.6845,4.5948,4.4975,4.4362,4.3648,4.3334,4.3305,4.3305,4.3305,4.3305,4.329,4.3245,4.3015,4.2725,4.2261,4.1901,4.1377,4.0816,4.0172,3.9753,3.9463,3.9388,3.9388,3.9388,3.9388,3.9388,3.9388,3.9388,3.9388,3.9388,3.9388,3.9388,3.9388,3.9388,3.9388,3.9388,3.9388,3.9388,3.9388,3.9388,3.9388,3.9388,3.9388,3.9388,3.9388,3.9388,3.9388,3.9388,3.9388,3.9388,3.9388,3.9388,3.9388,3.9388,3.9388,3.9388,3.9388,3.9388,3.9388,3.9388,3.9388,3.9388,3.9388,3.9388,3.9388,3.9373,3.9358,3.9358,3.9343,3.9343,3.9328,3.9328,3.9313,3.9313,3.9313,3.914,3.926,3.899,3.8312,3.8182,3.8212,3.7898,3.7389,3.706,3.6716,3.6851,3.7015,3.6791,3.6552,3.6611,5.4999,5.4655,5.4326,5.3608,5.271,5.2351,5.1828,5.1274,5.1229,5.1229,5.1229,5.1229,5.1229,5.1229,5.1229,5.0496,4.9419,4.8625,4.7938,4.7429,4.7309,4.7309,4.7309,4.7309,4.7309,4.6935,4.5978,4.517,4.4736,4.3753,4.3364,4.3305,4.3305,4.3305,4.3305,4.3305,4.3305,4.32,4.3,4.2671,4.2396,4.1767,4.1085,4.0487,4.0113,3.9783,3.9418,3.9388,3.9388,3.9388,3.9388,3.9388,3.9418,3.9433,3.9403,3.9418,3.9388,3.9388,3.9388,3.9388,3.9388,3.9388,3.9388,3.9388,3.9388,3.9388,3.9388,3.9388,3.9388,3.9388,3.9388,3.9388,3.9388,3.9388,3.9388,3.9388,3.9388,3.9388,3.9388,3.9388,3.9388,3.9388,3.9388,3.9388,3.9388,3.9388,3.9388,3.9388,3.9388,3.9388,3.9388,3.9388,3.9388,3.9388,3.9388,3.9388,3.9388,3.9388,3.9388,3.9388,3.9388,3.9388,3.9239,3.8835,3.8901,3.8945,3.8527,3.7913,3.7734,3.7539,3.7449,3.7389,3.7375,3.7345,3.7404,5.4685,5.4192,5.3922,5.3189,5.2276,5.2052,5.1708,5.1289,5.1229,5.1229,5.1229,5.1229,5.1229,5.1139,5.081,5.0182,4.9239,4.8476,4.7758,4.7414,4.7309,4.7309,4.7309,4.7309,4.7294,4.713,4.6217,4.5424,4.4975,4.3902,4.3379,4.3305,4.3305,4.3305,4.3305,4.3305,4.3305,4.3305,4.329,4.303,4.2521,4.1908,4.1354,4.0816,4.0666,4.0352,4.0023,3.9993,3.9978,3.9963,3.9918,3.9837,3.9828,3.9813,3.9753,3.9634,3.9463,3.9403,3.9388,3.9388,3.9388,3.9388,3.9388,3.9388,3.9388,3.9388,3.9388,3.9388,3.9388,3.9388,3.9388,3.9388,3.9388,3.9388,3.9388,3.9388,3.9388,3.9388,3.9388,3.9388,3.9388,3.9433,3.9478,3.9388,3.9388,3.9388,3.9388,3.9388,3.9388,3.9388,3.9388,3.9388,3.9388,3.9388,3.9388,3.9388,3.9388,3.9388,3.9388,3.9388,3.9388,3.9388,3.9224,3.9119,3.9179,3.9134,3.8781,3.8571,3.8482,3.8287,3.7958,3.7928,3.8133,3.8177,3.8162,5.4281,5.4087,5.2935,5.2321,5.2112,5.1603,5.1319,5.1244,5.1229,5.1229,5.1229,5.1229,5.1229,5.1005,5.0002,4.9524,4.9,4.8087,4.7474,4.7309,4.7309,4.7309,4.7309,4.7309,4.7309,4.7174,4.6516,4.5873,4.5155,4.4003,4.3319,4.3305,4.3305,4.3305,4.3305,4.3305,4.3305,4.3344,4.3369,4.3284,4.309,4.2551,4.2261,4.1961,4.1602,4.116,4.095,4.0891,4.095,4.0995,4.1108,4.1115,4.1183,4.1145,4.0801,4.0322,3.9813,3.9388,3.9463,3.9582,3.9664,3.9694,3.9582,3.9433,3.9568,3.9538,3.9508,3.9388,3.9433,3.9553,3.9612,3.9508,3.9433,3.9538,3.9672,3.9612,3.9568,3.9963,3.9903,3.9828,3.9963,3.9732,3.9627,3.9493,3.9388,3.9388,3.9388,3.9388,3.9388,3.9388,3.9388,3.9388,3.9388,3.9388,3.9388,3.9388,3.9388,3.9388,3.9388,3.9388,3.9388,3.9388,3.9388,3.9328,3.9388,3.9388,3.9134,3.908,3.9134,3.8985,3.8656,3.8835,3.9179,3.9104,3.885,5.3069,5.301,5.2441,5.1977,5.1618,5.1319,5.1229,5.1229,5.1229,5.1229,5.1229,5.1229,5.1229,5.0945,4.9853,4.9329,4.897,4.7908,4.7324,4.7309,4.7309,4.7309,4.7309,4.7309,4.7309,4.7145,4.6636,4.5918,4.517,4.4436,4.3723,4.3305,4.3305,4.3305,4.3305,4.3305,4.3669,4.4004,4.4143,4.3849,4.3412,4.306,4.2746,4.2425,4.2126,4.1826,4.1519,4.1422,4.1422,4.1422,4.1422,4.1422,4.1422,4.1392,4.119,4.1025,4.0726,4.0382,4.0098,4.0322,4.0397,4.0502,4.0502,4.0576,4.0457,4.0187,4.0172,4.0531,4.0187,4.0142,4.0397,4.0531,4.0531,4.0502,4.0337,4.0382,4.0397,4.0516,4.0666,4.0561,4.0472,4.0322,4.0113,3.9843,3.9694,3.9523,3.9493,3.9448,3.9418,3.9388,3.9388,3.9388,3.9388,3.9388,3.9388,3.9388,3.9388,3.9388,3.9388,3.9388,3.9388,3.9388,3.9388,3.9388,3.9388,3.9388,3.9388,3.9358,3.9284,3.9328,3.9373,3.9388,3.9388,3.9358,3.9164,5.1962,5.1962,5.1947,5.1663,5.1229,5.1229,5.1229,5.1229,5.1229,5.1229,5.1229,5.1229,5.1229,5.0915,4.9942,4.9299,4.9209,4.7893,4.7414,4.7309,4.7309,4.7309,4.7309,4.7309,4.7309,4.7309,4.692,4.6292,4.5603,4.4855,4.4152,4.3334,4.3305,4.3305,4.3305,4.3329,4.363,4.4066,4.4182,4.3888,4.3418,4.329,4.3045,4.2776,4.2551,4.2372,4.1968,4.1923,4.1938,4.1953,4.1998,4.2058,4.2028,4.2058,4.1893,4.1773,4.1683,4.1579,4.1205,4.1183,4.1407,4.1422,4.1422,4.119,4.122,4.0891,4.0741,4.119,4.092,4.095,4.122,4.1347,4.1242,4.1212,4.1257,4.1377,4.1422,4.1294,4.116,4.101,4.098,4.1115,4.0831,4.0352,4.0038,3.9753,3.9597,3.9568,3.9538,3.9538,3.9478,3.9508,3.9478,3.9463,3.9433,3.9433,3.9418,3.9493,3.9508,3.9433,3.9463,3.9418,3.9388,3.9388,3.9388,3.9388,3.9388,3.9388,3.9388,3.9388,3.9388,3.9388,3.9388,3.9388,3.9388,5.1289,5.1274,5.1304,5.1289,5.1229,5.1229,5.1229,5.1229,5.1229,5.1229,5.1229,5.1229,5.1229,5.0915,5.0032,4.9389,4.9239,4.7908,4.7459,4.7339,4.7309,4.7309,4.7309,4.7309,4.7309,4.7309,4.71,4.6756,4.619,4.5529,4.4526,4.3484,4.3364,4.3319,4.3369,4.3488,4.3448,4.3747,4.3747,4.3669,4.3369,4.3305,4.323,4.3215,4.32,4.3185,4.3125,4.2976,4.2916,4.2886,4.2856,4.2871,4.2796,4.2826,4.2671,4.2462,4.2656,4.2536,4.2222,4.1788,4.1489,4.1467,4.1557,4.1669,4.1728,4.1474,4.1422,4.1572,4.1459,4.1429,4.1512,4.1467,4.1713,4.1773,4.1893,4.1878,4.1863,4.1743,4.1609,4.1482,4.1587,4.1803,4.1848,4.1444,4.0786,4.0487,4.0307,4.0277,3.9963,3.9903,3.9753,3.9694,3.9649,3.9568,3.9523,3.9612,3.9948,4.0023,4.0008,3.9798,3.9619,3.9508,3.9388,3.9388,3.9388,3.9388,3.9388,3.9388,3.9388,3.9388,3.9388,3.9388,3.9388,3.9388,3.9388,5.1229,5.1229,5.1229,5.1229,5.1229,5.1229,5.1229,5.1229,5.1229,5.1229,5.1229,5.1229,5.1229,5.096,5.0361,4.9628,4.9239,4.8371,4.7743,4.7399,4.7309,4.7309,4.7309,4.7309,4.7309,4.7309,4.7279,4.6965,4.6264,4.5992,4.514,4.4216,4.3633,4.3334,4.3409,4.3708,4.3747,4.3551,4.3786,4.3966,4.3329,4.3305,4.3305,4.3305,4.3305,4.3305,4.3275,4.329,4.3305,4.3305,4.3305,4.3305,4.3305,4.3305,4.3155,4.294,4.3185,4.3095,4.3015,4.2671,4.2596,4.2581,4.2596,4.2521,4.2402,4.2222,4.2282,4.2312,4.2177,4.2073,4.2536,4.2596,4.2671,4.2596,4.2521,4.2462,4.2402,4.2297,4.2297,4.2252,4.2462,4.2716,4.2701,4.2611,4.1878,4.1235,4.1085,4.0891,4.0561,4.0382,4.0307,4.0292,4.0277,4.0352,4.0337,4.0457,4.0561,4.0516,4.0472,4.0322,4.0083,3.9493,3.9388,3.9388,3.9403,3.9388,3.9388,3.9388,3.9388,3.9388,3.9388,3.9388,3.9388,3.9388,3.9388,5.1229,5.1229,5.1229,5.1229,5.1229,5.1229,5.1229,5.1229,5.1229,5.1229,5.1229,5.1229,5.1229,5.1035,5.0465,4.9853,4.9224,4.8551,4.7908,4.7534,4.7309,4.7309,4.7309,4.7309,4.7309,4.7309,4.7279,4.6995,4.6696,4.6456,4.5771,4.4979,4.4257,4.3873,4.3448,4.3849,4.4004,4.3693,4.381,4.4105,4.3344,4.3305,4.3305,4.3305,4.3305,4.3305,4.3305,4.3305,4.3305,4.3305,4.3305,4.3305,4.3305,4.3305,4.3305,4.3305,4.3305,4.3305,4.3305,4.329,4.3275,4.3125,4.317,4.32,4.317,4.291,4.288,4.305,4.288,4.2851,4.3305,4.314,4.3095,4.2961,4.2991,4.2946,4.2976,4.2931,4.3021,4.305,4.3185,4.3125,4.308,4.2961,4.2536,4.1803,4.1354,4.1235,4.11,4.101,4.107,4.107,4.11,4.1242,4.1362,4.1175,4.1025,4.098,4.0965,4.0995,4.0696,4.0127,3.9747,3.9911,3.9837,3.9523,3.9388,3.9388,3.9388,3.9388,3.9388,3.9388,3.9388,3.9388,3.9388,5.1229,5.1229,5.1229,5.1229,5.1229,5.1229,5.1229,5.1229,5.1229,5.1229,5.1229,5.1229,5.1229,5.1033,5.0554,4.9972,4.9284,4.8641,4.7982,4.7459,4.7309,4.7309,4.7309,4.7309,4.7309,4.7309,4.7294,4.7249,4.7189,4.6741,4.6322,4.5933,4.52,4.4548,4.3449,4.3329,4.3329,4.3369,4.3472,4.3369,4.3329,4.3305,4.3344,4.3551,4.3566,4.3591,4.3591,4.3591,4.3551,4.3329,4.3305,4.3305,4.3305,4.3305,4.3305,4.3305,4.3305,4.3305,4.3305,4.3305,4.3305,4.3305,4.3305,4.3305,4.3305,4.323,4.317,4.329,4.3185,4.3185,4.3305,4.3305,4.3305,4.3305,4.3305,4.3305,4.3305,4.3305,4.3305,4.3305,4.3305,4.329,4.329,4.32,4.294,4.2402,4.1773,4.1564,4.1639,4.1758,4.1893,4.1923,4.1953,4.1953,4.1983,4.1669,4.1504,4.1497,4.1564,4.1743,4.1519,4.098,4.0704,4.0644,4.03,4.0038,3.9672,3.9388,3.9388,3.9388,3.9388,3.9388,3.9388,3.9388,3.9388,5.1229,5.1229,5.1229,5.1229,5.1229,5.1229,5.1229,5.1229,5.1229,5.1229,5.1229,5.1229,5.1229,5.1124,5.093,5.0287,4.9374,4.9179,4.8476,4.7384,4.7309,4.7309,4.7309,4.7309,4.7309,4.7309,4.7309,4.7309,4.7279,4.698,4.6608,4.6234,4.575,4.5218,4.4616,4.4152,4.3551,4.4043,4.3786,4.3305,4.3305,4.3369,4.3591,4.4143,4.422,4.4182,4.4182,4.4143,4.3888,4.3409,4.3305,4.3305,4.3305,4.3305,4.3305,4.3305,4.3305,4.3305,4.3305,4.3305,4.3305,4.3305,4.3305,4.3305,4.3305,4.3305,4.3305,4.3305,4.3305,4.3305,4.3305,4.3305,4.3305,4.3305,4.3305,4.3305,4.3305,4.3305,4.3305,4.3305,4.3305,4.3305,4.3305,4.3305,4.312,4.3045,4.2521,4.2506,4.2596,4.2731,4.2851,4.2836,4.2836,4.2761,4.2626,4.2357,4.2312,4.2402,4.2566,4.2751,4.2393,4.181,4.1959,4.2049,4.128,4.0516,4.0127,3.9732,3.9463,3.9388,3.9627,3.9612,3.9538,3.9478,3.9388,5.1229,5.1229,5.1229,5.1229,5.1229,5.1229,5.1229,5.1229,5.1229,5.1229,5.1229,5.1229,5.1229,5.1229,5.1124,5.0511,4.9389,4.9269,4.8551,4.7459,4.7309,4.7309,4.7309,4.7309,4.7309,4.7309,4.7309,4.7309,4.7309,4.7309,4.7085,4.6636,4.602,4.6061,4.566,4.4953,4.4013,4.4281,4.3927,4.3512,4.363,4.3708,4.3825,4.445,4.4737,4.4737,4.4774,4.4662,4.4373,4.363,4.3305,4.3305,4.3305,4.3305,4.3305,4.3305,4.3305,4.3305,4.3305,4.3305,4.3305,4.3305,4.3305,4.3305,4.3305,4.3305,4.3305,4.3305,4.3305,4.3305,4.3305,4.3305,4.3305,4.3305,4.3305,4.3305,4.3305,4.3305,4.3305,4.3305,4.3305,4.3305,4.3305,4.3305,4.323,4.3245,4.3245,4.3305,4.3305,4.3305,4.3305,4.326,4.323,4.3095,4.305,4.305,4.308,4.326,4.3305,4.3305,4.3215,4.2662,4.3065,4.3275,4.2393,4.1549,4.0636,4.0157,4.0172,4.0202,4.0322,4.0172,3.9828,3.9828,3.9888,5.1229,5.1229,5.1229,5.1229,5.1229,5.1229,5.1229,5.1229,5.1229,5.1229,5.1229,5.1229,5.1229,5.1229,5.1229,5.0481,4.9509,4.9329,4.8416,4.7638,4.7324,4.7309,4.7309,4.7309,4.7309,4.7309,4.7309,4.7309,4.7309,4.7309,4.7264,4.7115,4.6606,4.666,4.632,4.5818,4.4935,4.4764,4.4357,4.4025,4.4011,4.3849,4.4243,4.4796,4.5079,4.5079,4.5079,4.5005,4.4358,4.3747,4.3305,4.3305,4.3305,4.3305,4.3305,4.3305,4.3305,4.3305,4.3305,4.3305,4.3305,4.3305,4.3305,4.3305,4.3305,4.3305,4.3305,4.3305,4.3305,4.3305,4.3305,4.3305,4.3305,4.3305,4.3305,4.3305,4.3305,4.3305,4.3305,4.3305,4.3305,4.3305,4.3305,4.3305,4.3305,4.3305,4.3305,4.3305,4.3305,4.3305,4.3305,4.3305,4.3275,4.329,4.3305,4.3305,4.3305,4.3305,4.3305,4.3305,4.3305,4.3305,4.3305,4.3275,4.3215,4.2557,4.1504,4.11,4.113,4.1145,4.1025,4.0861,4.0576,4.0756,4.0801,5.1229,5.1229,5.1229,5.1229,5.1229,5.1229,5.1229,5.1229,5.1229,5.1229,5.1229,5.1229,5.1229,5.1229,5.1214,5.0376,4.9688,4.9134,4.8371,4.7773,4.7309,4.7309,4.7309,4.7309,4.7309,4.7309,4.7309,4.7309,4.7309,4.7309,4.7309,4.7219,4.704,4.7009,4.6921,4.6778,4.6234,4.5673,4.5218,4.488,4.4527,4.4381,4.494,4.5604,4.583,4.5778,4.5706,4.569,4.4937,4.363,4.3329,4.3305,4.3305,4.3305,4.3305,4.3305,4.3305,4.3305,4.3305,4.3305,4.3305,4.3305,4.3334,4.3305,4.3305,4.3334,4.3334,4.3409,4.3454,4.3499,4.3604,4.3633,4.3559,4.3484,4.3469,4.3409,4.3394,4.3305,4.3305,4.3305,4.3305,4.3305,4.3305,4.3305,4.3305,4.3305,4.3305,4.3305,4.3305,4.3305,4.3305,4.3305,4.3305,4.3305,4.3305,4.3305,4.3305,4.3305,4.3305,4.3305,4.3305,4.3305,4.3305,4.323,4.3095,4.2791,4.2246,4.2006,4.1818,4.1737,4.1617,4.1497,4.1452,4.1594,4.1609,5.1229,5.1229,5.1229,5.1229,5.1229,5.1229,5.1229,5.1229,5.1229,5.1229,5.1229,5.1229,5.1229,5.1229,5.1154,5.0526,4.9374,4.9239,4.8566,4.7578,4.7309,4.7309,4.7309,4.7309,4.7309,4.7309,4.7309,4.7309,4.7309,4.7309,4.7309,4.7309,4.7309,4.734,4.7486,4.7819,4.7815,4.7237,4.6655,4.6197,4.59,4.5524,4.6024,4.6843,4.6955,4.6638,4.6308,4.6308,4.5196,4.3654,4.3344,4.3305,4.3305,4.3305,4.3305,4.3305,4.3305,4.3305,4.3305,4.3305,4.3305,4.3379,4.3514,4.3693,4.3574,4.3529,4.3604,4.3678,4.3723,4.3798,4.3947,4.4052,4.3888,4.3738,4.3648,4.3559,4.3454,4.3319,4.3305,4.3305,4.3305,4.3305,4.3305,4.3319,4.3305,4.3305,4.3305,4.3305,4.3305,4.3305,4.3305,4.3305,4.3305,4.3305,4.3305,4.3305,4.3305,4.3305,4.3305,4.3305,4.3305,4.3305,4.3305,4.314,4.2946,4.2746,4.2641,4.2521,4.2387,4.2282,4.2282,4.2327,4.2327,4.2417,4.2312,5.1229,5.1229,5.1229,5.1229,5.1229,5.1229,5.1229,5.1229,5.1229,5.1229,5.1229,5.1229,5.1229,5.1229,5.1184,5.0451,4.9629,4.9254,4.8566,4.7339,4.7309,4.7309,4.7309,4.7309,4.7309,4.7309,4.7309,4.7309,4.7309,4.7352,4.7337,4.7381,4.7309,4.7673,4.8701,4.8914,4.9072,4.9304,4.8715,4.8226,4.832,4.7818,4.7149,4.8274,4.8112,4.7533,4.6816,4.6171,4.5426,4.4205,4.3344,4.3359,4.3305,4.3305,4.3305,4.3305,4.3305,4.3305,4.3305,4.3305,4.3394,4.3589,4.3902,4.4212,4.4167,4.4092,4.4197,4.4317,4.4407,4.4511,4.4661,4.4721,4.4616,4.4466,4.4362,4.4092,4.3738,4.3618,4.3544,4.3589,4.3708,4.3723,4.3888,4.3932,4.3693,4.3514,4.3305,4.3305,4.3349,4.3364,4.3364,4.3364,4.3305,4.3305,4.3305,4.3305,4.3305,4.3305,4.3305,4.3305,4.3305,4.3305,4.3305,4.317,4.3065,4.317,4.311,4.2946,4.2895,4.2931,4.2976,4.317,4.32,4.305,4.2931,5.1229,5.1229,5.1229,5.1229,5.1229,5.1229,5.1229,5.1229,5.1229,5.1229,5.1229,5.1229,5.1229,5.1229,5.1214,5.0496,4.9508,4.9224,4.8446,4.7712,4.7381,4.7538,4.7424,4.7624,4.7467,4.7309,4.7309,4.7424,4.7495,4.7495,4.7764,4.8252,4.803,4.8377,4.9891,5.0009,5.0342,5.105,5.0977,4.9922,4.9151,4.9389,4.9266,4.9502,4.9188,4.9055,4.839,4.7555,4.6597,4.541,4.3904,4.3453,4.3305,4.3319,4.3305,4.3305,4.3334,4.3364,4.3305,4.3349,4.3499,4.3873,4.4287,4.4631,4.4796,4.4811,4.4885,4.502,4.511,4.5214,4.5349,4.5364,4.5319,4.5185,4.505,4.4601,4.4167,4.3977,4.3873,4.3992,4.4197,4.4332,4.4511,4.4421,4.4167,4.3813,4.3454,4.3349,4.3469,4.3514,4.3544,4.3499,4.3334,4.3305,4.3305,4.3305,4.3305,4.3305,4.3305,4.3305,4.3305,4.3305,4.3305,4.3305,4.3275,4.3305,4.3305,4.326,4.323,4.3305,4.3305,4.3305,4.3305,4.3185,4.323,5.1229,5.1229,5.1229,5.1229,5.1229,5.1229,5.1229,5.1229,5.1229,5.1229,5.1229,5.1229,5.1229,5.1229,5.1214,5.0496,4.9494,4.9314,4.8416,4.7682,4.7764,4.8003,4.8072,4.8309,4.8309,4.8157,4.803,4.803,4.8003,4.8625,4.9125,4.9376,4.8963,4.9352,5.0908,5.1134,5.1521,5.2559,5.2708,5.1846,5.0312,5.0536,5.0727,5.0727,5.0626,5.0391,4.9613,4.8695,4.7753,4.632,4.4707,4.3948,4.3823,4.3823,4.3589,4.3499,4.3499,4.3604,4.3439,4.3469,4.3708,4.4212,4.4706,4.508,4.5723,4.5783,4.5888,4.5992,4.5798,4.5858,4.6277,4.6411,4.6127,4.5918,4.5738,4.5424,4.5005,4.4706,4.4676,4.4751,4.484,4.484,4.496,4.4945,4.4736,4.4736,4.4287,4.4107,4.4107,4.3858,4.3883,4.3768,4.3648,4.3409,4.3305,4.3305,4.3305,4.3305,4.3305,4.3305,4.3305,4.3305,4.3305,4.3305,4.3305,4.3305,4.3305,4.3305,4.3305,4.3305,4.3305,4.3305,4.3305,4.3305,4.3305,5.1229,5.1229,5.1229,5.1229,5.1229,5.1229,5.1229,5.1229,5.1229,5.1229,5.1229,5.1229,5.1229,5.1229,5.1373,5.0394,4.9779,4.9762,4.8754,4.8152,4.8392,4.8733,4.9231,4.9694,4.9432,4.9191,4.9044,4.9044,4.9044,4.9631,5.0048,5.0435,5.0703,5.0984,5.174,5.2046,5.2277,5.299,5.3315,5.3399,5.2825,5.2283,5.2082,5.198,5.1811,5.1061,5.0524,4.9737,4.8921,4.7545,4.5979,4.5156,4.4665,4.4609,4.4182,4.4062,4.4227,4.4152,4.3913,4.3813,4.4142,4.4601,4.5125,4.5708,4.6352,4.6636,4.6741,4.6681,4.6444,4.6561,4.698,4.7115,4.6785,4.6531,4.6337,4.6232,4.5828,4.5394,4.5349,4.5409,4.5499,4.5499,4.5544,4.5529,4.5424,4.5424,4.5334,4.5259,4.508,4.4721,4.4496,4.4362,4.4186,4.3888,4.3424,4.3349,4.3364,4.3305,4.3305,4.3305,4.3305,4.3305,4.3305,4.3305,4.3305,4.3305,4.3305,4.3305,4.3305,4.3305,4.3305,4.3305,4.3305,4.3305,4.3305,5.1229,5.1229,5.1229,5.1229,5.1229,5.1229,5.1229,5.1229,5.1229,5.1229,5.1229,5.1229,5.1214,5.1246,5.223,5.163,5.0089,5.0153,4.9597,4.8847,4.8897,4.9392,4.9931,5.0358,5.0242,5.0165,5.0087,5.0087,5.0204,5.0435,5.0855,5.1541,5.0741,5.1357,5.28,5.2835,5.2522,5.323,5.3518,5.3518,5.3518,5.3162,5.3213,5.3162,5.3145,5.296,5.2521,5.1353,5.0686,4.9536,4.7757,4.6561,4.5984,4.5515,4.4997,4.4766,4.493,4.4885,4.4706,4.4601,4.4915,4.5487,4.6007,4.6262,4.6756,4.7055,4.7115,4.7115,4.6995,4.6995,4.7264,4.7264,4.704,4.689,4.6711,4.6785,4.6636,4.6127,4.5783,4.6067,4.6352,4.6471,4.6651,4.6471,4.6127,4.6022,4.5723,4.5633,4.5424,4.5244,4.517,4.5065,4.493,4.4052,4.3484,4.3454,4.3454,4.3364,4.3305,4.3305,4.3305,4.3305,4.3305,4.3305,4.3305,4.3305,4.3305,4.3305,4.3305,4.3305,4.3305,4.3305,4.3305,4.3305,4.3305]}]]